[[{"header":{"parameterUnit":"m.s-1","parameterCategory":1,"la1":31.0,"la2":29.5877,"lo1":-88.7671,"lo2":-86.6584,"dx":0.0162,"dy":0.0185,"nx":115,"ny":88,"refTime":"2023-01-23T06:00:00:Z","depth":0,"parameterNumber":2,"parameterNumberName":"U-component_of_WINDS"},"data":[0.0,0.0,0.0,0.0,0.0,0.0,0.0,0.0,0.0,0.0,0.0,0.0,0.0,0.0,0.0,0.0,0.0,0.0,0.0,0.0,0.0,0.0,0.0,0.0,0.0,0.0,0.0,0.0,0.0,0.0,0.0,0.0,0.0,0.0,0.0,0.0,0.0,0.0,0.0,0.0,0.0,0.0,0.0,0.0,0.0,0.0,0.0,0.0,0.0,0.0,0.0,0.0,0.0,0.0,0.0,0.0,0.0,0.0,0.0,0.0,0.0,0.0,0.0,0.0,0.0,0.0,0.0,0.0,0.0,0.0,0.0,0.0,0.0,0.0,0.0,0.0,0.0,0.0,0.0,0.0,0.0,0.0,0.0,0.0,0.0,0.0,0.0,0.0,0.0,0.0,0.0,0.0,0.0,0.0,0.0,0.0,0.0,0.0,0.0,0.0,0.0,0.0,0.0,0.0,0.0,0.0,0.0,0.0,0.0,0.0,0.0,0.0,0.0,0.0,0.0,0.0,0.0,0.0,0.0,0.0,0.0,0.0,0.0,0.0,0.0,0.0,0.0,0.0,0.0,0.0,0.0,0.0,0.0,0.0,0.0,0.0,0.0,0.0,0.0,0.0,0.0,0.0,0.0,0.0,0.0,0.0,0.0,0.0,0.0,0.0,0.0,0.0,0.0,0.0,0.0,0.0,0.0,0.0,0.0,0.0,0.0,0.0,0.0,0.0,0.0,0.0,0.0,0.0,0.0,0.0,0.0,0.0,0.0,0.0,0.0,0.0,0.0,0.0,0.0,0.0,0.0,0.0,0.0,0.0,0.0,0.0,0.0,0.0,0.0,0.0,0.0,0.0,0.0,0.0,0.0,0.0,0.0,0.0,0.0,0.0,0.0,0.0,0.0,0.0,0.0,0.0,0.0,0.0,0.0,0.0,0.0,0.0,0.0,0.0,0.0,0.0,0.0,0.0,0.0,0.0,0.0,0.0,0.0,0.0,0.0,0.0,0.0,0.0,0.0,0.0,0.0,0.0,0.0,0.0,0.0,0.0,0.0,0.0,0.0,0.0,0.0,0.0,0.0,0.0,0.0,0.0,0.0,0.0,0.0,0.0,0.0,0.0,0.0,0.0,0.0,0.0,0.0,0.0,0.0,0.0,0.0,0.0,0.0,0.0,0.0,0.0,0.0,0.0,0.0,0.0,0.0,0.0,0.0,0.0,0.0,0.0,0.0,0.0,0.0,0.0,0.0,0.0,0.0,0.0,0.0,0.0,0.0,0.0,0.0,0.0,0.0,0.0,0.0,0.0,0.0,0.0,0.0,0.0,0.0,0.0,0.0,0.0,0.0,0.0,0.0,0.0,0.0,0.0,0.0,0.0,0.0,0.0,0.0,0.0,0.0,0.0,0.0,0.0,0.0,0.0,0.0,0.0,0.0,0.0,0.0,0.0,0.0,0.0,0.0,0.0,0.0,0.0,0.0,0.0,0.0,0.0,0.0,0.0,0.0,0.0,0.0,0.0,0.0,0.0,0.0,0.0,0.0,0.0,0.0,0.0,0.0,0.0,0.0,0.0,0.0,0.0,0.0,0.0,0.0,0.0,0.0,0.0,0.0,0.0,0.0,0.0,0.0,0.0,0.0,0.0,0.0,0.0,0.0,0.0,0.0,0.0,0.0,0.0,0.0,0.0,0.0,0.0,0.0,0.0,0.0,0.0,0.0,0.0,0.0,0.0,0.0,0.0,0.0,0.0,0.0,0.0,0.0,0.0,0.0,0.0,0.0,0.0,0.0,0.0,0.0,0.0,0.0,0.0,0.0,0.0,0.0,0.0,0.0,0.0,0.0,0.0,0.0,0.0,0.0,0.0,0.0,0.0,0.0,0.0,0.0,0.0,0.0,0.0,0.0,0.0,0.0,0.0,0.0,0.0,0.0,0.0,0.0,0.0,0.0,0.0,0.0,0.0,0.0,0.0,0.0,0.0,0.0,0.0,0.0,0.0,0.0,0.0,0.0,0.0,0.0,0.0,0.0,0.0,0.0,0.0,0.0,0.0,0.0,0.0,0.0,0.0,0.0,0.0,0.0,0.0,0.0,0.0,0.0,0.0,0.0,0.0,0.0,0.0,0.0,0.0,0.0,0.0,0.0,0.0,0.0,0.0,0.0,0.0,0.0,0.0,0.0,0.0,0.0,0.0,0.0,0.0,0.0,0.0,0.0,0.0,0.0,0.0,0.0,0.0,0.0,0.0,0.0,0.0,0.0,0.0,0.0,0.0,0.0,0.0,0.0,0.0,0.0,0.0,0.0,0.0,0.0,0.0,0.0,0.0,0.0,0.0,0.0,0.0,0.0,0.0,0.0,0.0,0.0,0.0,0.0,0.0,0.0,0.0,0.0,0.0,0.0,0.0,0.0,0.0,0.0,0.0,0.0,0.0,0.0,0.0,0.0,0.0,0.0,0.0,0.0,0.0,0.0,0.0,0.0,0.0,0.0,0.0,0.0,0.0,0.0,0.0,0.0,0.0,0.0,0.0,0.0,0.0,0.0,0.0,0.0,0.0,0.0,0.0,0.0,0.0,0.0,0.0,0.0,0.0,0.0,0.0,0.0,0.0,0.0,0.0,0.0,0.0,0.0,0.0,0.0,0.0,0.0,0.0,0.0,0.0,0.0,0.0,0.0,0.0,0.0,0.0,0.0,0.0,0.0,0.0,0.0,0.0,0.0,0.0,0.0,0.0,0.0,0.0,0.0,0.0,0.0,0.0,0.0,0.0,0.0,0.0,0.0,0.0,0.0,0.0,0.0,0.0,0.0,0.0,0.0,0.0,0.0,0.0,0.0,0.0,0.0,0.0,0.0,0.0,0.0,0.0,0.0,0.0,0.0,0.0,0.0,0.0,0.0,0.0,0.0,0.0,0.0,0.0,0.0,0.0,0.0,0.0,0.0,0.0,0.0,0.0,0.0,0.0,0.0,0.0,0.0,0.0,0.0,0.0,0.0,0.0,0.0,0.0,0.0,0.0,0.0,0.0,0.0,0.0,0.0,0.0,0.0,0.0,0.0,0.0,0.0,0.0,0.0,0.0,0.0,0.0,0.0,0.0,0.0,0.0,0.0,0.0,0.0,0.0,0.0,0.0,0.0,0.0,0.0,0.0,0.0,0.0,0.0,0.0,0.0,0.0,0.0,0.0,0.0,0.0,0.0,0.0,0.0,0.0,0.0,0.0,0.0,0.0,0.0,0.0,0.0,0.0,0.0,0.0,0.0,0.0,0.0,0.0,0.0,0.0,0.0,0.0,0.0,0.0,0.0,0.0,0.0,0.0,0.0,0.0,0.0,0.0,0.0,0.0,0.0,0.0,0.0,0.0,0.0,0.0,0.0,0.0,0.0,0.0,0.0,0.0,0.0,0.0,0.0,0.0,0.0,0.0,0.0,0.0,0.0,0.0,0.0,0.0,0.0,0.0,0.0,0.0,0.0,0.0,0.0,0.0,0.0,0.0,0.0,0.0,0.0,0.0,0.0,0.0,0.0,0.0,0.0,0.0,0.0,0.0,0.0,0.0,0.0,0.0,0.0,0.0,0.0,0.0,0.0,0.0,0.0,0.0,0.0,0.0,0.0,0.0,0.0,0.0,0.0,0.0,0.0,0.0,0.0,0.0,0.0,0.0,0.0,0.0,0.0,0.0,0.0,0.0,0.0,0.0,0.0,0.0,0.0,0.0,0.0,0.0,0.0,0.0,0.0,0.0,0.0,0.0,0.0,0.0,0.0,0.0,0.0,0.0,0.0,0.0,0.0,0.0,0.0,0.0,0.0,0.0,0.0,0.0,0.0,0.0,0.0,0.0,0.0,0.0,0.0,0.0,0.0,0.0,0.0,0.0,0.0,0.0,0.0,0.0,0.0,0.0,0.0,0.0,0.0,0.0,0.0,0.0,0.0,0.0,0.0,0.0,0.0,0.0,0.0,0.0,0.0,0.0,0.0,0.0,0.0,0.0,0.0,0.0,0.0,0.0,0.0,0.0,0.0,0.0,0.0,0.0,0.0,0.0,0.0,0.0,0.0,0.0,0.0,0.0,0.0,0.0,0.0,0.0,0.0,0.0,0.0,0.0,0.0,0.0,0.0,0.0,0.0,0.0,0.0,0.0,0.0,0.0,0.0,0.0,0.0,0.0,0.0,0.0,0.0,0.0,0.0,0.0,0.0,0.0,0.0,0.0,0.0,0.0,0.0,0.0,0.0,0.0,0.0,0.0,0.0,0.0,0.0,0.0,0.0,0.0,0.0,0.0,1.5715,0.0,0.0,0.0,0.0,0.0,0.0,0.0,0.0,0.0,0.0,0.0,0.0,0.0,0.0,0.0,0.0,0.0,0.0,0.0,0.0,0.0,0.0,0.0,0.0,0.0,0.0,0.0,0.0,0.0,0.0,0.0,0.0,0.0,0.0,0.0,0.0,0.0,0.0,0.0,0.0,0.0,0.0,0.0,0.0,0.0,0.0,0.0,0.0,0.0,0.0,0.0,0.0,0.0,0.0,0.0,0.0,0.0,0.0,0.0,0.0,0.0,0.0,0.0,0.0,0.0,0.0,0.0,0.0,0.0,0.0,0.0,0.0,0.0,0.0,0.0,0.0,0.0,0.0,0.0,0.0,0.0,0.0,0.0,0.0,0.0,0.0,0.0,0.0,0.0,0.0,0.0,0.0,0.0,0.0,0.0,0.0,0.0,0.0,0.0,0.0,0.0,0.0,0.0,0.0,0.0,0.0,0.0,0.0,0.0,0.0,1.9338,2.082,1.8523,1.6862,1.6061,0.0,0.0,0.0,0.0,0.0,0.0,0.0,0.0,0.0,0.0,0.0,0.0,0.0,0.0,0.0,0.0,0.0,0.0,0.0,0.0,0.0,0.0,0.0,0.0,0.0,0.0,0.0,0.0,0.0,0.0,0.0,0.0,0.0,0.0,0.0,0.0,0.0,0.0,0.0,0.0,0.0,0.0,0.0,0.0,0.0,0.0,0.0,0.0,0.0,0.0,0.0,0.0,0.0,0.0,0.0,0.0,0.0,0.0,0.0,0.0,0.0,0.0,0.0,0.0,0.0,0.0,0.0,0.0,0.0,0.0,0.0,0.0,0.0,0.0,0.0,0.0,0.0,0.0,0.0,0.0,0.0,0.0,0.0,0.0,0.0,0.0,0.0,0.0,0.0,0.0,0.0,0.0,0.0,0.0,0.0,0.0,0.0,0.0,0.0,0.0,0.0,0.0,0.0,0.0,0.0,0.0,0.0,0.0,0.0,0.0,0.0,0.0,1.8248,1.6302,1.5673,0.0,0.0,0.0,0.0,0.0,0.0,0.0,0.0,0.0,0.0,0.0,0.0,0.0,0.0,0.0,0.0,0.0,0.0,0.0,0.0,0.0,0.0,0.0,0.0,0.0,0.0,0.0,0.0,0.0,0.0,0.0,0.0,0.0,0.0,0.0,0.0,0.0,0.0,0.0,0.0,0.0,0.0,0.0,0.0,0.0,0.0,0.0,0.0,0.0,0.0,0.0,0.0,0.0,0.0,0.0,0.0,0.0,0.0,0.0,0.0,0.0,0.0,0.0,0.0,0.0,0.0,0.0,0.0,0.0,0.0,0.0,0.0,0.0,0.0,0.0,0.0,0.0,0.0,0.0,0.0,0.0,0.0,0.0,0.0,0.0,0.0,0.0,0.0,0.0,0.0,0.0,0.0,0.0,0.0,0.0,0.0,0.0,0.0,0.0,0.0,0.0,0.0,0.0,0.0,0.0,0.0,0.0,0.0,0.0,0.0,2.1249,2.1797,2.0439,0.0,1.3757,0.0,0.0,0.0,0.0,0.0,0.0,0.0,0.0,0.0,0.0,0.0,0.0,0.0,0.0,0.0,0.0,0.0,0.0,0.0,0.0,0.0,0.0,0.0,0.0,0.0,0.0,0.0,0.0,0.0,0.0,0.0,0.0,0.0,0.0,0.0,0.0,0.0,0.0,0.0,0.0,0.0,0.0,0.0,0.0,0.0,0.0,0.0,0.0,0.0,0.0,0.0,0.0,0.0,0.0,0.0,0.0,0.0,0.0,0.0,0.0,0.0,0.0,0.0,0.0,0.0,0.0,0.0,0.0,0.0,0.0,0.0,0.0,0.0,0.0,0.0,0.0,0.0,0.0,0.0,0.0,0.0,0.0,0.0,0.0,0.0,0.0,0.0,0.0,0.0,0.0,0.0,0.0,0.0,0.0,0.0,0.0,0.0,0.0,0.0,0.0,0.0,0.0,0.0,0.0,0.0,0.0,0.0,0.0,0.0,0.0,2.1425,2.1875,1.8809,1.5663,0.0,0.0,0.0,0.0,0.0,0.0,0.0,0.0,0.0,0.0,0.0,0.0,0.0,0.0,0.0,0.0,0.0,0.0,0.0,0.0,0.0,0.0,0.0,0.0,0.0,0.0,0.0,0.0,0.0,0.0,0.0,0.0,0.0,0.0,0.0,0.0,0.0,0.0,0.0,0.0,0.0,0.0,0.0,0.0,0.0,0.0,0.0,0.0,0.0,0.0,0.0,0.0,0.0,0.0,0.0,0.0,0.0,0.0,0.0,0.0,0.0,0.0,0.0,0.0,0.0,0.0,0.0,0.0,0.0,0.0,0.0,0.0,0.0,0.0,0.0,0.0,0.0,0.0,0.0,0.0,0.0,0.0,0.0,0.0,0.0,0.0,0.0,0.0,0.0,0.0,0.0,0.0,0.0,0.0,0.0,0.0,0.0,0.0,0.0,0.0,0.0,0.0,0.0,0.0,0.0,0.0,0.0,0.0,0.0,0.0,2.1093,2.0948,2.0608,1.681,1.3778,1.1839,0.0,0.0,0.0,0.0,0.0,0.0,0.0,0.0,0.0,0.0,0.0,0.0,0.0,0.0,0.0,0.0,0.0,0.0,0.0,0.0,0.0,0.0,0.0,0.0,0.0,0.0,0.0,0.0,0.0,0.0,0.0,0.0,0.0,0.0,0.0,0.0,0.0,0.0,0.0,0.0,0.0,0.0,0.0,0.0,0.0,0.0,0.0,0.0,0.0,0.0,0.0,0.0,0.0,0.0,0.0,0.0,0.0,0.0,0.0,0.0,0.0,0.0,0.0,0.0,0.0,0.0,0.0,0.0,0.0,0.0,0.0,0.0,0.0,0.0,0.0,0.0,0.0,0.0,0.0,0.0,0.0,0.0,0.0,0.0,0.0,0.0,0.0,0.0,0.0,0.0,0.0,0.0,0.0,0.0,0.0,0.0,0.0,0.0,0.0,0.0,0.0,0.0,0.0,0.0,0.0,0.0,0.0,0.0,0.0,2.084,1.9792,1.8075,1.5295,1.3128,0.0,0.0,0.0,0.0,0.0,0.0,0.0,0.0,0.0,0.0,0.0,0.0,0.0,0.0,0.0,0.0,0.0,0.0,0.0,0.0,0.0,0.0,0.0,0.0,0.0,0.0,0.0,0.0,0.0,0.0,0.0,0.0,0.0,0.0,0.0,0.0,0.0,0.0,0.0,0.0,0.0,0.0,0.0,0.0,0.0,0.0,0.0,0.0,0.0,0.0,0.0,0.0,0.0,0.0,0.0,0.0,0.0,0.0,0.0,0.0,0.0,0.0,0.0,0.0,0.0,0.0,0.0,0.0,0.0,0.0,0.0,0.0,0.0,0.0,0.0,0.0,0.0,0.0,0.0,0.0,0.0,0.0,0.0,0.0,0.0,0.0,0.0,0.0,0.0,0.0,0.0,0.0,0.0,0.0,0.0,0.0,0.0,0.0,0.0,0.0,0.0,0.0,0.0,0.0,0.0,0.0,0.0,0.0,0.0,2.1561,2.0997,1.9895,1.8285,1.5092,1.2692,0.0,0.0,0.0,0.0,0.0,0.0,0.0,0.0,0.0,0.0,0.0,0.0,0.0,0.0,0.0,0.0,0.0,0.0,0.0,0.0,0.0,0.0,0.0,0.0,0.0,0.0,0.0,0.0,0.0,0.0,0.0,0.0,0.0,0.0,0.0,0.0,0.0,0.0,0.0,0.0,0.0,0.0,0.0,0.0,0.0,0.0,0.0,0.0,0.0,0.0,0.0,0.0,0.0,0.0,0.0,0.0,0.0,0.0,0.0,0.0,0.0,0.0,0.0,0.0,0.0,0.0,0.0,0.0,0.0,0.0,0.0,0.0,0.0,0.0,0.0,0.0,0.0,0.0,0.0,0.0,0.0,0.0,0.0,0.0,0.0,0.0,0.0,0.0,0.0,0.0,0.0,0.0,0.0,0.0,0.0,0.0,0.0,0.0,0.0,0.0,0.0,0.0,0.0,0.0,0.0,0.0,0.0,0.0,0.0,2.0557,0.0,1.8515,1.7525,1.4238,1.2083,0.0,0.0,0.0,0.0,0.0,0.0,0.0,0.0,0.0,0.0,0.0,0.0,0.0,0.0,0.0,0.0,0.0,0.0,0.0,0.0,0.0,0.0,0.0,0.0,0.0,0.0,0.0,0.0,0.0,0.0,0.0,0.0,0.0,0.0,0.0,0.0,0.0,0.0,0.0,0.0,0.0,0.0,0.0,0.0,0.0,0.0,0.0,0.0,0.0,0.0,0.0,0.0,0.0,0.0,0.0,0.0,0.0,0.0,0.0,0.0,0.0,0.0,0.0,0.0,0.0,0.0,0.0,0.0,0.0,0.0,0.0,0.0,0.0,0.0,0.0,0.0,0.0,0.0,0.0,0.0,0.0,0.0,0.0,0.0,0.0,0.0,0.0,0.0,0.0,0.0,0.0,0.0,0.0,0.0,0.0,0.0,0.0,0.0,0.0,0.0,0.0,0.0,0.0,0.0,0.0,0.0,0.0,0.0,1.9678,1.7986,1.6354,1.5639,1.5492,1.275,1.1368,0.0,0.0,0.0,0.0,0.0,0.0,0.0,0.0,0.0,0.0,0.0,0.0,0.0,0.0,0.0,0.0,0.0,0.0,0.0,0.0,0.0,0.0,0.0,0.0,0.0,0.0,0.0,0.0,0.0,0.0,0.0,0.0,0.0,0.0,0.0,0.0,0.0,0.0,0.0,0.0,0.0,0.0,0.0,0.0,0.0,0.0,0.0,0.0,0.0,0.0,0.0,0.0,0.0,0.0,0.0,0.0,0.0,0.0,0.0,0.0,0.0,0.0,0.0,0.0,0.0,0.0,0.0,0.0,0.0,0.0,0.0,0.0,0.0,0.0,0.0,0.0,0.0,0.0,0.0,0.0,0.0,0.0,0.0,0.0,0.0,0.0,0.0,0.0,0.0,0.0,0.0,0.0,0.0,0.0,0.0,0.0,0.0,0.0,0.0,0.0,0.0,0.0,0.0,0.0,0.0,0.0,0.0,0.0,0.0,1.8469,1.709,1.6553,1.6847,1.3179,1.1345,0.0,0.0,0.0,0.0,0.0,0.0,0.0,0.0,0.0,0.0,0.0,0.0,0.0,0.0,0.0,0.0,0.0,0.0,0.0,0.0,0.0,0.0,0.0,0.0,0.0,0.0,0.0,0.0,0.0,0.0,0.0,0.0,0.0,0.0,0.0,0.0,0.0,0.0,0.0,0.0,0.0,0.0,0.0,0.0,0.0,0.0,0.0,0.0,0.0,0.0,0.0,0.0,0.0,0.0,0.0,0.0,0.0,0.0,0.0,0.0,0.0,0.0,0.0,0.0,0.0,0.0,0.0,0.0,0.0,0.0,0.0,0.0,0.0,0.0,0.0,0.0,0.0,0.0,0.0,0.0,0.0,0.0,0.0,0.0,0.0,0.0,0.0,0.0,0.0,0.0,0.0,0.0,0.0,0.0,0.0,0.0,0.0,0.0,0.0,0.0,0.0,0.0,0.0,0.0,0.0,0.0,0.0,0.0,0.0,1.7223,1.5951,1.5586,1.626,1.2556,1.0753,1.1127,0.0,0.0,0.0,0.0,0.0,0.0,0.0,0.0,0.0,0.0,0.0,0.0,0.0,0.0,0.0,0.0,0.0,0.0,0.0,0.0,0.0,0.0,0.0,0.0,0.0,0.0,0.0,0.0,0.0,0.0,0.0,0.0,0.0,0.0,0.0,0.0,0.0,0.0,0.0,0.0,0.0,0.0,0.0,0.0,0.0,0.0,0.0,0.0,0.0,0.0,0.0,0.0,0.0,0.0,0.0,0.0,0.0,0.0,0.0,0.0,0.0,0.0,0.0,0.0,0.0,0.0,0.0,0.0,0.0,0.0,0.0,0.0,0.0,0.0,0.0,0.0,0.0,0.0,0.0,0.0,0.0,0.0,0.0,0.0,0.0,0.0,0.0,0.0,0.0,0.0,0.0,0.0,0.0,0.0,0.0,0.0,0.0,0.0,0.0,0.0,0.0,0.0,0.0,0.0,0.0,0.0,0.0,0.0,1.4757,1.3335,1.3058,1.3914,1.1172,0.9772,0.0,0.0,0.0,0.0,0.0,0.0,0.0,0.0,0.0,0.0,0.0,0.0,0.0,0.0,0.0,0.0,0.0,0.0,0.0,0.0,0.0,0.0,0.0,0.0,0.0,0.0,0.0,0.0,0.0,0.0,0.0,0.0,0.0,0.0,0.0,0.0,0.0,0.0,0.0,0.0,0.0,0.0,0.0,0.0,0.0,0.0,0.0,0.0,0.0,0.0,0.0,0.0,0.0,0.0,0.0,0.0,0.0,0.0,0.0,0.0,0.0,0.0,0.0,0.0,0.0,0.0,0.0,0.0,0.0,0.0,0.0,0.0,0.0,0.0,0.0,0.0,0.0,0.0,0.0,0.0,0.0,0.0,0.0,0.0,0.0,0.0,0.0,0.0,0.0,0.0,0.0,0.0,0.0,0.0,0.0,0.0,0.0,0.0,0.0,0.0,0.0,0.0,0.0,0.0,0.0,0.0,0.0,0.0,0.0,1.4135,1.3188,1.3129,1.3986,1.1389,1.0223,0.0,0.0,0.0,0.0,0.0,0.0,0.0,0.0,0.0,0.0,0.0,0.0,0.0,0.0,0.0,0.0,0.0,0.0,0.0,0.0,0.0,0.0,0.0,0.0,0.0,0.0,0.0,0.0,0.0,0.0,0.0,0.0,0.0,0.0,0.0,0.0,0.0,0.0,0.0,0.0,0.0,0.0,0.0,0.0,0.0,0.0,0.0,0.0,0.0,0.0,0.0,0.0,0.0,0.0,0.0,0.0,0.0,0.0,0.0,0.0,0.0,0.0,0.0,0.0,0.0,0.0,0.0,0.0,0.0,0.0,0.0,0.0,0.0,0.0,0.0,0.0,0.0,0.0,0.0,0.0,0.0,0.0,0.0,0.0,0.0,0.0,0.0,0.0,0.0,0.0,0.0,0.0,0.0,0.0,0.0,0.0,0.0,0.0,0.0,0.0,0.0,0.0,0.0,0.0,0.0,0.0,0.0,0.0,1.3787,1.3491,1.2713,1.2598,1.3176,1.133,1.0281,0.0,0.0,0.0,0.0,0.0,0.0,0.0,0.0,0.0,0.0,0.0,0.0,0.0,0.0,0.0,0.0,0.0,0.0,0.0,0.0,0.0,0.0,0.0,0.0,0.0,0.0,0.0,0.0,0.0,0.0,0.0,0.0,0.0,0.0,0.0,0.0,0.0,0.0,0.0,0.0,0.0,0.0,0.0,0.0,0.0,0.0,0.0,0.0,0.0,0.0,0.0,0.0,0.0,0.0,0.0,0.0,0.0,0.0,0.0,0.0,0.0,0.0,0.0,0.0,0.0,0.0,0.0,0.0,0.0,0.0,0.0,0.0,0.0,0.0,0.0,0.0,0.0,0.0,0.0,0.0,0.0,0.0,0.0,0.0,0.0,0.0,0.0,0.0,0.0,0.0,0.0,0.0,0.0,0.0,0.0,0.0,0.0,0.0,0.0,0.0,0.0,0.0,0.0,0.0,0.0,0.0,0.0,0.0,1.2532,1.2777,1.2223,1.1901,1.1868,1.111,1.0157,0.0,0.0,0.0,0.0,0.0,0.0,0.0,0.0,0.0,0.0,0.0,0.0,0.0,0.0,0.0,0.0,0.0,0.0,0.0,0.0,0.0,0.0,0.0,0.0,0.0,0.0,0.0,0.0,0.0,0.0,0.0,0.0,0.0,0.0,0.0,0.0,0.0,0.0,0.0,0.0,0.0,0.0,0.0,0.0,0.0,0.0,0.0,0.0,0.0,0.0,0.0,0.0,0.0,0.0,0.0,0.0,0.0,0.0,0.0,0.0,0.0,0.0,0.0,0.0,0.0,0.0,0.0,0.0,0.0,0.0,0.0,0.0,0.0,0.0,0.0,0.0,0.0,0.0,0.0,0.0,0.0,0.0,0.0,0.0,0.0,0.0,0.0,0.0,0.0,0.0,0.0,0.0,0.0,0.0,0.0,0.0,0.0,0.0,0.0,0.0,0.0,0.0,0.0,0.0,0.0,0.0,0.0,0.0,1.2399,1.1889,1.2443,1.2657,1.2535,1.132,1.0346,0.0,0.0,0.0,0.0,0.0,0.0,0.0,0.0,0.0,0.0,0.0,0.0,0.0,0.0,0.0,0.0,0.0,0.0,0.0,0.0,0.0,0.0,0.0,0.0,0.0,0.0,0.0,0.0,0.0,0.0,0.0,0.0,0.0,0.0,0.0,0.0,0.0,0.0,0.0,0.0,0.0,0.0,0.0,0.0,0.0,0.0,0.0,0.0,1.5758,0.0,0.0,0.0,0.0,0.0,0.0,0.0,0.0,0.0,0.0,0.0,0.0,0.0,0.0,0.0,0.0,0.0,0.0,0.0,0.0,0.0,0.0,0.0,0.0,0.0,0.0,0.0,0.0,0.0,0.0,0.0,0.0,0.0,0.0,0.0,0.0,0.0,0.0,0.0,0.0,0.0,0.0,0.0,0.0,0.0,0.0,0.0,0.0,0.0,0.0,0.0,0.0,0.0,0.0,0.0,0.0,0.0,0.0,0.0,1.2201,1.2275,1.2922,1.32,1.3017,1.1945,1.0968,0.0,0.0,0.0,0.0,0.0,0.0,0.0,0.0,0.0,0.0,0.0,0.0,0.0,0.0,0.0,0.0,0.0,0.0,0.0,0.0,0.0,0.0,0.0,0.0,0.0,0.0,0.0,0.0,0.0,0.0,0.0,0.0,0.0,0.0,0.0,0.0,0.0,0.0,0.0,0.0,0.0,0.0,0.0,0.0,0.0,0.0,0.0,0.0,0.0,0.0,0.0,0.0,0.0,0.0,0.0,0.0,0.0,0.0,0.0,0.0,0.0,0.0,0.0,0.0,0.0,0.0,0.0,0.0,0.0,0.0,0.0,0.0,0.0,0.0,0.0,0.0,0.0,0.0,0.0,0.0,0.0,0.0,0.0,0.0,0.0,0.0,0.0,0.0,0.0,0.0,0.0,0.0,0.0,0.0,0.0,0.0,0.0,0.0,0.0,0.0,0.0,0.0,0.0,0.0,0.0,0.0,0.0,1.1731,1.2054,1.2996,1.3424,1.358,1.3458,1.2594,1.1756,1.1092,0.0,0.0,0.0,0.0,0.0,0.0,0.0,0.0,0.0,0.0,0.0,0.0,0.0,0.0,0.0,0.0,0.0,0.0,0.0,0.0,0.0,0.0,0.0,0.0,0.0,0.0,0.0,0.0,0.0,0.0,0.0,0.0,0.0,0.0,0.0,0.0,0.0,0.0,1.5861,1.6021,0.0,0.0,0.0,0.0,0.0,0.0,0.0,0.0,1.5481,0.0,0.0,0.0,0.0,0.0,0.0,0.0,0.0,0.0,0.0,0.0,0.0,0.0,0.0,0.0,0.0,0.0,0.0,0.0,0.0,0.0,0.0,0.0,0.0,0.0,0.0,0.0,0.0,0.0,0.0,0.0,0.0,0.0,0.0,0.0,0.0,0.0,0.0,0.0,0.0,0.0,0.0,0.0,0.0,0.0,0.0,0.0,0.0,0.0,0.0,0.0,0.0,0.0,0.0,0.0,0.0,1.1362,1.1427,1.2047,1.3288,1.3484,1.3632,1.3693,1.2696,1.2452,1.3226,0.0,0.0,0.0,0.0,0.0,0.0,0.0,0.0,0.0,0.0,0.0,0.0,0.0,0.0,0.0,0.0,0.0,0.0,0.0,0.0,0.0,0.0,0.0,0.0,0.0,0.0,0.0,0.0,0.0,0.0,0.0,0.0,0.0,0.0,0.0,0.0,0.0,0.0,0.0,1.6981,1.7153,0.0,0.0,0.0,0.0,0.0,0.0,0.0,0.0,1.5578,0.0,0.0,0.0,0.0,0.0,0.0,0.0,0.0,0.0,0.0,0.0,0.0,0.0,0.0,0.0,0.0,0.0,0.0,0.0,0.0,0.0,0.0,0.0,0.0,0.0,0.0,0.0,0.0,0.0,0.0,0.0,0.0,0.0,0.0,0.0,0.0,0.0,0.0,0.0,0.0,0.0,0.0,0.0,0.0,0.0,0.0,0.0,0.0,0.0,0.0,0.0,0.0,0.0,0.0,0.0,1.1309,1.1928,1.2705,1.3709,1.3824,1.3851,1.3768,1.2535,1.2402,0.0,0.0,0.0,0.0,0.0,0.0,0.0,0.0,0.0,0.0,0.0,0.0,0.0,0.0,0.0,0.0,0.0,0.0,0.0,0.0,0.0,0.0,0.0,0.0,0.0,0.0,0.0,0.0,0.0,0.0,0.0,0.0,0.0,0.0,0.0,0.0,0.0,0.0,0.0,0.0,1.7113,1.7234,1.6767,0.0,0.0,0.0,0.0,0.0,0.0,1.5869,1.5845,0.0,0.0,0.0,0.0,0.0,0.0,0.0,0.0,0.0,0.0,0.0,0.0,0.0,0.0,0.0,0.0,0.0,0.0,0.0,0.0,0.0,0.0,0.0,0.0,0.0,0.0,0.0,0.0,0.0,0.0,0.0,0.0,0.0,0.0,0.0,0.0,0.0,0.0,0.0,0.0,0.0,0.0,0.0,0.0,0.0,0.0,0.0,0.0,0.0,0.0,0.0,0.0,0.0,0.0,0.0,1.143,1.2417,1.3302,1.4071,1.4084,1.3953,1.3734,1.2748,1.2794,0.0,0.0,0.0,0.0,0.0,0.0,0.0,0.0,0.0,0.0,0.0,0.0,0.0,0.0,0.0,0.0,0.0,0.0,0.0,0.0,0.0,0.0,0.0,0.0,0.0,0.0,0.0,0.0,0.0,0.0,0.0,0.0,0.0,0.0,0.0,0.0,0.0,0.0,0.0,0.0,0.0,1.7381,1.6941,1.722,0.0,0.0,0.0,0.0,1.5992,1.6498,0.0,0.0,0.0,0.0,0.0,0.0,0.0,0.0,0.0,0.0,0.0,0.0,0.0,0.0,0.0,0.0,0.0,0.0,0.0,0.0,0.0,0.0,0.0,0.0,0.0,0.0,0.0,0.0,0.0,0.0,0.0,0.0,0.0,0.0,0.0,0.0,0.0,0.0,0.0,0.0,0.0,0.0,0.0,0.0,0.0,0.0,0.0,0.0,0.0,0.0,0.0,0.0,0.0,0.0,0.0,0.0,1.1565,1.223,1.3051,1.405,1.3939,1.3754,1.3641,1.4075,1.4717,0.0,0.0,0.0,0.0,0.0,0.0,0.0,0.0,0.0,0.0,0.0,0.0,0.0,0.0,0.0,0.0,0.0,0.0,0.0,0.0,0.0,0.0,0.0,0.0,0.0,0.0,0.0,0.0,0.0,0.0,0.0,0.0,0.0,0.0,0.0,0.0,0.0,0.0,0.0,0.0,0.0,1.841,1.7622,1.7996,1.8103,0.0,0.0,0.0,1.7649,1.845,0.0,0.0,0.0,0.0,0.0,0.0,0.0,0.0,0.0,0.0,0.0,0.0,0.0,0.0,0.0,0.0,0.0,0.0,0.0,0.0,0.0,0.0,0.0,0.0,0.0,0.0,0.0,0.0,0.0,0.0,0.0,0.0,0.0,0.0,0.0,0.0,0.0,0.0,0.0,0.0,0.0,0.0,0.0,0.0,0.0,0.0,0.0,0.0,0.0,0.0,0.0,0.0,0.0,0.0,0.0,1.1773,1.1771,1.2576,1.3397,1.4156,1.3966,1.4274,1.5321,1.4479,1.5022,0.0,0.0,0.0,0.0,0.0,0.0,0.0,0.0,0.0,0.0,0.0,0.0,0.0,0.0,0.0,0.0,0.0,0.0,0.0,0.0,0.0,0.0,0.0,0.0,0.0,0.0,0.0,0.0,0.0,0.0,0.0,0.0,0.0,0.0,0.0,0.0,0.0,0.0,0.0,0.0,0.0,0.0,1.7916,1.8504,0.0,0.0,0.0,1.8584,1.8516,0.0,0.0,0.0,0.0,0.0,0.0,0.0,0.0,0.0,0.0,0.0,0.0,0.0,0.0,0.0,0.0,0.0,0.0,0.0,0.0,0.0,0.0,0.0,0.0,0.0,0.0,0.0,0.0,0.0,0.0,0.0,0.0,0.0,0.0,0.0,0.0,0.0,0.0,0.0,0.0,0.0,0.0,0.0,0.0,0.0,0.0,0.0,0.0,0.0,0.0,0.0,0.0,0.0,0.0,0.0,0.0,0.0,1.1928,1.2888,1.3688,1.4265,1.4513,1.5263,1.6543,1.5678,0.0,0.0,0.0,0.0,0.0,0.0,0.0,0.0,0.0,0.0,0.0,0.0,0.0,0.0,0.0,0.0,0.0,0.0,0.0,0.0,0.0,0.0,0.0,0.0,0.0,0.0,0.0,1.7107,0.0,0.0,0.0,0.0,0.0,0.0,0.0,0.0,0.0,0.0,0.0,0.0,0.0,0.0,1.8651,1.8476,1.9239,1.9642,0.0,0.0,1.9843,1.949,1.9613,1.9239,0.0,0.0,0.0,0.0,0.0,0.0,0.0,0.0,0.0,0.0,0.0,0.0,0.0,0.0,0.0,0.0,0.0,0.0,0.0,0.0,0.0,0.0,0.0,0.0,0.0,0.0,0.0,0.0,0.0,0.0,0.0,0.0,0.0,0.0,0.0,0.0,0.0,0.0,0.0,0.0,0.0,0.0,0.0,0.0,0.0,0.0,0.0,0.0,0.0,0.0,0.0,0.0,0.0,0.0,0.0,1.2159,1.2942,1.3695,1.4309,1.6008,1.6709,1.6459,1.8499,1.9255,0.0,0.0,0.0,0.0,0.0,0.0,0.0,0.0,0.0,0.0,0.0,0.0,0.0,0.0,0.0,0.0,0.0,0.0,0.0,0.0,0.0,0.0,0.0,0.0,0.0,0.0,0.0,0.0,0.0,0.0,0.0,0.0,0.0,0.0,0.0,0.0,0.0,0.0,0.0,0.0,0.0,1.9428,1.9653,2.0441,2.1162,0.0,0.0,2.1341,2.1002,2.2084,2.1838,1.8529,0.0,0.0,0.0,0.0,0.0,0.0,0.0,0.0,0.0,0.0,0.0,0.0,0.0,0.0,0.0,0.0,0.0,0.0,0.0,0.0,0.0,0.0,0.0,0.0,0.0,0.0,0.0,0.0,0.0,0.0,0.0,0.0,0.0,0.0,0.0,0.0,0.0,0.0,0.0,0.0,0.0,0.0,0.0,0.0,0.0,0.0,0.0,0.0,0.0,0.0,0.0,0.0,0.0,1.4561,1.3534,1.3514,1.3743,1.4217,1.6082,1.7436,1.8096,1.9388,2.0081,0.0,0.0,0.0,0.0,0.0,0.0,0.0,0.0,0.0,0.0,0.0,0.0,0.0,0.0,0.0,0.0,0.0,0.0,0.0,0.0,0.0,0.0,0.0,0.0,0.0,0.0,0.0,0.0,1.5565,1.5565,1.5565,0.0,0.0,0.0,0.0,0.0,0.0,0.0,0.0,0.0,0.0,1.9933,2.0793,2.147,0.0,0.0,2.181,2.1756,2.1462,2.1243,2.0575,1.8823,1.8103,0.0,0.0,0.0,0.0,0.0,0.0,0.0,0.0,0.0,0.0,0.0,0.0,0.0,0.0,0.0,0.0,0.0,0.0,0.0,0.0,0.0,0.0,0.0,0.0,0.0,0.0,0.0,0.0,0.0,0.0,0.0,0.0,0.0,0.0,0.0,0.0,0.0,0.0,0.0,0.0,0.0,0.0,0.0,0.0,0.0,0.0,0.0,0.0,0.0,0.0,0.0,0.0,1.6291,1.46,1.5232,1.547,1.5242,1.7767,1.9495,2.0293,2.0911,2.128,0.0,0.0,0.0,0.0,0.0,0.0,0.0,0.0,0.0,0.0,0.0,0.0,0.0,0.0,0.0,0.0,0.0,0.0,0.0,0.0,0.0,0.0,0.0,0.0,0.0,0.0,0.0,0.0,1.5712,1.5722,1.5778,0.0,0.0,0.0,0.0,0.0,0.0,0.0,0.0,0.0,0.0,2.0548,2.1569,2.2178,2.2432,2.2124,2.2098,2.2017,2.1756,2.0989,2.0067,1.8971,0.0,0.0,0.0,0.0,0.0,0.0,0.0,0.0,0.0,0.0,0.0,0.0,0.0,0.0,0.0,0.0,0.0,0.0,0.0,0.0,0.0,0.0,0.0,0.0,0.0,0.0,0.0,0.0,0.0,0.0,0.0,0.0,0.0,0.0,0.0,0.0,0.0,0.0,0.0,0.0,0.0,0.0,0.0,0.0,0.0,0.0,0.0,0.0,0.0,0.0,0.0,0.0,0.0,1.7878,1.5044,1.8286,1.9296,1.7887,2.1589,2.3288,2.2773,2.3377,2.3158,2.1977,0.0,0.0,0.0,0.0,0.0,0.0,0.0,0.0,0.0,0.0,0.0,0.0,0.0,0.0,0.0,0.0,0.0,0.0,0.0,0.0,0.0,0.0,0.0,0.0,0.0,0.0,1.6731,1.6444,1.6364,0.0,0.0,0.0,0.0,0.0,0.0,0.0,0.0,0.0,0.0,2.0174,2.1296,2.1897,2.2505,2.2926,2.3193,2.2766,2.2251,2.1958,2.1878,2.1162,0.0,0.0,0.0,0.0,0.0,0.0,0.0,0.0,0.0,0.0,0.0,0.0,0.0,0.0,0.0,0.0,0.0,0.0,0.0,0.0,0.0,0.0,0.0,0.0,0.0,0.0,0.0,0.0,2.1379,0.0,0.0,0.0,0.0,0.0,0.0,0.0,0.0,0.0,0.0,0.0,2.1716,2.1823,0.0,0.0,0.0,0.0,0.0,0.0,0.0,0.0,0.0,0.0,0.0,0.0,1.9513,1.8874,1.9895,2.0289,1.9995,2.2439,2.3546,2.306,2.3858,2.342,2.1456,0.0,0.0,0.0,0.0,0.0,0.0,0.0,0.0,0.0,0.0,0.0,0.0,0.0,0.0,0.0,0.0,0.0,0.0,0.0,0.0,0.0,0.0,0.0,0.0,0.0,1.7852,0.0,0.0,0.0,0.0,0.0,0.0,0.0,0.0,0.0,0.0,0.0,1.813,1.957,2.0548,2.139,2.2164,2.2619,2.28,0.0,0.0,0.0,0.0,0.0,0.0,0.0,0.0,0.0,0.0,0.0,0.0,0.0,0.0,1.8506,1.9562,2.0647,2.0842,1.9151,0.0,0.0,0.0,0.0,0.0,0.0,0.0,0.0,0.0,0.0,0.0,0.0,0.0,0.0,0.0,0.0,2.1109,0.0,0.0,0.0,0.0,0.0,0.0,0.0,0.0,2.1148,2.1745,2.3201,2.3215,2.3215,0.0,2.2827,2.2258,0.0,0.0,0.0,0.0,0.0,0.0,0.0,0.0,2.0696,1.9809,2.1814,2.2344,2.1224,2.3663,2.4833,2.4406,2.4337,2.342,2.1483,2.0264,1.9452,0.0,0.0,0.0,0.0,0.0,0.0,0.0,0.0,0.0,0.0,0.0,0.0,0.0,0.0,0.0,0.0,0.0,0.0,0.0,0.0,0.0,0.0,0.0,1.7756,0.0,0.0,0.0,0.0,0.0,0.0,0.0,0.0,0.0,1.7184,1.7446,1.7867,1.8593,1.9142,1.9691,2.0303,0.0,0.0,0.0,0.0,0.0,0.0,0.0,1.6711,1.5235,1.5137,1.5187,1.5058,1.5803,1.6674,1.7562,0.0,0.0,1.8649,1.9003,1.8708,1.7558,1.6144,1.5208,1.5555,1.4528,1.3369,0.0,0.0,0.0,0.0,0.0,0.0,0.0,0.0,2.2277,2.1836,0.0,2.1416,0.0,0.0,0.0,0.0,0.0,0.0,0.0,0.0,2.1089,2.1715,2.3552,2.3605,2.3673,2.3669,2.3549,2.3328,2.292,2.0758,0.0,0.0,0.0,0.0,0.0,0.0,2.1546,1.8413,2.4111,2.5396,2.1784,2.5271,2.7108,2.6667,2.485,2.3295,2.2084,2.143,2.0708,1.9867,1.9562,0.0,0.0,0.0,0.0,0.0,0.0,0.0,0.0,0.0,0.0,0.0,0.0,0.0,0.0,0.0,0.0,0.0,0.0,0.0,0.0,1.8382,0.0,0.0,0.0,0.0,0.0,0.0,0.0,0.0,0.0,0.0,1.6198,1.7051,1.7124,1.611,0.0,0.0,0.0,0.0,1.6793,1.6679,1.6611,1.6601,1.6364,1.6431,1.6191,1.5298,0.0,0.0,1.6084,1.6663,1.6983,1.6745,1.6825,1.6993,1.6384,1.6148,1.589,1.5575,1.4289,1.3336,1.357,1.2884,1.1964,2.5248,0.0,0.0,0.0,0.0,2.3617,2.3782,2.4278,2.3698,2.3161,2.2626,2.2205,0.0,0.0,0.0,0.0,0.0,0.0,1.9944,1.9688,1.9631,2.0122,2.1014,2.1351,2.1253,2.0754,2.0291,1.98,1.925,1.8107,1.8876,2.1419,0.0,0.0,0.0,0.0,2.371,2.3452,2.6118,2.7111,2.6223,2.6928,2.6961,2.6265,2.5024,2.3941,2.2966,2.1997,2.1141,2.0485,1.9947,0.0,0.0,0.0,0.0,0.0,0.0,0.0,0.0,0.0,0.0,0.0,0.0,0.0,0.0,0.0,0.0,0.0,0.0,0.0,1.8277,1.7819,1.7121,0.0,0.0,0.0,0.0,0.0,0.0,0.0,0.0,0.0,1.4738,1.5544,1.6201,0.0,0.0,1.6486,1.6693,1.6673,1.6668,1.6723,0.0,0.0,0.0,1.4885,1.4418,1.3023,1.3263,1.3672,1.3876,1.412,1.4234,1.4248,1.425,1.4158,1.4083,1.4592,1.4566,1.347,1.2933,1.2835,1.2953,1.2885,1.2908,2.8125,2.6533,2.5248,2.4847,2.5064,2.4943,2.4997,2.5144,2.485,2.4489,2.4012,2.2547,2.1732,2.1399,2.0476,0.0,0.0,0.0,1.8726,1.91,1.8817,1.9324,2.059,2.0902,2.0822,2.0338,1.9828,1.932,1.8847,1.8096,1.8727,2.0604,0.0,0.0,2.1492,2.2708,2.3694,2.4466,2.5699,2.6478,2.6787,2.7149,2.6827,2.5812,2.5264,2.4532,2.3665,2.2766,2.1957,2.1261,2.0641,2.008,0.0,0.0,0.0,0.0,0.0,0.0,0.0,0.0,0.0,0.0,0.0,2.3458,0.0,0.0,0.0,0.0,1.9269,1.7782,1.701,1.634,0.0,0.0,0.0,0.0,0.0,0.0,0.0,1.3692,1.3701,1.3478,1.2992,1.3515,1.4156,1.463,1.4562,1.4562,1.4726,0.0,1.4648,1.4802,1.4828,1.4496,1.3504,1.3429,1.3132,1.2254,1.242,1.2771,1.2962,1.3091,1.2874,1.2231,1.2615,1.2888,1.1981,1.3084,1.3935,1.2862,1.2807,1.2977,1.3098,1.339,1.3531,2.9972,2.9723,2.6955,2.6148,2.6667,2.6228,2.6004,2.599,2.5452,2.5335,2.5335,2.241,2.1349,2.1596,1.9011,0.0,0.0,1.6552,1.7262,1.9457,1.8165,1.8867,2.1115,2.1169,2.1159,2.114,2.0696,2.0351,1.998,1.9359,1.8777,1.8266,1.951,2.0359,2.0809,2.1854,2.2631,2.3267,2.4158,2.4644,2.4906,2.6488,2.676,2.5585,2.5504,2.5064,2.4209,2.3594,2.2886,2.2024,2.139,2.0695,1.9983,0.0,0.0,0.0,0.0,0.0,0.0,0.0,0.0,0.0,0.0,0.0,0.0,0.0,0.0,0.0,1.732,0.0,1.5724,1.4414,0.0,0.0,0.0,1.3839,1.393,1.2999,1.237,1.2548,0.0,0.0,0.0,0.0,1.1622,1.159,1.1599,1.1561,1.1428,1.1457,1.1382,1.135,1.1363,1.1414,1.1388,1.151,1.1581,1.1586,1.2266,1.2223,1.2215,1.2447,1.1871,1.0097,1.1452,1.2162,1.0081,1.1511,1.3148,1.2997,1.3272,1.3492,1.366,1.3747,1.3768,2.6153,2.5807,2.48,2.6361,2.9216,2.6978,2.613,2.6142,2.3666,2.2255,2.1652,2.065,2.0035,1.9703,1.9282,1.8486,1.7432,1.7169,1.6799,1.6301,1.5983,1.6148,1.6725,1.6725,1.6665,1.6582,1.6333,1.6107,1.5934,1.5658,1.533,1.5169,1.8632,2.0881,2.1731,2.4143,2.5646,2.6257,2.6934,2.7035,2.6685,2.7089,2.6854,2.5917,2.5449,2.4807,2.3937,2.3335,2.2599,2.1729,2.1127,2.0588,2.0147,2.2523,0.0,0.0,0.0,0.0,0.0,0.0,0.0,0.0,0.0,2.1366,2.142,0.0,1.8424,0.0,1.5328,1.4235,1.4207,1.3974,0.0,0.0,1.2794,1.2656,1.1785,1.1678,1.1605,1.158,1.151,1.1511,1.1511,1.1769,1.1365,0.988,1.0759,1.1186,1.0137,0.9709,0.9072,0.7977,0.774,0.7607,0.7817,0.7688,0.7864,0.7773,0.7949,0.8062,0.8066,0.8201,0.8101,0.7588,0.7855,0.8045,0.7611,0.9332,1.0795,1.1129,1.2341,1.3593,1.3626,1.372,1.3795,2.5158,2.4976,2.4737,2.6061,2.8097,2.5822,2.5058,2.5148,2.3141,2.1998,2.1462,2.0084,1.8681,1.7323,1.751,1.7192,1.6491,1.6544,1.6136,1.5377,1.5384,1.5384,1.5384,1.5384,1.5309,1.5167,1.5011,1.4862,1.4797,1.5563,1.5837,1.5779,2.0183,2.2705,2.3219,2.4686,2.6154,2.7697,2.7884,2.7764,2.7322,2.7055,2.656,2.5824,2.5064,2.4342,2.3594,2.2859,2.2224,2.1609,2.1141,2.0668,2.0254,2.2126,2.301,0.0,0.0,0.0,0.0,0.0,0.0,0.0,0.0,0.0,0.0,0.0,1.6501,0.0,1.3313,0.0,1.1971,1.0657,0.9555,0.8933,0.9131,0.9073,0.8499,0.8655,0.8805,0.8813,0.8924,0.9019,0.9013,0.9181,0.8892,0.7759,0.8448,0.8758,0.8076,0.7781,0.7384,0.6467,0.6297,0.6297,0.6297,0.6297,0.6297,0.63,0.6394,0.6518,0.6482,0.6625,0.6418,0.5546,0.6013,0.6323,0.5519,0.7034,0.8813,1.0074,1.1154,1.2323,1.3403,1.3653,1.3693,2.462,2.4582,2.4562,2.4543,2.4457,2.3162,2.297,2.3453,2.2546,2.2171,2.2007,1.9615,1.7408,1.5404,1.5404,1.5418,1.552,1.5527,1.5588,1.5648,1.5648,1.5648,1.5648,1.5676,1.5539,1.5438,1.5613,1.5634,1.5512,1.7489,1.8512,1.8646,2.2643,2.4691,2.4679,2.4721,2.5873,2.8136,2.7896,2.7615,2.7362,2.6747,2.6132,2.5464,2.4569,2.3745,2.3113,2.2271,2.1716,2.1422,2.1109,2.0708,2.0214,2.1576,2.217,0.0,2.2833,0.0,0.0,0.0,0.0,0.0,0.0,0.0,0.0,1.6044,1.4594,1.4716,1.1387,0.9335,0.9538,0.6644,0.4757,0.4822,0.5027,0.5282,0.5459,0.5584,0.5736,0.5839,0.5813,0.582,0.5948,0.5785,0.5885,0.5643,0.559,0.5459,0.5259,0.5553,0.5688,0.5618,0.5513,0.4969,0.5086,0.5279,0.524,0.5363,0.524,0.5673,0.5436,0.5559,0.5137,0.36,0.4345,0.4938,0.3169,0.4716,0.6832,0.8497,0.9243,1.0486,1.283,1.3538,1.3504,1.9275,1.9095,1.9009,1.8957,1.8942,1.8651,1.9741,2.1431,1.8838,1.774,1.769,1.7185,1.6689,1.6266,1.6266,1.6218,1.6137,1.6144,1.609,1.6001,1.6001,1.5995,1.5988,1.5872,1.5737,1.5684,1.7457,1.8192,1.7967,2.0121,2.1117,2.1072,2.3463,2.4691,0.0,0.0,0.0,0.0,2.8138,2.7951,2.7615,2.7041,2.6239,2.5184,2.4075,0.0,2.197,2.1301,2.082,2.0464,2.0201,0.0,0.0,0.0,0.0,0.0,0.0,0.0,0.0,0.0,0.0,0.0,1.4074,1.2931,1.5443,1.4113,1.3129,1.3193,1.0037,0.8016,0.8152,0.6276,0.5098,0.524,0.5496,0.572,0.5863,0.5985,0.6132,0.5958,0.5944,0.5877,0.5643,0.5897,0.5271,0.3773,0.358,0.2891,0.1435,0.2651,0.2906,0.0,0.0,0.0,0.1216,0.0,0.0,0.1177,0.1217,0.0,0.0,0.0,0.0,0.0,0.1005,0.0,0.0776,0.2451,0.4209,0.461,0.6116,0.854,1.2402,1.3315,1.3397,1.8111,0.0,1.7819,1.7751,0.0,1.7595,1.8194,1.9235,1.7601,1.6716,1.6581,1.6581,1.654,1.6517,1.6517,1.6432,1.6415,1.6341,1.6266,1.6191,1.6117,1.6133,1.6126,1.6051,1.5886,1.5841,1.8105,1.9056,1.9002,2.2222,2.3731,2.3567,2.5613,2.6556,2.6461,2.7617,2.8112,2.7965,2.7965,2.7709,2.7268,2.6694,2.5972,2.509,0.0,0.0,0.0,0.0,0.0,0.0,0.0,0.0,0.0,0.0,0.0,1.8594,1.8542,1.8655,1.8803,1.5862,1.4062,1.4161,1.0291,0.846,1.0019,0.9398,0.8997,0.9118,0.6681,0.5137,0.5206,0.3653,0.2636,0.2742,0.2831,0.2953,0.3024,0.3124,0.3134,0.3055,0.3024,0.3002,0.2929,0.2985,0.2644,0.1655,0.1515,0.0,0.0302,0.0837,0.0999,0.0,0.0,0.0,0.0,0.0,0.0,0.0,0.0,0.0,0.0,0.0,0.0,0.0,0.0,0.0,0.0,0.0976,0.2071,0.3163,0.4255,0.5985,0.9194,1.0003,1.007,1.847,1.8308,1.8186,1.8118,1.8077,1.7826,1.7622,1.7534,0.0,0.0,0.0,1.6736,1.6669,1.6605,1.6605,1.6585,1.6506,1.6469,1.6388,1.6307,1.6205,1.613,1.6133,1.6133,1.5988,1.5958,1.8223,1.9224,1.9231,2.3157,2.4999,2.4946,2.6475,2.717,2.7025,2.7363,2.7388,2.7114,2.7541,2.7522,2.6987,2.6413,2.5824,2.5141,2.3777,2.2733,2.2004,2.1015,2.0261,1.9837,1.9615,1.8766,1.7265,1.7156,1.6416,1.4794,1.4489,1.4406,1.4286,1.1363,0.9542,0.9486,0.6694,0.5026,0.5121,0.5149,0.5247,0.5419,0.3644,0.2615,0.2715,0.1112,0.0,0.0,0.0,0.0,0.0,0.0,0.0,0.0,0.0,0.0,0.0,0.0,0.0,0.0,0.0,0.0,0.0,0.0,0.0,0.0,0.0,0.0,0.0,0.0,0.0,0.0,0.0,0.0,0.0,0.0,0.0,0.0,0.0,0.0,0.0,0.0,0.0,0.246,0.2782,0.3215,0.4817,0.5434,0.5836,1.8572,1.8314,1.8294,1.8213,1.8091,1.805,1.7812,1.7446,1.727,1.71,1.6951,1.6951,1.6937,1.6917,1.6917,1.6842,1.6675,1.6836,1.668,0.0,1.6415,1.6327,1.6133,1.6133,1.594,1.5877,1.812,1.9157,1.9221,2.1339,2.2409,2.2415,2.2303,2.2288,2.2342,2.4166,2.5028,2.4735,2.6958,2.7965,2.7575,2.7001,2.6186,2.5117,2.4142,2.3148,2.2031,2.159,2.0475,1.8508,1.8354,1.7428,1.5525,1.5448,1.4868,1.3212,1.1835,1.0517,0.9171,0.7313,0.5618,0.4179,0.3539,0.3825,0.5197,0.5358,0.5423,0.5456,0.3654,0.2749,0.275,0.109,0.0,0.0,0.0,0.0,0.0,0.0,0.0,0.0,0.0,0.0,0.0,0.0,0.0,0.0,0.0,0.0,0.0,0.0,0.0,0.0,0.0,0.0,0.0,0.0,0.0,0.0,0.0,0.0,0.0,0.0,0.0,0.0,0.0,0.0,0.0,0.0,0.0,0.0,0.0,0.0,0.0,0.0,0.0,1.8877,1.8674,1.8504,1.8348,1.8206,1.8036,1.7812,1.748,1.7385,1.7188,1.6985,1.6978,1.6978,1.6978,1.6978,1.6944,1.6876,1.6863,1.6648,1.6435,1.6415,1.6293,1.609,1.6044,1.5886,1.5945,1.8097,1.9094,1.9094,2.1089,2.2038,2.1795,2.1373,2.1221,2.1307,2.2256,2.2729,2.2663,2.6301,2.7884,2.7241,2.6961,2.6346,2.5331,2.3481,2.2082,2.1304,1.9672,1.8239,1.7053,1.5879,1.4422,1.2637,1.1596,1.0367,0.8904,0.8154,0.7469,0.6748,0.5084,0.3323,0.1493,0.132,0.1643,0.2398,0.2465,0.2508,0.2559,0.1732,0.1267,0.1311,0.051,0.0,0.0,0.0,0.0,0.0,0.0,0.0,0.0,0.0,0.0,0.0,0.0,0.0,0.0,0.0,0.0,0.0,0.0,0.0,0.0,0.0,0.0,0.0,0.0,0.0,0.0,0.0,0.0,0.0,0.0,0.0,0.0,0.0,0.0,0.0,0.0,0.0,0.0,0.0,0.0,0.0,0.0,0.0,1.9169,1.9013,1.8749,1.8518,1.8294,1.7996,1.7765,1.7534,1.7473,1.7256,1.7005,1.6978,1.6978,1.6978,1.6978,1.6978,1.6958,1.677,1.6615,1.6466,1.6374,1.6225,1.6076,1.5976,1.5888,1.6021,1.7516,1.8196,1.8256,1.976,2.0398,2.0022,1.9746,1.9628,1.9628,2.0183,2.0443,2.0702,2.4508,2.6251,2.5463,2.5425,2.4981,2.4058,2.1997,2.06,2.0081,1.7541,1.5824,1.5009,1.2969,1.1028,0.936,0.7898,0.6369,0.5036,0.4917,0.4775,0.4292,0.3026,0.1604,0.0,0.0,0.0,0.0,0.0,0.0,0.0,0.0,0.0,0.0,0.0,0.0,0.0,0.0,0.0,0.0,0.0,0.0,0.0,0.0,0.0,0.0,0.0,0.0,0.0,0.0,0.0,0.0,0.0,0.0,0.0,0.0,0.0,0.0,0.0,0.0,0.0,0.0,0.0,0.0,0.0,0.0,0.0,0.0,0.0,0.0,0.0,0.0,0.0,0.0,0.0,0.0,0.0,0.0,1.9318,1.9169,1.9,1.8708,1.8301,1.7996,1.7704,1.7467,1.7372,1.7256,1.6998,1.6978,1.6978,1.6978,1.6978,1.6978,1.6971,1.6822,1.6615,1.6517,1.6374,1.6232,1.6076,1.5976,1.5784,1.5655,1.5821,1.5821,1.5586,1.56,1.5364,1.5004,1.4962,1.5124,1.5256,1.7071,1.8113,1.8148,2.0572,2.1639,2.1233,2.1149,2.0826,2.007,1.9818,1.9343,1.8325,1.6494,1.425,1.2011,0.9925,0.7887,0.6148,0.5779,0.4903,0.3139,0.3067,0.2413,0.0,0.0369,0.0,0.0,0.0,0.0,0.0,0.0,0.0,0.0,0.0,0.0,0.0,0.0,0.0,0.0,0.0,0.0,0.0,0.0,0.0,0.0,0.0,0.0,0.0,0.0,0.0,0.0,0.0,0.0,0.0,0.0,0.0,0.0,0.0,0.0,0.0,0.0,0.0,0.0,0.0,0.0,0.0,0.0,0.0,0.0,0.0,0.0,0.0,0.0,0.0,0.0,0.0,0.0,0.0,0.0,0.0,1.9339,1.9189,1.9047,1.8728,1.8308,1.7996,1.7745,1.75,1.7406,1.7304,1.7107,1.7019,1.6978,1.6978,1.6978,1.6978,1.6965,1.6822,1.6615,1.6517,1.6374,1.6225,1.6076,1.5976,1.5778,1.5587,1.5438,1.5215,1.4855,1.4552,1.4414,1.4312,1.4299,1.4299,1.4387,1.5256,1.5726,1.5778,1.6641,1.6325,1.5294,1.8575,1.971,1.7955,1.65,1.4881,1.3228,1.1124,0.9427,0.8218,0.6319,0.4891,0.3951,0.2912,0.1963,0.1179,0.1143,0.0842,0.0,0.0,0.0,0.0,0.0,0.0,0.0,0.0,0.0,0.0,0.0,0.0,0.0,0.0,0.0,0.0,0.0,0.0,0.0,0.0,0.0,0.0,0.0,0.0,0.0,0.0,0.0,0.0,0.0,0.0,0.0,0.0,0.0,0.0,0.0,0.0,0.0,0.0,0.0,0.0,0.0,0.0,0.0,0.0,0.0,0.0,0.0,0.0,0.0,0.0,0.0,0.0,0.0,0.0,0.0,0.0,0.0,1.9306,1.923,1.8979,1.8633,1.8233,1.7935,1.7717,1.7521,1.7426,1.727,1.7127,1.7026,1.6978,1.6978,1.6978,1.6958,1.6904,1.6702,1.6554,1.6456,1.6313,1.6185,1.6069,1.5976,1.5826,1.5635,1.5486,1.5181,1.4708,1.4489,1.434,1.4306,1.4299,1.4299,1.421,1.3761,1.3312,1.3224,1.273,1.1434,1.0487,1.4321,1.5942,1.4068,1.2323,1.0514,0.8874,0.6642,0.5382,0.5163,0.331,0.2204,0.2067,0.0752,0.0,0.0,0.0,0.0,0.0,0.0,0.0,0.0,0.0,0.0,0.0,0.0,0.0,0.0,0.0,0.0,0.0,0.0,0.0,0.0,0.0,0.0,0.0,0.0,0.0,0.0,0.0,0.0,0.0,0.0,0.0,0.0,0.0,0.0,0.0,0.0,0.0,0.0,0.0,0.0,0.0,0.0,0.0,0.0,0.0,0.0,0.0,0.0,0.0,0.0,0.0,0.0,0.0,0.0,0.0,0.0,0.0,0.0,0.0,0.0,0.0,1.9427,1.9325,1.8731,1.8389,1.8077,1.7792,1.7521,1.7439,1.7277,1.7127,1.7012,1.6985,1.6978,1.6978,1.6978,1.6904,1.6709,1.656,1.6476,1.6334,1.6178,1.6139,1.6069,1.5976,1.5778,1.5587,1.5486,1.5134,1.4708,1.448,1.4434,1.4217,1.3938,1.4078,1.3628,1.1788,1.0851,1.0673,0.893,0.7502,0.7307,0.7541,0.7815,0.7375,0.707,0.695,0.6351,0.4532,0.3364,0.3204,0.1342,0.0,0.0,0.0,0.0,0.0,0.0,0.0,0.0,0.0,0.0,0.0,0.0,0.0,0.0,0.0,0.0,0.0,0.0,0.0,0.0,0.0,0.0,0.0,0.0,0.0,0.0,0.0,0.0,0.0,0.0,0.0,0.0,0.0,0.0,0.0,0.0,0.0,0.0,0.0,0.0,0.0,0.0,0.0,0.0,0.0,0.0,0.0,0.0,0.0,0.0,0.0,0.0,0.0,0.0,0.0,0.0,0.0,0.0,0.0,0.0,0.0,0.0,0.0,0.0,1.9257,1.8966,1.8565,1.8274,1.8063,1.7717,1.7507,1.7405,1.7263,1.7114,1.6998,1.6978,1.6978,1.6978,1.6978,1.6951,1.6876,1.6639,1.649,1.6422,1.6198,1.6133,1.6062,1.5976,1.5778,1.5587,1.5479,1.5134,1.4525,1.2995,1.2011,1.1666,1.0402,0.9691,0.9513,0.8842,0.8397,0.8308,0.7458,0.6391,0.4958,0.4825,0.4078,0.257,0.381,0.3839,0.238,0.1588,0.1168,0.1122,0.0,0.0,0.0,0.0,0.0,0.0,0.0,0.0,0.0,0.0,0.0,0.0,0.0,0.0,0.0,0.0,0.0,0.0,0.0,0.0,0.0,0.0,0.0,0.0,0.0,0.0,0.0,0.0,0.0,0.0,0.0,0.0,0.0,0.0,0.0,0.0,0.0,0.0,0.0,0.0,0.0,0.0,0.0,0.0,0.0,0.0,0.0,0.0,0.0,0.0,0.0,0.0,0.0,0.0,0.0,0.0,0.0,0.0,0.0,0.0,0.0,0.0,0.0,0.0,0.0,1.9067,1.862,1.8403,1.8199,1.7989,1.7642,1.746,1.7399,1.7209,1.7073,1.6992,1.6978,1.6978,1.6978,1.6978,1.6978,1.6944,1.6659,1.6497,1.6429,1.6144,1.6058,1.603,1.5901,1.5703,1.5368,1.4492,1.359,1.2261,1.0515,0.9621,0.9384,0.7818,0.7102,0.7012,0.6391,0.599,0.5898,0.5231,0.3938,0.2595,0.2446,0.1682,0.0485,0.1479,0.1587,0.0,0.0,0.0,0.0,0.0,0.0,0.0,0.0,0.0,0.0,0.0,0.0,0.0,0.0,0.0,0.0,0.0,0.0,0.0,0.0,0.0,0.0,0.0,0.0,0.0,0.0,0.0,0.0,0.0,0.0,0.0,0.0,0.0,0.0,0.0,0.0,0.0,0.0,0.0,0.0,0.0,0.0,0.0,0.0,0.0,0.0,0.0,0.0,0.0,0.0,0.0,0.0,0.0,0.0,0.0,0.0,0.0,0.0,0.0,0.0,0.0,0.0,0.0,0.0,0.0,0.0,0.0,0.0,0.0,1.8857,1.8375,1.8314,1.8131,1.784,1.7561,1.7426,1.7358,1.7107,1.6992,1.6978,1.6978,1.6978,1.6978,1.6958,1.6965,1.6904,1.6323,1.6188,1.6276,1.6071,1.5774,1.5565,1.5266,1.4873,1.454,1.2489,1.0101,0.8076,0.759,0.7227,0.7084,0.6662,0.6165,0.679,0.4561,0.358,0.3224,0.1658,0.0,0.0,0.0,0.0,0.0,0.0,0.0,0.0,0.0,0.0,0.0,0.0,0.0,0.0,0.0,0.0,0.0,0.0,0.0,0.0,0.0,0.0,0.0,0.0,0.0,0.0,0.0,0.0,0.0,0.0,0.0,0.0,0.0,0.0,0.0,0.0,0.0,0.0,0.0,0.0,0.0,0.0,0.0,0.0,0.0,0.0,0.0,0.0,0.0,0.0,0.0,0.0,0.0,0.0,0.0,0.0,0.0,0.0,0.0,0.0,0.0,0.0,0.0,0.0,0.0,0.0,0.0,0.0,0.0,0.0,0.0,0.0,0.0,0.0,0.0,0.0,1.8674,1.8321,1.8206,1.7989,1.7711,1.75,1.7365,1.7249,1.706,1.6978,1.6978,1.6978,1.6978,1.6951,1.6876,1.677,1.6639,1.4759,1.4599,1.5962,1.5936,1.4802,1.343,1.2961,1.183,1.0194,0.915,0.8233,0.7131,0.5597,0.4771,0.4476,0.3055,0.2285,0.0,0.1479,0.1121,0.1031,0.0404,0.0,0.0,0.0,0.0,0.0,0.0,0.0,0.0,0.0,0.0,0.0,0.0,0.0,0.0,0.0,0.0,0.0,0.0,0.0,0.0,0.0,0.0,0.0,0.0,0.0,0.0,0.0,0.0,0.0,0.0,0.0,0.0,0.0,0.0,0.0,0.0,0.0,0.0,0.0,0.0,0.0,0.0,0.0,0.0,0.0,0.0,0.0,0.0,0.0,0.0,0.0,0.0,0.0,0.0,0.0,0.0,0.0,0.0,0.0,0.0,0.0,0.0,0.0,0.0,0.0,0.0,0.0,0.0,0.0,0.0,0.0,0.0,0.0,0.0,0.0,0.0,1.8559,1.8233,1.8131,1.7955,1.7711,1.7514,1.7365,1.7249,1.7066,1.6978,1.6978,1.6978,1.6354,1.5557,1.5262,1.4566,1.3515,1.1635,1.1749,1.3182,1.3073,1.1922,1.0566,1.0239,0.8763,0.6618,0.6121,0.553,0.4562,0.3142,0.2247,0.1911,0.0724,0.0,0.0,0.0,0.0,0.0,0.0,0.0,0.0,0.0,0.0,0.0,0.0,0.0,0.0,0.0,0.0,0.0,0.0,0.0,0.0,0.0,0.0,0.0,0.0,0.0,0.0,0.0,0.0,0.0,0.0,0.0,0.0,0.0,0.0,0.0,0.0,0.0,0.0,0.0,0.0,0.0,0.0,0.0,0.0,0.0,0.0,0.0,0.0,0.0,0.0,0.0,0.0,0.0,0.0,0.0,0.0,0.0,0.0,0.0,0.0,0.0,0.0,0.0,0.0,0.0,0.0,0.0,0.0,0.0,0.0,0.0,0.0,0.0,0.0,0.0,0.0,0.0,0.0,0.0,0.0,0.0,0.0,1.8484,1.8111,1.8077,1.7962,1.7779,1.7528,1.7392,1.7277,1.6723,1.6446,1.6551,1.5836,1.4714,1.2829,1.2465,1.1259,0.8917,0.828,0.8086,0.8193,0.7791,0.7296,0.7547,0.7049,0.5545,0.3863,0.3597,0.245,0.0,0.0,0.0,0.0,0.0,0.0,0.0,0.0,0.0,0.0,0.0,0.0,0.0,0.0,0.0,0.0,0.0,0.0,0.0,0.0,0.0,0.0,0.0,0.0,0.0,0.0,0.0,0.0,0.0,0.0,0.0,0.0,0.0,0.0,0.0,0.0,0.0,0.0,0.0,0.0,0.0,0.0,0.0,0.0,0.0,0.0,0.0,0.0,0.0,0.0,0.0,0.0,0.0,0.0,0.0,0.0,0.0,0.0,0.0,0.0,0.0,0.0,0.0,0.0,0.0,0.0,0.0,0.0,0.0,0.0,0.0,0.0,0.0,0.0,0.0,0.0,0.0,0.0,0.0,0.0,0.0,0.0,0.0,0.0,0.0,0.0,0.0,1.8301,1.8084,1.8031,1.7772,1.7548,1.7446,1.7237,1.6783,1.4669,1.3827,1.3442,1.1582,1.0587,0.9668,0.9494,0.8964,0.776,0.6032,0.515,0.4787,0.2892,0.3287,0.402,0.0,0.0,0.0,0.0,0.0666,0.0,0.0,0.0,0.0,0.0,0.0,0.0,0.0,0.0,0.0,0.0,0.0,0.0,0.0,0.0,0.0,0.0,0.0,0.0,0.0,0.0,0.0,0.0,0.0,0.0,0.0,0.0,0.0,0.0,0.0,0.0,0.0,0.0,0.0,0.0,0.0,0.0,0.0,0.0,0.0,0.0,0.0,0.0,0.0,0.0,0.0,0.0,0.0,0.0,0.0,0.0,0.0,0.0,0.0,0.0,0.0,0.0,0.0,0.0,0.0,0.0,0.0,0.0,0.0,0.0,0.0,0.0,0.0,0.0,0.0,0.0,0.0,0.0,0.0,0.0,0.0,0.0,0.0,0.0,0.0,0.0,0.0,0.0,0.0,0.0,0.0,0.0,1.8158,1.7901,1.7812,1.7636,1.7203,1.6103,1.5443,1.4762,1.2265,1.091,1.0521,0.9299,0.7792,0.6776,0.6607,0.5852,0.4667,0.308,0.2369,0.2112,0.0846,0.1032,0.1606,0.0,0.0,0.0,0.0,0.0,0.0,0.0,0.0,0.0,0.0,0.0,0.0,0.0,0.0,0.0,0.0,0.0,0.0,0.0,0.0,0.0,0.0,0.0,0.0,0.0,0.0,0.0,0.0,0.0,0.0,0.0,0.0,0.0,0.0,0.0,0.0,0.0,0.0,0.0,-0.1374,-0.1362,0.0,-0.1371,-0.128,0.0,0.0,0.0,0.0,0.0,0.0,0.0,-0.0774,-0.0883,-0.0188,0.0,0.0,-0.0526,-0.0711,-0.0857,0.0,0.0,0.0,0.0,0.0,0.0,0.0,0.0,0.0,0.0,0.0,0.0,0.0,0.0,0.0,0.0,0.0,0.0,0.0,0.0,0.0,0.0,0.0,0.0,0.0,0.0,0.0,0.0,0.0,0.0,0.0,0.0,0.0,1.8043,1.7595,1.7261,1.7107,1.635,1.3851,1.2559,1.1973,0.9334,0.8068,0.784,0.7718,0.5659,0.3778,0.3722,0.2488,0.0,0.0,0.0,0.0,0.0,0.0,0.0,0.0,0.0,0.0,0.0,0.0,0.0,0.0,0.0,0.0,0.0,0.0,0.0,0.0,0.0,0.0,0.0,0.0,0.0,0.0,0.0,0.0,0.0,0.0,0.0,0.0,0.0,0.0,0.0,0.0,0.0,0.0,0.0,0.0,0.0,0.0,0.0,0.0,-0.1431,-0.3145,-0.3688,-0.366,-0.368,-0.3655,-0.29,-0.0907,-0.0393,0.0,0.0,0.0,0.0,-0.1396,-0.2648,-0.2361,-0.1528,-0.2312,-0.2651,-0.0758,-0.2082,-0.188,0.0,0.0,0.0,0.0,0.0,0.0,0.0,0.0,0.0,0.0,0.0,0.0,0.0,0.0,0.0,0.0,0.0,0.0,0.0,0.0,0.0,0.0,0.0,0.0,0.0,0.0,0.0,0.0,0.0,0.0,0.0,0.0,0.0,1.7948,1.7431,1.5208,1.4145,1.3482,1.0915,0.958,0.9193,0.6371,0.5136,0.4649,0.289,0.0,0.0,0.0,0.0455,0.0,0.0,0.0,0.0,0.0,0.0,0.0,0.0,0.0,0.0,0.0,0.0,0.0,0.0,0.0,0.0,0.0,0.0,0.0,0.0,0.0,0.0,0.0,0.0,0.0,0.0,0.0,0.0,0.0,0.0,0.0,0.0,0.0,0.0,0.0,0.0,0.0,0.0,0.0,0.0,0.0,-0.0819,-0.2219,-0.2762,-0.3557,-0.5628,-0.599,-0.5956,-0.5965,-0.5988,-0.491,-0.3155,-0.2581,-0.2572,-0.2477,-0.243,-0.3055,-0.4185,-0.5123,-0.5474,-0.5125,-0.5311,-0.4596,-0.31,-0.2739,-0.234,0.0,0.0,0.0,0.0,0.0,0.0,0.0,0.0,0.0,0.0,0.0,0.0,0.0,0.0,0.0,0.0,0.0,0.0,0.0,0.0,0.0,0.0,0.0,0.0,0.0,0.0,0.0,0.0,0.0,0.0,0.0,0.0,0.0,1.5806,1.524,1.2382,1.1064,1.0429,0.7853,0.656,0.594,0.3477,0.2253,0.1927,0.0515,0.0,0.0,0.0,0.0,0.0,0.0,0.0,0.0,0.0,0.0,0.0,0.0,0.0,0.0,0.0,0.0,0.0,0.0,0.0,0.0,0.0,0.0,0.0,0.0,0.0,0.0,0.0,0.0,0.0,0.0,0.0,0.0,0.0,0.0,0.0,0.0,0.0,0.0,0.0,0.0,0.0,0.0,0.0,-0.1532,-0.1706,-0.2826,-0.4437,-0.517,-0.5948,-0.8189,-0.8361,-0.8322,-0.83,-0.8315,-0.7188,-0.5566,-0.4893,-0.484,-0.4815,-0.4772,-0.5563,-0.6241,-0.7425,-0.7904,-0.7918,-0.7825,-0.6424,-0.4376,-0.3974,-0.2685,0.0,0.0,0.0,0.0,0.0,0.0,0.0,0.0,0.0,0.0,0.0,0.0,0.0,0.0,0.0,0.0,0.0,0.0,0.0,0.0,0.0,0.0,0.0,0.0,0.0,0.0,0.0,0.0,0.0,0.0,0.0,0.0,0.0,1.2725,1.2246,0.9299,0.7969,0.7385,0.4837,0.3564,0.3188,0.1056,0.0,0.0,0.0,0.0,0.0,0.0,0.0,0.0,0.0,0.0,0.0,0.0,0.0,0.0,0.0,0.0,0.0,0.0,0.0,0.0,0.0,0.0,0.0,0.0,0.0,0.0,0.0,0.0,0.0,0.0,0.0,0.0,0.0,0.0,0.0,0.0,0.0,0.0,0.0,0.0,-0.1031,-0.1076,-0.1076,-0.0987,-0.0762,-0.1608,-0.3929,-0.415,-0.5309,-0.6992,-0.7621,-0.839,-1.0588,-1.0729,-1.0674,-1.0634,-1.0461,-0.9402,-0.7904,-0.6842,-0.6626,-0.7081,-0.7139,-0.7344,-0.8076,-0.9416,-1.011,-1.0233,-0.9998,-0.8046,-0.5014,-0.4678,-0.3953,0.0,0.0,0.0,0.0,0.0,0.0,0.0,0.0,0.0,0.0,0.0,0.0,0.0,0.0,0.0,0.0,0.0,0.0,0.0,0.0,0.0,0.0,0.0,0.0,0.0,0.0,0.0,0.0,0.0,0.0,0.0,0.0,0.0,0.9569,0.9197,0.6379,0.5092,0.4467,0.1916,0.0,0.0638,0.0,0.0,0.0,0.0,0.0,0.0,0.0,0.0,0.0,0.0,0.0,0.0,0.0,0.0,0.0,0.0,0.0,0.0,0.0,0.0,0.0,0.0,0.0,0.0,0.0,0.0,0.0,0.0,0.0,0.0,0.0,0.0,0.0,0.0,0.0,0.0,0.0,0.0,-0.2687,-0.3133,-0.3893,-0.563,-0.5898,-0.5809,-0.5365,-0.4072,-0.451,-0.5926,-0.6542,-0.7567,-0.952,-0.9966,-1.1085,-1.2558,-1.2858,-1.2829,-1.2849,-1.2717,-1.1464,-0.9866,-0.8189,-0.7577,-0.914,-0.933,-1.0206,-1.1298,-1.1851,-1.2253,-1.2261,-1.1775,-1.0273,-0.6777,-0.6063,0.0,0.0,0.0,0.0,0.0,0.0,0.0,0.0,0.0,0.0,0.0,0.0,0.0,0.0,0.0,0.0,0.0,0.0,0.0,0.0,0.0,0.0,0.0,0.0,0.0,0.0,0.0,0.0,0.0,0.0,0.0,0.0,0.0,0.0,0.6571,0.6222,0.3398,0.2145,0.1811,0.0,0.0,0.0,0.0,0.0,0.0,0.0,0.0,0.0,0.0,0.0,0.0,0.0,0.0,0.0,0.0,0.0,0.0,0.0,0.0,0.0,0.0,-0.1204,0.0,0.0,0.0,0.0,0.0,0.0,0.0,0.0,0.0,0.0,0.0,0.0,0.0,0.0,0.0,-0.1614,-0.2016,-0.3134,-0.4874,-0.541,-0.5901,-0.679,-0.7057,-0.7773,-0.8219,-0.8174,-0.7725,-0.8708,-0.8975,-0.9983,-1.1912,-1.2442,-1.2929,-1.3607,-1.3824,-1.3707,-1.366,-1.3383,-1.291,-1.1859,-1.1218,-1.0541,-1.1622,-1.1557,-1.2188,-1.286,-1.318,-1.3173,-1.3132,-1.2969,-1.1067,-0.8486,-0.7118,-0.5414,0.0,0.0,0.0,0.0,0.0,0.0,0.0,0.0,0.0,0.0,0.0,0.0,0.0,0.0,0.0,0.0,0.0,0.0,0.0,0.0,0.0,0.0,0.0,0.0,0.0,0.0,0.0,0.0,0.0,0.0,0.0,0.0,0.0,0.3599,0.3392,0.1023,0.0,0.0,0.0,0.0,0.0,0.0,0.0,0.0,0.0,0.0,0.0,0.0,0.0,0.0,0.0,0.0,0.0,0.0,0.0,0.0,-0.0602,0.0,0.0,-0.347,-0.3237,-0.1494,0.0,0.0,0.0,0.0,0.0,0.0,0.0,0.0,-0.0882,-0.1438,-0.1522,-0.1458,-0.1581,-0.2289,-0.4072,-0.434,-0.541,-0.7551,-0.7818,-0.8308,-0.8797,-0.9108,-0.9557,-1.1072,-1.1433,-1.1433,-1.1433,-1.1433,-1.2597,-1.3508,-1.4072,-1.3867,-1.4109,-1.3973,-1.3912,-1.3808,-1.3714,-1.3523,-1.3443,-1.3229,-1.2982,-1.2991,-1.3259,-1.33,-1.3335,-1.3376,-1.3376,-1.3302,-1.3051,-1.2459,-1.0273,-0.826,-0.6302,-0.4238,0.0,0.0,0.0,0.0,0.0,0.0,0.0,0.0,0.0,0.0,0.0,0.0,0.0,0.0,0.0,0.0,0.0,0.0,0.0,0.0,0.0,0.0,0.0,0.0,0.0,0.0,0.0,0.0,0.0,0.0,0.0,0.0,0.0541,0.0,0.0,0.0,0.0,0.0,0.0,0.0,0.0,0.0,0.0,0.0,0.0,0.0,0.0,0.0,0.0,0.0,0.0,0.0,0.0,0.0,0.0,0.0,-0.3215,-0.3889,-0.6107,-0.5629,-0.4178,-0.3649,-0.3388,-0.3086,0.0,0.0,0.0,-0.2593,-0.3301,-0.3747,-0.5416,-0.6337,-0.6152,-0.6027,-0.6215,-0.6582,-0.6879,-0.7818,-0.9869,-1.0357,-1.0984,-1.2774,-1.3129,-1.3489,-1.3901,-1.3894,-1.3894,-1.3894,-1.3894,-1.3982,-1.4248,-1.4265,-1.4245,-1.4217,-1.4122,-1.4105,-1.3987,-1.3899,-1.3714,-1.3578,-1.3551,-1.3539,-1.3451,-1.3403,-1.3403,-1.3397,-1.3397,-1.3397,-1.3363,-1.3247,-1.2665,-1.2189,-1.0217,-0.8497,-0.6616,-0.4552,0.0,0.0,0.0,0.0,0.0,0.0,0.0,0.0,0.0,0.0,0.0,0.0,0.0,0.0,0.0,0.0,0.0,0.0,0.0,0.0,0.0,0.0,0.0,0.0,0.0,0.0,0.0,0.0,0.0,0.0,0.0,0.0,0.0,0.0,0.0,0.0,0.0,0.0,0.0,0.0,0.0,0.0,0.0,0.0,0.0,0.0,0.0,0.0,0.0,0.0,0.0,0.0,-0.0808,0.0,-0.3522,-0.4469,-0.6786,-0.8526,-0.9615,-0.807,-0.6671,-0.5977,-0.5774,-0.4874,0.0,-0.3825,-0.5261,-0.5824,-0.6213,-0.6907,-0.7388,-0.7362,-0.7425,-0.79,-0.9068,-0.9113,-1.0446,-1.2009,-1.2774,-1.3135,-1.4255,-1.4299,-1.4299,-1.4299,-1.4299,-1.4255,-1.4255,-1.4255,-1.4255,-1.4299,-1.4299,-1.4299,-1.4292,-1.4231,-1.417,-1.4089,-1.4014,-1.3905,-1.372,-1.3626,-1.3558,-1.3526,-1.3444,-1.341,-1.3403,-1.3424,-1.3403,-1.337,-1.3295,-1.2983,-1.2652,-1.2283,-1.065,-0.8716,-0.6075,-0.4062,-0.2971,0.0,0.0,0.0,0.0,0.0,0.0,0.0,0.0,0.0,0.0,0.0,0.0,0.0,0.0,0.0,0.0,0.0,0.0,0.0,0.0,0.0,0.0,0.0,0.0,0.0,0.0,0.0,0.0,0.0,0.0,0.0,0.0,0.0,0.0,0.0,0.0,0.0,0.0,0.0,0.0,0.0,0.0,0.0,0.0,0.0,0.0,0.0,0.0,0.0,-0.0858,-0.2167,-0.3875,-0.5026,-0.7361,-0.9039,-1.1511,-1.2396,-1.1935,-1.072,-0.9438,-0.8538,-0.729,-0.7217,-0.7592,-0.8203,-0.881,-0.9799,-0.9786,-0.9797,-0.9593,-0.9365,-1.0247,-1.1109,-1.181,-1.2464,-1.3982,-1.421,-1.421,-1.4299,-1.4299,-1.4299,-1.4299,-1.4299,-1.4299,-1.4299,-1.4299,-1.4299,-1.4299,-1.4299,-1.4299,-1.4299,-1.4292,-1.4238,-1.4207,-1.4122,-1.4061,-1.3912,-1.3838,-1.3756,-1.3668,-1.358,-1.3539,-1.3505,-1.3478,-1.3437,-1.3397,-1.3308,-1.3295,-1.3077,-1.2921,-1.2996,-1.0703,-0.7636,-0.5523,-0.4058,0.0,0.0,0.0,0.0,0.0,0.0,0.0,0.0,0.0,0.0,0.0,0.0,0.0,0.0,0.0,0.0,0.0,0.0,0.0,0.0,0.0,0.0,0.0,0.0,0.0,0.0,0.0,0.0,0.0,0.0,0.0,0.0,0.0,0.0,0.0,0.0,0.0,0.0,0.0,0.0,0.0,0.0,0.0,0.0,0.0,0.0,0.0,0.0,0.0,-0.2368,-0.3572,-0.5523,-0.8218,-1.1166,-1.2011,-1.3724,-1.4735,-1.5024,-1.4,-1.2678,-1.1301,-0.9789,-0.8309,-0.8684,-1.0432,-1.1961,-1.2987,-1.3357,-1.3468,-1.3455,-1.3352,-1.3579,-1.3726,-1.4011,-1.4166,-1.4299,-1.4299,-1.4299,-1.4299,-1.4299,-1.4299,-1.4299,-1.4299,-1.4299,-1.4299,-1.4299,-1.4299,-1.4299,-1.4299,-1.4299,-1.4299,-1.4299,-1.4292,-1.4245,-1.4265,-1.4204,-1.4112,-1.4037,-1.3933,-1.3865,-1.3754,-1.3653,-1.3634,-1.3573,-1.3519,-1.3471,-1.3397,-1.3356,-1.3376,-1.3342,-1.3275,-1.2557,-0.9429,-0.7754,-0.633,-0.3953,0.0,0.0,0.0,0.0,0.0,0.0,0.0,0.0,0.0,0.0,0.0,0.0,0.0,0.0,0.0,0.0,0.0,0.0,0.0,0.0,0.0,0.0,0.0,0.0,0.0,0.0,0.0,0.0,0.0,0.0,0.0,0.0,0.0,0.0,0.0,0.0,0.0,0.0,0.0,0.0,0.0,0.0,0.0,0.0,0.0,0.0,0.0,0.0,-0.2519,-0.4712,-0.7093,-0.9802,-1.2606,-1.3981,-1.5233,-1.5526,-1.5377,-1.5357,-1.5011,-1.3584,-1.2289,-1.2528,-1.2899,-1.281,-1.4049,-1.4612,-1.5057,-1.4976,-1.4862,-1.4638,-1.4516,-1.4502,-1.4373,-1.4306,-1.4299,-1.4299,-1.4299,-1.4299,-1.4299,-1.4299,-1.4299,-1.4299,-1.4299,-1.4299,-1.4299,-1.4299,-1.4299,-1.4299,-1.4299,-1.4299,-1.4299,-1.4299,-1.4299,-1.4299,-1.4278,-1.4204,-1.4166,-1.4048,-1.4007,-1.3856,-1.3754,-1.3707,-1.3695,-1.3627,-1.3559,-1.3498,-1.3464,-1.3485,-1.3431,-1.337,-1.2446,-1.1197,-0.9896,-0.8607,-0.6072,-0.3939,-0.3498,-0.333,-0.3026,-0.2929,-0.2871,-0.2422,-0.218,-0.1871,-0.1561,0.0,0.0,0.0,0.0,0.0,0.0,0.0,0.0,0.0,0.0,0.0,0.0,0.0,0.0,0.0,0.0,0.0,0.0,0.0,0.0,0.0,0.0,0.0,0.0,0.0,0.0,0.0,0.0,0.0,0.0,-0.0555,-0.0959,0.0,0.0,0.0,0.0,0.0,-0.2369,-0.4174,-0.6049,-0.8445,-1.1181,-1.4122,-1.542,-1.5526,-1.5499,-1.5432,-1.5418,-1.5255,-1.518,-1.5357,-1.5039,-1.4959,-1.5201,-1.5167,-1.5099,-1.5085,-1.5017,-1.4969,-1.4733,-1.459,-1.457,-1.4455,-1.4346,-1.4319,-1.4299,-1.4299,-1.4299,-1.4299,-1.4299,-1.4299,-1.4299,-1.4299,-1.4299,-1.4299,-1.4299,-1.4299,-1.4299,-1.4299,-1.4299,-1.4299,-1.4299,-1.4299,-1.4299,-1.4285,-1.4285,-1.4197,-1.418,-1.4129,-1.4068,-1.3973,-1.3933,-1.3871,-1.381,-1.3715,-1.3605,-1.3607,-1.3587,-1.3532,-1.3485,-1.3118,-1.2111,-1.0361,-0.904,-0.6904,-0.544,-0.5484,-0.542,-0.5616,-0.559,-0.5647,-0.5104,-0.453,-0.4181,-0.3626,0.0,0.0,0.0,0.0,0.0,0.0,0.0,0.0,0.0,0.0,0.0,0.0,0.0,0.0,0.0,0.0,0.0,0.0,0.0,0.0,0.0,0.0,0.0,0.0,0.0,0.0,0.0,0.0,0.0,0.0,-0.1815,-0.3424,-0.3926,-0.4879,-0.5683,-0.4479,-0.3473,-0.3976,-0.5831,-0.7442,-0.9579,-1.2252,-1.5097,-1.5428,-1.5547,-1.5479,-1.5411,-1.5445,-1.5438,-1.5493,-1.5547,-1.552,-1.5404,-1.5255,-1.512,-1.5004,-1.5044,-1.5037,-1.4983,-1.4808,-1.4746,-1.462,-1.4584,-1.4468,-1.4367,-1.4346,-1.4333,-1.4306,-1.4299,-1.4299,-1.4299,-1.4299,-1.4299,-1.4299,-1.4299,-1.4299,-1.4299,-1.4299,-1.4299,-1.4299,-1.4299,-1.4299,-1.4299,-1.4299,-1.4299,-1.4292,-1.4272,-1.4272,-1.4278,-1.4258,-1.4163,-1.4095,-1.4034,-1.396,-1.3858,-1.372,-1.3673,-1.3688,-1.3612,-1.3572,-1.3531,-1.2898,-1.09,-0.9137,-0.7414,-0.6944,-0.7512,-0.7966,-0.8425,-0.8503,-0.8558,-0.7604,-0.6974,-0.6486,-0.568,-0.4099,-0.2404,-0.115,0.0,0.0,0.0,0.0,0.0,0.0,0.0,0.0,0.0,0.0,0.0,0.0,0.0,0.0,0.0,0.0,0.0,0.0,0.0,0.0,0.0,0.0,0.0,0.0,-0.0961,-0.2419,-0.267,-0.4127,-0.5984,-0.6734,-0.7286,-0.749,-0.5331,-0.3974,-0.4527,-0.7035,-0.7507,-0.9481,-1.2814,-1.5627,-1.5472,-1.5418,-1.5486,-1.5411,-1.5506,-1.5628,-1.5703,-1.5723,-1.5628,-1.5466,-1.5337,-1.5262,-1.514,-1.5153,-1.5119,-1.5023,-1.4916,-1.4848,-1.4714,-1.4692,-1.459,-1.4448,-1.4428,-1.4401,-1.4326,-1.4306,-1.4312,-1.4299,-1.4299,-1.4299,-1.4299,-1.4299,-1.4299,-1.4299,-1.4299,-1.4299,-1.4306,-1.4299,-1.4299,-1.4299,-1.4299,-1.4299,-1.4299,-1.4299,-1.4299,-1.4292,-1.4292,-1.4231,-1.4204,-1.415,-1.4105,-1.3973,-1.3829,-1.3761,-1.3754,-1.3727,-1.372,-1.3687,-1.3639,-1.2035,-1.1567,-1.032,-1.0393,-1.0904,-1.1286,-1.1706,-1.1652,-1.1446,-1.0321,-0.9366,-0.8294,-0.6499,-0.4454,-0.2403,-0.0501,0.0,0.0,0.0,0.0,0.0,0.0,0.0,0.0,0.0,0.0,0.0,0.0,0.0,0.0,0.0,0.0,0.0,0.0,0.0,0.0,0.0,0.0,0.0,-0.0961,-0.2418,-0.3875,-0.4879,-0.6885,-0.8789,-0.944,-1.0345,-1.0345,-0.8138,-0.6885,-0.7035,-0.8489,-0.936,-1.0876,-1.3309,-1.5288,-1.5472,-1.5493,-1.5581,-1.552,-1.5649,-1.5784,-1.5886,-1.5976,-1.5764,-1.5574,-1.5391,-1.5323,-1.5208,-1.5153,-1.5133,-1.5072,-1.5025,-1.497,-1.4875,-1.4794,-1.4726,-1.459,-1.4523,-1.4502,-1.438,-1.4333,-1.434,-1.4319,-1.4299,-1.4299,-1.4299,-1.4353,-1.4367,-1.438,-1.438,-1.4394,-1.4387,-1.4333,-1.4299,-1.4299,-1.4299,-1.4299,-1.4299,-1.4299,-1.4299,-1.4299,-1.4299,-1.4285,-1.4258,-1.4231,-1.4193,-1.4166,-1.4021,-1.3957,-1.3937,-1.3883,-1.3869,-1.3829,-1.3788,-1.3258,-1.334,-1.347,-1.3614,-1.3539,-1.3485,-1.3403,-1.3217,-1.3033,-1.1876,-1.0587,-0.9477,-0.7459,-0.4942,-0.273,-0.059,0.0,0.0,0.0,0.0,0.0,0.0,0.0,0.0,0.0,0.0,0.0,0.0,0.0,0.0,0.0,0.0,0.0,0.0,0.0,0.0,0.0,0.0,-0.0506,-0.2972,-0.4278,-0.4678,-0.7336,-0.9644,-1.1799,-1.2198,-1.3306,-1.4265,-1.2397,-1.1444,-1.1294,-1.1194,-1.1406,-1.2256,-1.4318,-1.55,-1.5676,-1.5676,-1.573,-1.5669,-1.5791,-1.594,-1.6029,-1.6092,-1.5859,-1.5607,-1.5451,-1.5357,-1.5235,-1.5181,-1.5147,-1.5092,-1.518,-1.5059,-1.4977,-1.4983,-1.4828,-1.4719,-1.4672,-1.4563,-1.4475,-1.4428,-1.4394,-1.4353,-1.4299,-1.4299,-1.4346,-1.4441,-1.4475,-1.4516,-1.4523,-1.4489,-1.4468,-1.4387,-1.4333,-1.4299,-1.4299,-1.4299,-1.4299,-1.4299,-1.4299,-1.4299,-1.4299,-1.4299,-1.4292,-1.4292,-1.4265,-1.4272,-1.4245,-1.4245,-1.4204,-1.4122,-1.4068,-1.398,-1.3889,-1.3916,-1.391,-1.3919,-1.3862,-1.3817,-1.3619,-1.3529,-1.3385,-1.3151,-1.296,-1.1617,-0.9351,-0.7247,-0.4409,-0.3035,0.0,0.0,0.0,0.0,0.0,0.0,0.0,0.0,0.0,0.0,0.0,0.0,0.0,0.0,0.0,0.0,0.0,0.0,0.0,0.0,0.0,-0.2068,-0.2862,-0.3203,-0.5702,-0.7787,-0.984,-1.0545,-1.2353,-1.4819,-1.4968,-1.5472,-1.4819,-1.3661,-1.2397,-1.2198,-1.2547,-1.2126,-1.2897,-1.4589,-1.5545,-1.5798,-1.5805,-1.5872,-1.5839,-1.599,-1.6015,-1.6069,-1.6133,-1.59,-1.573,-1.5546,-1.5411,-1.5255,-1.5194,-1.514,-1.5113,-1.5187,-1.5079,-1.5085,-1.5119,-1.4964,-1.4875,-1.4862,-1.474,-1.4536,-1.4496,-1.4441,-1.4319,-1.4306,-1.4326,-1.4441,-1.4502,-1.455,-1.4645,-1.4672,-1.4638,-1.455,-1.4468,-1.4394,-1.434,-1.4299,-1.4299,-1.4299,-1.4299,-1.4299,-1.4299,-1.4299,-1.4299,-1.4299,-1.4299,-1.4299,-1.4299,-1.4299,-1.4299,-1.4285,-1.4204,-1.419,-1.4102,-1.4116,-1.4143,-1.4156,-1.4156,-1.4136,-1.4018,-1.3849,-1.3741,-1.3595,-1.2458,-1.1969,-0.9837,-0.7596,-0.5852,-0.3998,-0.254,0.0,0.0,0.0,0.0,0.0,0.0,0.0,0.0,0.0,0.0,0.0,0.0,0.0,0.0,0.0,0.0,0.0,0.0,0.0,-0.0579,-0.2129,-0.5584,-0.722,-0.7544,-0.8959,-1.0695,-1.2098,-1.3206,-1.4613,-1.5778,-1.5977,-1.6033,-1.5884,-1.4869,-1.396,-1.396,-1.3555,-1.3769,-1.4459,-1.5011,-1.572,-1.5934,-1.5947,-1.6058,-1.6024,-1.6058,-1.6133,-1.6083,-1.6133,-1.594,-1.5778,-1.5655,-1.5506,-1.5337,-1.5215,-1.518,-1.512,-1.5133,-1.5106,-1.5092,-1.5153,-1.5092,-1.5004,-1.5011,-1.4889,-1.4658,-1.4604,-1.457,-1.4482,-1.4489,-1.4496,-1.4611,-1.4692,-1.4746,-1.4821,-1.4828,-1.474,-1.4631,-1.4498,-1.4428,-1.4353,-1.4299,-1.4299,-1.4299,-1.4299,-1.4299,-1.4299,-1.4299,-1.4299,-1.4299,-1.4299,-1.4299,-1.4299,-1.4299,-1.4299,-1.4299,-1.4292,-1.4285,-1.4285,-1.4299,-1.4292,-1.4258,-1.4245,-1.4238,-1.417,-1.4048,-1.3953,-1.3849,-1.2087,-1.0566,-0.8335,-0.6469,-0.4729,-0.32,-0.1714,0.0,0.0,0.0,0.0,0.0,0.0,0.0,0.0,0.0,0.0,0.0,0.0,0.0,0.0,0.0,0.0,0.0,0.0,-0.0211,-0.1974,-0.4851,-0.9611,-1.1888,-1.2403,-1.2353,-1.2447,-1.3051,-1.4968,-1.5877,-1.6133,-1.6133,-1.6133,-1.6083,-1.5628,-1.5373,-1.5983,-1.5522,-1.5453,-1.5509,-1.6126,-1.6042,-1.6112,-1.6126,-1.6112,-1.6126,-1.6133,-1.6133,-1.6133,-1.6133,-1.603,-1.5881,-1.5737,-1.5581,-1.5391,-1.5282,-1.5208,-1.5174,-1.5181,-1.5181,-1.5174,-1.5167,-1.5133,-1.5112,-1.5045,-1.5052,-1.4862,-1.4714,-1.4708,-1.466,-1.4647,-1.4667,-1.4774,-1.4848,-1.4923,-1.495,-1.495,-1.4855,-1.4733,-1.4566,-1.4468,-1.4373,-1.4306,-1.4299,-1.4299,-1.4299,-1.4299,-1.4299,-1.4299,-1.4299,-1.4299,-1.4299,-1.4299,-1.4299,-1.4299,-1.4299,-1.4299,-1.4299,-1.4299,-1.4299,-1.4299,-1.4299,-1.4299,-1.4299,-1.4299,-1.4258,-1.4156,-1.4089,-1.3947,-1.2036,-1.0096,-0.8246,-0.6289,-0.402,-0.234,0.0,0.0,0.0,0.0,0.0,0.0,0.0,0.0,0.0,0.0,0.0,0.0,0.0,0.0,0.0,0.0,0.0,0.0,0.0,-0.222,-0.4558,-0.7331,-1.0662,-1.3334,-1.5118,-1.5167,-1.5018,-1.5273,-1.5778,-1.6133,-1.6133,-1.6133,-1.6133,-1.6133,-1.6133,-1.6133,-1.6083,-1.6133,-1.6133,-1.6133,-1.6133,-1.6133,-1.6133,-1.6133,-1.6133,-1.6133,-1.6133,-1.6133,-1.6133,-1.6126,-1.6058,-1.5935,-1.5798,-1.5669,-1.5479,-1.5398,-1.5303,-1.5242,-1.5194,-1.5181,-1.5187,-1.5181,-1.5187,-1.5147,-1.514,-1.5079,-1.495,-1.4923,-1.4855,-1.4708,-1.4701,-1.4808,-1.4896,-1.4964,-1.5078,-1.5112,-1.5078,-1.4923,-1.4814,-1.4679,-1.4516,-1.4401,-1.4333,-1.4299,-1.4299,-1.4299,-1.4299,-1.4299,-1.4299,-1.4299,-1.4299,-1.4299,-1.4299,-1.4299,-1.4299,-1.4299,-1.4299,-1.4299,-1.4299,-1.4299,-1.4299,-1.4299,-1.4299,-1.4299,-1.4299,-1.4299,-1.4238,-1.417,-1.3736,-1.1979,-1.0112,-0.8181,-0.5926,-0.3587,0.0,0.0,0.0,0.0,0.0,0.0,0.0,0.0,0.0,0.0,0.0,0.0,0.0,0.0,0.0,0.0,0.0,0.0,-0.0726,-0.2173,-0.5988,-0.8434,-1.0167,-1.2729,-1.4763,-1.5927,-1.6133,-1.6133,-1.6133,-1.6133,-1.6133,-1.6133,-1.6133,-1.6133,-1.6133,-1.6133,-1.6133,-1.6133,-1.6133,-1.6133,-1.6133,-1.6133,-1.6133,-1.6133,-1.6133,-1.6133,-1.6133,-1.6133,-1.6133,-1.6133,-1.6076,-1.6042,-1.599,-1.5935,-1.5833,-1.5622,-1.5547,-1.5459,-1.5357,-1.5323,-1.5289,-1.5282,-1.5282,-1.5282,-1.5248,-1.5235,-1.514,-1.5132,-1.5065,-1.4984,-1.4916,-1.493,-1.4984,-1.5038,-1.5079,-1.5099,-1.5133,-1.5139,-1.503,-1.4882,-1.4835,-1.4713,-1.457,-1.4496,-1.436,-1.4346,-1.4306,-1.4299,-1.4299,-1.4299,-1.4299,-1.4299,-1.4299,-1.4299,-1.4299,-1.4299,-1.4299,-1.4299,-1.4299,-1.4299,-1.4299,-1.4299,-1.4299,-1.4299,-1.4299,-1.4299,-1.4299,-1.4299,-1.4238,-1.3808,-1.2252,-0.9988,-0.7703,-0.5389,-0.3011,0.0,0.0,0.0,0.0,0.0,0.0,0.0,0.0,0.0,0.0,0.0,0.0,0.0,0.0,0.0,0.0,0.0,0.0,-0.2115,-0.5093,-0.9889,-1.2039,-1.2508,-1.4918,-1.6083,-1.6133,-1.6133,-1.6133,-1.6133,-1.6133,-1.6133,-1.6133,-1.6133,-1.6133,-1.6133,-1.6133,-1.6133,-1.6133,-1.6133,-1.6133,-1.6133,-1.6133,-1.6133,-1.6103,-1.6117,-1.6146,-1.6133,-1.616,-1.613,-1.6146,-1.6133,-1.6126,-1.6092,-1.6017,-1.5852,-1.5833,-1.5716,-1.5607,-1.5588,-1.552,-1.5466,-1.5438,-1.5438,-1.5432,-1.5371,-1.5309,-1.5221,-1.5174,-1.516,-1.5092,-1.5105,-1.5065,-1.5106,-1.5153,-1.5147,-1.516,-1.5167,-1.518,-1.5098,-1.5037,-1.503,-1.4942,-1.474,-1.4566,-1.4468,-1.4373,-1.4333,-1.4306,-1.4306,-1.4306,-1.4306,-1.4306,-1.4306,-1.4306,-1.4306,-1.4299,-1.4299,-1.4299,-1.4299,-1.4299,-1.4299,-1.4299,-1.4299,-1.4299,-1.4299,-1.4299,-1.4299,-1.4299,-1.4272,-1.3943,-1.3028,-1.0525,-0.7666,-0.5792,-0.3698,0.0,0.0,0.0,0.0,0.0,0.0,0.0,0.0,0.0,0.0,0.0,0.0,0.0,0.0,0.0,0.0,0.0,0.0,-0.4805,-0.7528,-1.0781,-1.2113,-1.2547,-1.4968,-1.6133,-1.6133,-1.6133,-1.6133,-1.6119,-1.6126,-1.6133,-1.6126,-1.6133,-1.6133,-1.6133,-1.6133,-1.6133,-1.6133,-1.6133,-1.6133,-1.6139,-1.611,-1.6139,-1.6137,-1.6198,-1.6185,-1.6151,-1.6205,-1.6191,-1.6139,-1.6133,-1.6133,-1.6126,-1.6064,-1.5967,-1.59,-1.5894,-1.5784,-1.5634,-1.5628,-1.5608,-1.5546,-1.5546,-1.5465,-1.5438,-1.5384,-1.5296,-1.5221,-1.5181,-1.5153,-1.5194,-1.52,-1.5174,-1.5181,-1.5181,-1.5181,-1.5167,-1.5113,-1.5045,-1.5025,-1.503,-1.4942,-1.4774,-1.4654,-1.4512,-1.4414,-1.4367,-1.4333,-1.4326,-1.4326,-1.4326,-1.4333,-1.4333,-1.4326,-1.4319,-1.4306,-1.4299,-1.4299,-1.4299,-1.4299,-1.4299,-1.4299,-1.4299,-1.4299,-1.4299,-1.4299,-1.4299,-1.4299,-1.4299,-1.3982,-1.354,-1.0895,-0.7992,-0.7143,0.0,0.0,0.0,0.0,0.0,0.0,0.0,0.0,0.0,0.0,0.0,0.0,0.0,0.0,0.0,0.0,0.0,0.0,0.0]},{"header":{"parameterUnit":"m.s-1","parameterCategory":1,"la1":31.0,"la2":29.5877,"lo1":-88.7671,"lo2":-86.6584,"dx":0.0162,"dy":0.0185,"nx":115,"ny":88,"refTime":"2023-01-23T06:00:00:Z","depth":0,"parameterNumber":3,"parameterNumberName":"V-component_of_WINDS"},"data":[0.0,0.0,0.0,0.0,0.0,0.0,0.0,0.0,0.0,0.0,0.0,0.0,0.0,0.0,0.0,0.0,0.0,0.0,0.0,0.0,0.0,0.0,0.0,0.0,0.0,0.0,0.0,0.0,0.0,0.0,0.0,0.0,0.0,0.0,0.0,0.0,0.0,0.0,0.0,0.0,0.0,0.0,0.0,0.0,0.0,0.0,0.0,0.0,0.0,0.0,0.0,0.0,0.0,0.0,0.0,0.0,0.0,0.0,0.0,0.0,0.0,0.0,0.0,0.0,0.0,0.0,0.0,0.0,0.0,0.0,0.0,0.0,0.0,0.0,0.0,0.0,0.0,0.0,0.0,0.0,0.0,0.0,0.0,0.0,0.0,0.0,0.0,0.0,0.0,0.0,0.0,0.0,0.0,0.0,0.0,0.0,0.0,0.0,0.0,0.0,0.0,0.0,0.0,0.0,0.0,0.0,0.0,0.0,0.0,0.0,0.0,0.0,0.0,0.0,0.0,0.0,0.0,0.0,0.0,0.0,0.0,0.0,0.0,0.0,0.0,0.0,0.0,0.0,0.0,0.0,0.0,0.0,0.0,0.0,0.0,0.0,0.0,0.0,0.0,0.0,0.0,0.0,0.0,0.0,0.0,0.0,0.0,0.0,0.0,0.0,0.0,0.0,0.0,0.0,0.0,0.0,0.0,0.0,0.0,0.0,0.0,0.0,0.0,0.0,0.0,0.0,0.0,0.0,0.0,0.0,0.0,0.0,0.0,0.0,0.0,0.0,0.0,0.0,0.0,0.0,0.0,0.0,0.0,0.0,0.0,0.0,0.0,0.0,0.0,0.0,0.0,0.0,0.0,0.0,0.0,0.0,0.0,0.0,0.0,0.0,0.0,0.0,0.0,0.0,0.0,0.0,0.0,0.0,0.0,0.0,0.0,0.0,0.0,0.0,0.0,0.0,0.0,0.0,0.0,0.0,0.0,0.0,0.0,0.0,0.0,0.0,0.0,0.0,0.0,0.0,0.0,0.0,0.0,0.0,0.0,0.0,0.0,0.0,0.0,0.0,0.0,0.0,0.0,0.0,0.0,0.0,0.0,0.0,0.0,0.0,0.0,0.0,0.0,0.0,0.0,0.0,0.0,0.0,0.0,0.0,0.0,0.0,0.0,0.0,0.0,0.0,0.0,0.0,0.0,0.0,0.0,0.0,0.0,0.0,0.0,0.0,0.0,0.0,0.0,0.0,0.0,0.0,0.0,0.0,0.0,0.0,0.0,0.0,0.0,0.0,0.0,0.0,0.0,0.0,0.0,0.0,0.0,0.0,0.0,0.0,0.0,0.0,0.0,0.0,0.0,0.0,0.0,0.0,0.0,0.0,0.0,0.0,0.0,0.0,0.0,0.0,0.0,0.0,0.0,0.0,0.0,0.0,0.0,0.0,0.0,0.0,0.0,0.0,0.0,0.0,0.0,0.0,0.0,0.0,0.0,0.0,0.0,0.0,0.0,0.0,0.0,0.0,0.0,0.0,0.0,0.0,0.0,0.0,0.0,0.0,0.0,0.0,0.0,0.0,0.0,0.0,0.0,0.0,0.0,0.0,0.0,0.0,0.0,0.0,0.0,0.0,0.0,0.0,0.0,0.0,0.0,0.0,0.0,0.0,0.0,0.0,0.0,0.0,0.0,0.0,0.0,0.0,0.0,0.0,0.0,0.0,0.0,0.0,0.0,0.0,0.0,0.0,0.0,0.0,0.0,0.0,0.0,0.0,0.0,0.0,0.0,0.0,0.0,0.0,0.0,0.0,0.0,0.0,0.0,0.0,0.0,0.0,0.0,0.0,0.0,0.0,0.0,0.0,0.0,0.0,0.0,0.0,0.0,0.0,0.0,0.0,0.0,0.0,0.0,0.0,0.0,0.0,0.0,0.0,0.0,0.0,0.0,0.0,0.0,0.0,0.0,0.0,0.0,0.0,0.0,0.0,0.0,0.0,0.0,0.0,0.0,0.0,0.0,0.0,0.0,0.0,0.0,0.0,0.0,0.0,0.0,0.0,0.0,0.0,0.0,0.0,0.0,0.0,0.0,0.0,0.0,0.0,0.0,0.0,0.0,0.0,0.0,0.0,0.0,0.0,0.0,0.0,0.0,0.0,0.0,0.0,0.0,0.0,0.0,0.0,0.0,0.0,0.0,0.0,0.0,0.0,0.0,0.0,0.0,0.0,0.0,0.0,0.0,0.0,0.0,0.0,0.0,0.0,0.0,0.0,0.0,0.0,0.0,0.0,0.0,0.0,0.0,0.0,0.0,0.0,0.0,0.0,0.0,0.0,0.0,0.0,0.0,0.0,0.0,0.0,0.0,0.0,0.0,0.0,0.0,0.0,0.0,0.0,0.0,0.0,0.0,0.0,0.0,0.0,0.0,0.0,0.0,0.0,0.0,0.0,0.0,0.0,0.0,0.0,0.0,0.0,0.0,0.0,0.0,0.0,0.0,0.0,0.0,0.0,0.0,0.0,0.0,0.0,0.0,0.0,0.0,0.0,0.0,0.0,0.0,0.0,0.0,0.0,0.0,0.0,0.0,0.0,0.0,0.0,0.0,0.0,0.0,0.0,0.0,0.0,0.0,0.0,0.0,0.0,0.0,0.0,0.0,0.0,0.0,0.0,0.0,0.0,0.0,0.0,0.0,0.0,0.0,0.0,0.0,0.0,0.0,0.0,0.0,0.0,0.0,0.0,0.0,0.0,0.0,0.0,0.0,0.0,0.0,0.0,0.0,0.0,0.0,0.0,0.0,0.0,0.0,0.0,0.0,0.0,0.0,0.0,0.0,0.0,0.0,0.0,0.0,0.0,0.0,0.0,0.0,0.0,0.0,0.0,0.0,0.0,0.0,0.0,0.0,0.0,0.0,0.0,0.0,0.0,0.0,0.0,0.0,0.0,0.0,0.0,0.0,0.0,0.0,0.0,0.0,0.0,0.0,0.0,0.0,0.0,0.0,0.0,0.0,0.0,0.0,0.0,0.0,0.0,0.0,0.0,0.0,0.0,0.0,0.0,0.0,0.0,0.0,0.0,0.0,0.0,0.0,0.0,0.0,0.0,0.0,0.0,0.0,0.0,0.0,0.0,0.0,0.0,0.0,0.0,0.0,0.0,0.0,0.0,0.0,0.0,0.0,0.0,0.0,0.0,0.0,0.0,0.0,0.0,0.0,0.0,0.0,0.0,0.0,0.0,0.0,0.0,0.0,0.0,0.0,0.0,0.0,0.0,0.0,0.0,0.0,0.0,0.0,0.0,0.0,0.0,0.0,0.0,0.0,0.0,0.0,0.0,0.0,0.0,0.0,0.0,0.0,0.0,0.0,0.0,0.0,0.0,0.0,0.0,0.0,0.0,0.0,0.0,0.0,0.0,0.0,0.0,0.0,0.0,0.0,0.0,0.0,0.0,0.0,0.0,0.0,0.0,0.0,0.0,0.0,0.0,0.0,0.0,0.0,0.0,0.0,0.0,0.0,0.0,0.0,0.0,0.0,0.0,0.0,0.0,0.0,0.0,0.0,0.0,0.0,0.0,0.0,0.0,0.0,0.0,0.0,0.0,0.0,0.0,0.0,0.0,0.0,0.0,0.0,0.0,0.0,0.0,0.0,0.0,0.0,0.0,0.0,0.0,0.0,0.0,0.0,0.0,0.0,0.0,0.0,0.0,0.0,0.0,0.0,0.0,0.0,0.0,0.0,0.0,0.0,0.0,0.0,0.0,0.0,0.0,0.0,0.0,0.0,0.0,0.0,0.0,0.0,0.0,0.0,0.0,0.0,0.0,0.0,0.0,0.0,0.0,0.0,0.0,0.0,0.0,0.0,0.0,0.0,0.0,0.0,0.0,0.0,0.0,0.0,0.0,0.0,0.0,0.0,0.0,0.0,0.0,0.0,0.0,0.0,0.0,0.0,0.0,0.0,0.0,0.0,0.0,0.0,0.0,0.0,0.0,0.0,0.0,0.0,0.0,0.0,0.0,0.0,0.0,0.0,0.0,0.0,0.0,0.0,0.0,0.0,0.0,0.0,0.0,0.0,0.0,0.0,0.0,0.0,0.0,0.0,0.0,0.0,0.0,0.0,0.0,0.0,0.0,0.0,0.0,0.0,0.0,0.0,0.0,0.0,0.0,0.0,0.0,0.0,0.0,0.0,0.0,0.0,0.0,0.0,0.0,0.0,0.0,0.0,0.0,0.0,0.0,0.0,0.0,0.0,0.0,0.0,0.0,0.0,0.0,0.0,0.0,0.0,0.0,3.6911,0.0,0.0,0.0,0.0,0.0,0.0,0.0,0.0,0.0,0.0,0.0,0.0,0.0,0.0,0.0,0.0,0.0,0.0,0.0,0.0,0.0,0.0,0.0,0.0,0.0,0.0,0.0,0.0,0.0,0.0,0.0,0.0,0.0,0.0,0.0,0.0,0.0,0.0,0.0,0.0,0.0,0.0,0.0,0.0,0.0,0.0,0.0,0.0,0.0,0.0,0.0,0.0,0.0,0.0,0.0,0.0,0.0,0.0,0.0,0.0,0.0,0.0,0.0,0.0,0.0,0.0,0.0,0.0,0.0,0.0,0.0,0.0,0.0,0.0,0.0,0.0,0.0,0.0,0.0,0.0,0.0,0.0,0.0,0.0,0.0,0.0,0.0,0.0,0.0,0.0,0.0,0.0,0.0,0.0,0.0,0.0,0.0,0.0,0.0,0.0,0.0,0.0,0.0,0.0,0.0,0.0,0.0,0.0,0.0,0.0,3.358,3.6107,3.3502,3.4193,3.8715,0.0,0.0,0.0,0.0,0.0,0.0,0.0,0.0,0.0,0.0,0.0,0.0,0.0,0.0,0.0,0.0,0.0,0.0,0.0,0.0,0.0,0.0,0.0,0.0,0.0,0.0,0.0,0.0,0.0,0.0,0.0,0.0,0.0,0.0,0.0,0.0,0.0,0.0,0.0,0.0,0.0,0.0,0.0,0.0,0.0,0.0,0.0,0.0,0.0,0.0,0.0,0.0,0.0,0.0,0.0,0.0,0.0,0.0,0.0,0.0,0.0,0.0,0.0,0.0,0.0,0.0,0.0,0.0,0.0,0.0,0.0,0.0,0.0,0.0,0.0,0.0,0.0,0.0,0.0,0.0,0.0,0.0,0.0,0.0,0.0,0.0,0.0,0.0,0.0,0.0,0.0,0.0,0.0,0.0,0.0,0.0,0.0,0.0,0.0,0.0,0.0,0.0,0.0,0.0,0.0,0.0,0.0,0.0,0.0,0.0,0.0,0.0,3.4184,3.5111,4.0302,0.0,0.0,0.0,0.0,0.0,0.0,0.0,0.0,0.0,0.0,0.0,0.0,0.0,0.0,0.0,0.0,0.0,0.0,0.0,0.0,0.0,0.0,0.0,0.0,0.0,0.0,0.0,0.0,0.0,0.0,0.0,0.0,0.0,0.0,0.0,0.0,0.0,0.0,0.0,0.0,0.0,0.0,0.0,0.0,0.0,0.0,0.0,0.0,0.0,0.0,0.0,0.0,0.0,0.0,0.0,0.0,0.0,0.0,0.0,0.0,0.0,0.0,0.0,0.0,0.0,0.0,0.0,0.0,0.0,0.0,0.0,0.0,0.0,0.0,0.0,0.0,0.0,0.0,0.0,0.0,0.0,0.0,0.0,0.0,0.0,0.0,0.0,0.0,0.0,0.0,0.0,0.0,0.0,0.0,0.0,0.0,0.0,0.0,0.0,0.0,0.0,0.0,0.0,0.0,0.0,0.0,0.0,0.0,0.0,0.0,3.6851,3.7753,3.7841,0.0,4.2106,0.0,0.0,0.0,0.0,0.0,0.0,0.0,0.0,0.0,0.0,0.0,0.0,0.0,0.0,0.0,0.0,0.0,0.0,0.0,0.0,0.0,0.0,0.0,0.0,0.0,0.0,0.0,0.0,0.0,0.0,0.0,0.0,0.0,0.0,0.0,0.0,0.0,0.0,0.0,0.0,0.0,0.0,0.0,0.0,0.0,0.0,0.0,0.0,0.0,0.0,0.0,0.0,0.0,0.0,0.0,0.0,0.0,0.0,0.0,0.0,0.0,0.0,0.0,0.0,0.0,0.0,0.0,0.0,0.0,0.0,0.0,0.0,0.0,0.0,0.0,0.0,0.0,0.0,0.0,0.0,0.0,0.0,0.0,0.0,0.0,0.0,0.0,0.0,0.0,0.0,0.0,0.0,0.0,0.0,0.0,0.0,0.0,0.0,0.0,0.0,0.0,0.0,0.0,0.0,0.0,0.0,0.0,0.0,0.0,0.0,3.7156,3.7889,3.9544,4.1477,0.0,0.0,0.0,0.0,0.0,0.0,0.0,0.0,0.0,0.0,0.0,0.0,0.0,0.0,0.0,0.0,0.0,0.0,0.0,0.0,0.0,0.0,0.0,0.0,0.0,0.0,0.0,0.0,0.0,0.0,0.0,0.0,0.0,0.0,0.0,0.0,0.0,0.0,0.0,0.0,0.0,0.0,0.0,0.0,0.0,0.0,0.0,0.0,0.0,0.0,0.0,0.0,0.0,0.0,0.0,0.0,0.0,0.0,0.0,0.0,0.0,0.0,0.0,0.0,0.0,0.0,0.0,0.0,0.0,0.0,0.0,0.0,0.0,0.0,0.0,0.0,0.0,0.0,0.0,0.0,0.0,0.0,0.0,0.0,0.0,0.0,0.0,0.0,0.0,0.0,0.0,0.0,0.0,0.0,0.0,0.0,0.0,0.0,0.0,0.0,0.0,0.0,0.0,0.0,0.0,0.0,0.0,0.0,0.0,0.0,3.6581,3.6979,3.8104,4.0772,4.288,4.4183,0.0,0.0,0.0,0.0,0.0,0.0,0.0,0.0,0.0,0.0,0.0,0.0,0.0,0.0,0.0,0.0,0.0,0.0,0.0,0.0,0.0,0.0,0.0,0.0,0.0,0.0,0.0,0.0,0.0,0.0,0.0,0.0,0.0,0.0,0.0,0.0,0.0,0.0,0.0,0.0,0.0,0.0,0.0,0.0,0.0,0.0,0.0,0.0,0.0,0.0,0.0,0.0,0.0,0.0,0.0,0.0,0.0,0.0,0.0,0.0,0.0,0.0,0.0,0.0,0.0,0.0,0.0,0.0,0.0,0.0,0.0,0.0,0.0,0.0,0.0,0.0,0.0,0.0,0.0,0.0,0.0,0.0,0.0,0.0,0.0,0.0,0.0,0.0,0.0,0.0,0.0,0.0,0.0,0.0,0.0,0.0,0.0,0.0,0.0,0.0,0.0,0.0,0.0,0.0,0.0,0.0,0.0,0.0,0.0,3.6096,3.6547,3.8378,4.1739,4.3532,0.0,0.0,0.0,0.0,0.0,0.0,0.0,0.0,0.0,0.0,0.0,0.0,0.0,0.0,0.0,0.0,0.0,0.0,0.0,0.0,0.0,0.0,0.0,0.0,0.0,0.0,0.0,0.0,0.0,0.0,0.0,0.0,0.0,0.0,0.0,0.0,0.0,0.0,0.0,0.0,0.0,0.0,0.0,0.0,0.0,0.0,0.0,0.0,0.0,0.0,0.0,0.0,0.0,0.0,0.0,0.0,0.0,0.0,0.0,0.0,0.0,0.0,0.0,0.0,0.0,0.0,0.0,0.0,0.0,0.0,0.0,0.0,0.0,0.0,0.0,0.0,0.0,0.0,0.0,0.0,0.0,0.0,0.0,0.0,0.0,0.0,0.0,0.0,0.0,0.0,0.0,0.0,0.0,0.0,0.0,0.0,0.0,0.0,0.0,0.0,0.0,0.0,0.0,0.0,0.0,0.0,0.0,0.0,0.0,3.7438,3.8026,3.8525,3.91,4.1605,4.2847,0.0,0.0,0.0,0.0,0.0,0.0,0.0,0.0,0.0,0.0,0.0,0.0,0.0,0.0,0.0,0.0,0.0,0.0,0.0,0.0,0.0,0.0,0.0,0.0,0.0,0.0,0.0,0.0,0.0,0.0,0.0,0.0,0.0,0.0,0.0,0.0,0.0,0.0,0.0,0.0,0.0,0.0,0.0,0.0,0.0,0.0,0.0,0.0,0.0,0.0,0.0,0.0,0.0,0.0,0.0,0.0,0.0,0.0,0.0,0.0,0.0,0.0,0.0,0.0,0.0,0.0,0.0,0.0,0.0,0.0,0.0,0.0,0.0,0.0,0.0,0.0,0.0,0.0,0.0,0.0,0.0,0.0,0.0,0.0,0.0,0.0,0.0,0.0,0.0,0.0,0.0,0.0,0.0,0.0,0.0,0.0,0.0,0.0,0.0,0.0,0.0,0.0,0.0,0.0,0.0,0.0,0.0,0.0,0.0,3.6661,0.0,3.8818,3.9018,4.1203,4.2576,0.0,0.0,0.0,0.0,0.0,0.0,0.0,0.0,0.0,0.0,0.0,0.0,0.0,0.0,0.0,0.0,0.0,0.0,0.0,0.0,0.0,0.0,0.0,0.0,0.0,0.0,0.0,0.0,0.0,0.0,0.0,0.0,0.0,0.0,0.0,0.0,0.0,0.0,0.0,0.0,0.0,0.0,0.0,0.0,0.0,0.0,0.0,0.0,0.0,0.0,0.0,0.0,0.0,0.0,0.0,0.0,0.0,0.0,0.0,0.0,0.0,0.0,0.0,0.0,0.0,0.0,0.0,0.0,0.0,0.0,0.0,0.0,0.0,0.0,0.0,0.0,0.0,0.0,0.0,0.0,0.0,0.0,0.0,0.0,0.0,0.0,0.0,0.0,0.0,0.0,0.0,0.0,0.0,0.0,0.0,0.0,0.0,0.0,0.0,0.0,0.0,0.0,0.0,0.0,0.0,0.0,0.0,0.0,3.5228,3.4367,3.599,3.7409,3.8104,4.0747,4.2894,0.0,0.0,0.0,0.0,0.0,0.0,0.0,0.0,0.0,0.0,0.0,0.0,0.0,0.0,0.0,0.0,0.0,0.0,0.0,0.0,0.0,0.0,0.0,0.0,0.0,0.0,0.0,0.0,0.0,0.0,0.0,0.0,0.0,0.0,0.0,0.0,0.0,0.0,0.0,0.0,0.0,0.0,0.0,0.0,0.0,0.0,0.0,0.0,0.0,0.0,0.0,0.0,0.0,0.0,0.0,0.0,0.0,0.0,0.0,0.0,0.0,0.0,0.0,0.0,0.0,0.0,0.0,0.0,0.0,0.0,0.0,0.0,0.0,0.0,0.0,0.0,0.0,0.0,0.0,0.0,0.0,0.0,0.0,0.0,0.0,0.0,0.0,0.0,0.0,0.0,0.0,0.0,0.0,0.0,0.0,0.0,0.0,0.0,0.0,0.0,0.0,0.0,0.0,0.0,0.0,0.0,0.0,0.0,0.0,3.8667,3.8955,3.9779,4.1179,4.18,4.29,0.0,0.0,0.0,0.0,0.0,0.0,0.0,0.0,0.0,0.0,0.0,0.0,0.0,0.0,0.0,0.0,0.0,0.0,0.0,0.0,0.0,0.0,0.0,0.0,0.0,0.0,0.0,0.0,0.0,0.0,0.0,0.0,0.0,0.0,0.0,0.0,0.0,0.0,0.0,0.0,0.0,0.0,0.0,0.0,0.0,0.0,0.0,0.0,0.0,0.0,0.0,0.0,0.0,0.0,0.0,0.0,0.0,0.0,0.0,0.0,0.0,0.0,0.0,0.0,0.0,0.0,0.0,0.0,0.0,0.0,0.0,0.0,0.0,0.0,0.0,0.0,0.0,0.0,0.0,0.0,0.0,0.0,0.0,0.0,0.0,0.0,0.0,0.0,0.0,0.0,0.0,0.0,0.0,0.0,0.0,0.0,0.0,0.0,0.0,0.0,0.0,0.0,0.0,0.0,0.0,0.0,0.0,0.0,0.0,4.3722,4.1827,4.1548,4.313,4.3253,4.3737,4.4731,0.0,0.0,0.0,0.0,0.0,0.0,0.0,0.0,0.0,0.0,0.0,0.0,0.0,0.0,0.0,0.0,0.0,0.0,0.0,0.0,0.0,0.0,0.0,0.0,0.0,0.0,0.0,0.0,0.0,0.0,0.0,0.0,0.0,0.0,0.0,0.0,0.0,0.0,0.0,0.0,0.0,0.0,0.0,0.0,0.0,0.0,0.0,0.0,0.0,0.0,0.0,0.0,0.0,0.0,0.0,0.0,0.0,0.0,0.0,0.0,0.0,0.0,0.0,0.0,0.0,0.0,0.0,0.0,0.0,0.0,0.0,0.0,0.0,0.0,0.0,0.0,0.0,0.0,0.0,0.0,0.0,0.0,0.0,0.0,0.0,0.0,0.0,0.0,0.0,0.0,0.0,0.0,0.0,0.0,0.0,0.0,0.0,0.0,0.0,0.0,0.0,0.0,0.0,0.0,0.0,0.0,0.0,0.0,4.9324,4.5019,4.3472,4.4639,4.5122,4.5366,0.0,0.0,0.0,0.0,0.0,0.0,0.0,0.0,0.0,0.0,0.0,0.0,0.0,0.0,0.0,0.0,0.0,0.0,0.0,0.0,0.0,0.0,0.0,0.0,0.0,0.0,0.0,0.0,0.0,0.0,0.0,0.0,0.0,0.0,0.0,0.0,0.0,0.0,0.0,0.0,0.0,0.0,0.0,0.0,0.0,0.0,0.0,0.0,0.0,0.0,0.0,0.0,0.0,0.0,0.0,0.0,0.0,0.0,0.0,0.0,0.0,0.0,0.0,0.0,0.0,0.0,0.0,0.0,0.0,0.0,0.0,0.0,0.0,0.0,0.0,0.0,0.0,0.0,0.0,0.0,0.0,0.0,0.0,0.0,0.0,0.0,0.0,0.0,0.0,0.0,0.0,0.0,0.0,0.0,0.0,0.0,0.0,0.0,0.0,0.0,0.0,0.0,0.0,0.0,0.0,0.0,0.0,0.0,0.0,5.2182,5.428,5.4294,5.1858,4.8726,4.7586,0.0,0.0,0.0,0.0,0.0,0.0,0.0,0.0,0.0,0.0,0.0,0.0,0.0,0.0,0.0,0.0,0.0,0.0,0.0,0.0,0.0,0.0,0.0,0.0,0.0,0.0,0.0,0.0,0.0,0.0,0.0,0.0,0.0,0.0,0.0,0.0,0.0,0.0,0.0,0.0,0.0,0.0,0.0,0.0,0.0,0.0,0.0,0.0,0.0,0.0,0.0,0.0,0.0,0.0,0.0,0.0,0.0,0.0,0.0,0.0,0.0,0.0,0.0,0.0,0.0,0.0,0.0,0.0,0.0,0.0,0.0,0.0,0.0,0.0,0.0,0.0,0.0,0.0,0.0,0.0,0.0,0.0,0.0,0.0,0.0,0.0,0.0,0.0,0.0,0.0,0.0,0.0,0.0,0.0,0.0,0.0,0.0,0.0,0.0,0.0,0.0,0.0,0.0,0.0,0.0,0.0,0.0,0.0,5.4534,5.6738,6.0954,6.2094,5.9896,5.5536,5.228,0.0,0.0,0.0,0.0,0.0,0.0,0.0,0.0,0.0,0.0,0.0,0.0,0.0,0.0,0.0,0.0,0.0,0.0,0.0,0.0,0.0,0.0,0.0,0.0,0.0,0.0,0.0,0.0,0.0,0.0,0.0,0.0,0.0,0.0,0.0,0.0,0.0,0.0,0.0,0.0,0.0,0.0,0.0,0.0,0.0,0.0,0.0,0.0,0.0,0.0,0.0,0.0,0.0,0.0,0.0,0.0,0.0,0.0,0.0,0.0,0.0,0.0,0.0,0.0,0.0,0.0,0.0,0.0,0.0,0.0,0.0,0.0,0.0,0.0,0.0,0.0,0.0,0.0,0.0,0.0,0.0,0.0,0.0,0.0,0.0,0.0,0.0,0.0,0.0,0.0,0.0,0.0,0.0,0.0,0.0,0.0,0.0,0.0,0.0,0.0,0.0,0.0,0.0,0.0,0.0,0.0,0.0,0.0,5.9276,6.1938,6.5748,6.7712,6.752,6.3211,5.7786,0.0,0.0,0.0,0.0,0.0,0.0,0.0,0.0,0.0,0.0,0.0,0.0,0.0,0.0,0.0,0.0,0.0,0.0,0.0,0.0,0.0,0.0,0.0,0.0,0.0,0.0,0.0,0.0,0.0,0.0,0.0,0.0,0.0,0.0,0.0,0.0,0.0,0.0,0.0,0.0,0.0,0.0,0.0,0.0,0.0,0.0,0.0,0.0,0.0,0.0,0.0,0.0,0.0,0.0,0.0,0.0,0.0,0.0,0.0,0.0,0.0,0.0,0.0,0.0,0.0,0.0,0.0,0.0,0.0,0.0,0.0,0.0,0.0,0.0,0.0,0.0,0.0,0.0,0.0,0.0,0.0,0.0,0.0,0.0,0.0,0.0,0.0,0.0,0.0,0.0,0.0,0.0,0.0,0.0,0.0,0.0,0.0,0.0,0.0,0.0,0.0,0.0,0.0,0.0,0.0,0.0,0.0,0.0,6.1457,6.4936,6.9679,7.1783,7.1091,6.4403,5.8863,0.0,0.0,0.0,0.0,0.0,0.0,0.0,0.0,0.0,0.0,0.0,0.0,0.0,0.0,0.0,0.0,0.0,0.0,0.0,0.0,0.0,0.0,0.0,0.0,0.0,0.0,0.0,0.0,0.0,0.0,0.0,0.0,0.0,0.0,0.0,0.0,0.0,0.0,0.0,0.0,0.0,0.0,0.0,0.0,0.0,0.0,0.0,0.0,4.3441,0.0,0.0,0.0,0.0,0.0,0.0,0.0,0.0,0.0,0.0,0.0,0.0,0.0,0.0,0.0,0.0,0.0,0.0,0.0,0.0,0.0,0.0,0.0,0.0,0.0,0.0,0.0,0.0,0.0,0.0,0.0,0.0,0.0,0.0,0.0,0.0,0.0,0.0,0.0,0.0,0.0,0.0,0.0,0.0,0.0,0.0,0.0,0.0,0.0,0.0,0.0,0.0,0.0,0.0,0.0,0.0,0.0,0.0,0.0,6.5037,6.9391,7.3283,7.4861,7.3822,6.7744,6.2204,0.0,0.0,0.0,0.0,0.0,0.0,0.0,0.0,0.0,0.0,0.0,0.0,0.0,0.0,0.0,0.0,0.0,0.0,0.0,0.0,0.0,0.0,0.0,0.0,0.0,0.0,0.0,0.0,0.0,0.0,0.0,0.0,0.0,0.0,0.0,0.0,0.0,0.0,0.0,0.0,0.0,0.0,0.0,0.0,0.0,0.0,0.0,0.0,0.0,0.0,0.0,0.0,0.0,0.0,0.0,0.0,0.0,0.0,0.0,0.0,0.0,0.0,0.0,0.0,0.0,0.0,0.0,0.0,0.0,0.0,0.0,0.0,0.0,0.0,0.0,0.0,0.0,0.0,0.0,0.0,0.0,0.0,0.0,0.0,0.0,0.0,0.0,0.0,0.0,0.0,0.0,0.0,0.0,0.0,0.0,0.0,0.0,0.0,0.0,0.0,0.0,0.0,0.0,0.0,0.0,0.0,0.0,6.3297,6.8359,7.3707,7.613,7.7015,7.6322,7.1199,6.5833,6.0396,0.0,0.0,0.0,0.0,0.0,0.0,0.0,0.0,0.0,0.0,0.0,0.0,0.0,0.0,0.0,0.0,0.0,0.0,0.0,0.0,0.0,0.0,0.0,0.0,0.0,0.0,0.0,0.0,0.0,0.0,0.0,0.0,0.0,0.0,0.0,0.0,0.0,0.0,4.3653,4.4093,0.0,0.0,0.0,0.0,0.0,0.0,0.0,0.0,4.2461,0.0,0.0,0.0,0.0,0.0,0.0,0.0,0.0,0.0,0.0,0.0,0.0,0.0,0.0,0.0,0.0,0.0,0.0,0.0,0.0,0.0,0.0,0.0,0.0,0.0,0.0,0.0,0.0,0.0,0.0,0.0,0.0,0.0,0.0,0.0,0.0,0.0,0.0,0.0,0.0,0.0,0.0,0.0,0.0,0.0,0.0,0.0,0.0,0.0,0.0,0.0,0.0,0.0,0.0,0.0,0.0,6.2253,6.3988,6.8321,7.5361,7.6714,7.7561,7.7907,7.1776,6.6778,6.3241,0.0,0.0,0.0,0.0,0.0,0.0,0.0,0.0,0.0,0.0,0.0,0.0,0.0,0.0,0.0,0.0,0.0,0.0,0.0,0.0,0.0,0.0,0.0,0.0,0.0,0.0,0.0,0.0,0.0,0.0,0.0,0.0,0.0,0.0,0.0,0.0,0.0,0.0,0.0,4.6654,4.7049,0.0,0.0,0.0,0.0,0.0,0.0,0.0,0.0,4.28,0.0,0.0,0.0,0.0,0.0,0.0,0.0,0.0,0.0,0.0,0.0,0.0,0.0,0.0,0.0,0.0,0.0,0.0,0.0,0.0,0.0,0.0,0.0,0.0,0.0,0.0,0.0,0.0,0.0,0.0,0.0,0.0,0.0,0.0,0.0,0.0,0.0,0.0,0.0,0.0,0.0,0.0,0.0,0.0,0.0,0.0,0.0,0.0,0.0,0.0,0.0,0.0,0.0,0.0,0.0,6.3731,6.743,7.2052,7.7746,7.84,7.8554,7.833,7.1091,6.6112,0.0,0.0,0.0,0.0,0.0,0.0,0.0,0.0,0.0,0.0,0.0,0.0,0.0,0.0,0.0,0.0,0.0,0.0,0.0,0.0,0.0,0.0,0.0,0.0,0.0,0.0,0.0,0.0,0.0,0.0,0.0,0.0,0.0,0.0,0.0,0.0,0.0,0.0,0.0,0.0,4.6938,4.7269,4.6067,0.0,0.0,0.0,0.0,0.0,0.0,4.3525,4.3534,0.0,0.0,0.0,0.0,0.0,0.0,0.0,0.0,0.0,0.0,0.0,0.0,0.0,0.0,0.0,0.0,0.0,0.0,0.0,0.0,0.0,0.0,0.0,0.0,0.0,0.0,0.0,0.0,0.0,0.0,0.0,0.0,0.0,0.0,0.0,0.0,0.0,0.0,0.0,0.0,0.0,0.0,0.0,0.0,0.0,0.0,0.0,0.0,0.0,0.0,0.0,0.0,0.0,0.0,0.0,6.482,7.0199,7.52,7.9546,7.9623,7.9131,7.8138,7.0497,6.5441,0.0,0.0,0.0,0.0,0.0,0.0,0.0,0.0,0.0,0.0,0.0,0.0,0.0,0.0,0.0,0.0,0.0,0.0,0.0,0.0,0.0,0.0,0.0,0.0,0.0,0.0,0.0,0.0,0.0,0.0,0.0,0.0,0.0,0.0,0.0,0.0,0.0,0.0,0.0,0.0,0.0,4.7672,4.6544,4.7232,0.0,0.0,0.0,0.0,4.3938,4.525,0.0,0.0,0.0,0.0,0.0,0.0,0.0,0.0,0.0,0.0,0.0,0.0,0.0,0.0,0.0,0.0,0.0,0.0,0.0,0.0,0.0,0.0,0.0,0.0,0.0,0.0,0.0,0.0,0.0,0.0,0.0,0.0,0.0,0.0,0.0,0.0,0.0,0.0,0.0,0.0,0.0,0.0,0.0,0.0,0.0,0.0,0.0,0.0,0.0,0.0,0.0,0.0,0.0,0.0,0.0,0.0,6.559,6.936,7.4014,7.9431,7.9054,7.8253,7.7361,7.0961,6.5876,0.0,0.0,0.0,0.0,0.0,0.0,0.0,0.0,0.0,0.0,0.0,0.0,0.0,0.0,0.0,0.0,0.0,0.0,0.0,0.0,0.0,0.0,0.0,0.0,0.0,0.0,0.0,0.0,0.0,0.0,0.0,0.0,0.0,0.0,0.0,0.0,0.0,0.0,0.0,0.0,0.0,5.0582,4.8333,4.9361,4.9738,0.0,0.0,0.0,4.8656,5.0692,0.0,0.0,0.0,0.0,0.0,0.0,0.0,0.0,0.0,0.0,0.0,0.0,0.0,0.0,0.0,0.0,0.0,0.0,0.0,0.0,0.0,0.0,0.0,0.0,0.0,0.0,0.0,0.0,0.0,0.0,0.0,0.0,0.0,0.0,0.0,0.0,0.0,0.0,0.0,0.0,0.0,0.0,0.0,0.0,0.0,0.0,0.0,0.0,0.0,0.0,0.0,0.0,0.0,0.0,0.0,6.1461,6.6545,7.1321,7.5976,8.0285,7.9208,7.7962,7.6807,6.9045,6.3642,0.0,0.0,0.0,0.0,0.0,0.0,0.0,0.0,0.0,0.0,0.0,0.0,0.0,0.0,0.0,0.0,0.0,0.0,0.0,0.0,0.0,0.0,0.0,0.0,0.0,0.0,0.0,0.0,0.0,0.0,0.0,0.0,0.0,0.0,0.0,0.0,0.0,0.0,0.0,0.0,0.0,0.0,4.9224,5.0839,0.0,0.0,0.0,5.1059,5.0959,0.0,0.0,0.0,0.0,0.0,0.0,0.0,0.0,0.0,0.0,0.0,0.0,0.0,0.0,0.0,0.0,0.0,0.0,0.0,0.0,0.0,0.0,0.0,0.0,0.0,0.0,0.0,0.0,0.0,0.0,0.0,0.0,0.0,0.0,0.0,0.0,0.0,0.0,0.0,0.0,0.0,0.0,0.0,0.0,0.0,0.0,0.0,0.0,0.0,0.0,0.0,0.0,0.0,0.0,0.0,0.0,0.0,6.743,7.3091,7.763,8.09,7.9268,7.7615,7.5993,6.774,0.0,0.0,0.0,0.0,0.0,0.0,0.0,0.0,0.0,0.0,0.0,0.0,0.0,0.0,0.0,0.0,0.0,0.0,0.0,0.0,0.0,0.0,0.0,0.0,0.0,0.0,0.0,4.2675,0.0,0.0,0.0,0.0,0.0,0.0,0.0,0.0,0.0,0.0,0.0,0.0,0.0,0.0,5.1242,5.0849,5.2858,5.3875,0.0,0.0,5.4425,5.3639,5.3885,5.2858,0.0,0.0,0.0,0.0,0.0,0.0,0.0,0.0,0.0,0.0,0.0,0.0,0.0,0.0,0.0,0.0,0.0,0.0,0.0,0.0,0.0,0.0,0.0,0.0,0.0,0.0,0.0,0.0,0.0,0.0,0.0,0.0,0.0,0.0,0.0,0.0,0.0,0.0,0.0,0.0,0.0,0.0,0.0,0.0,0.0,0.0,0.0,0.0,0.0,0.0,0.0,0.0,0.0,0.0,0.0,6.8301,7.3399,7.7669,8.0892,7.89,7.6957,7.5212,6.8442,6.3227,0.0,0.0,0.0,0.0,0.0,0.0,0.0,0.0,0.0,0.0,0.0,0.0,0.0,0.0,0.0,0.0,0.0,0.0,0.0,0.0,0.0,0.0,0.0,0.0,0.0,0.0,0.0,0.0,0.0,0.0,0.0,0.0,0.0,0.0,0.0,0.0,0.0,0.0,0.0,0.0,0.0,5.3287,5.3995,5.6161,5.8143,0.0,0.0,5.8535,5.7703,6.0676,6.0101,5.0996,0.0,0.0,0.0,0.0,0.0,0.0,0.0,0.0,0.0,0.0,0.0,0.0,0.0,0.0,0.0,0.0,0.0,0.0,0.0,0.0,0.0,0.0,0.0,0.0,0.0,0.0,0.0,0.0,0.0,0.0,0.0,0.0,0.0,0.0,0.0,0.0,0.0,0.0,0.0,0.0,0.0,0.0,0.0,0.0,0.0,0.0,0.0,0.0,0.0,0.0,0.0,0.0,0.0,6.435,6.8042,7.3812,7.7938,8.0115,7.8606,7.6475,7.3951,6.8033,6.2969,0.0,0.0,0.0,0.0,0.0,0.0,0.0,0.0,0.0,0.0,0.0,0.0,0.0,0.0,0.0,0.0,0.0,0.0,0.0,0.0,0.0,0.0,0.0,0.0,0.0,0.0,0.0,0.0,4.2763,4.2763,4.2763,0.0,0.0,0.0,0.0,0.0,0.0,0.0,0.0,0.0,0.0,5.4766,5.7031,5.8988,0.0,0.0,5.982,5.9673,5.8866,5.8364,5.6528,5.1803,4.9738,0.0,0.0,0.0,0.0,0.0,0.0,0.0,0.0,0.0,0.0,0.0,0.0,0.0,0.0,0.0,0.0,0.0,0.0,0.0,0.0,0.0,0.0,0.0,0.0,0.0,0.0,0.0,0.0,0.0,0.0,0.0,0.0,0.0,0.0,0.0,0.0,0.0,0.0,0.0,0.0,0.0,0.0,0.0,0.0,0.0,0.0,0.0,0.0,0.0,0.0,0.0,0.0,6.4739,6.8141,7.3836,7.7773,7.9807,7.8122,7.5895,7.3176,6.7867,6.3028,0.0,0.0,0.0,0.0,0.0,0.0,0.0,0.0,0.0,0.0,0.0,0.0,0.0,0.0,0.0,0.0,0.0,0.0,0.0,0.0,0.0,0.0,0.0,0.0,0.0,0.0,0.0,0.0,4.3167,4.3122,4.3351,0.0,0.0,0.0,0.0,0.0,0.0,0.0,0.0,0.0,0.0,5.6455,5.9159,6.0933,6.163,6.0786,6.0713,6.0493,5.9673,5.7666,5.5133,5.2123,0.0,0.0,0.0,0.0,0.0,0.0,0.0,0.0,0.0,0.0,0.0,0.0,0.0,0.0,0.0,0.0,0.0,0.0,0.0,0.0,0.0,0.0,0.0,0.0,0.0,0.0,0.0,0.0,0.0,0.0,0.0,0.0,0.0,0.0,0.0,0.0,0.0,0.0,0.0,0.0,0.0,0.0,0.0,0.0,0.0,0.0,0.0,0.0,0.0,0.0,0.0,0.0,0.0,6.4603,6.8924,7.3341,7.7034,7.9857,7.7356,7.5146,7.3342,6.8132,6.3735,6.0382,0.0,0.0,0.0,0.0,0.0,0.0,0.0,0.0,0.0,0.0,0.0,0.0,0.0,0.0,0.0,0.0,0.0,0.0,0.0,0.0,0.0,0.0,0.0,0.0,0.0,0.0,4.5581,4.5104,4.4883,0.0,0.0,0.0,0.0,0.0,0.0,0.0,0.0,0.0,0.0,5.5427,5.851,6.0162,6.1728,6.2989,6.3723,6.2548,6.1239,6.0431,6.0211,5.8143,0.0,0.0,0.0,0.0,0.0,0.0,0.0,0.0,0.0,0.0,0.0,0.0,0.0,0.0,0.0,0.0,0.0,0.0,0.0,0.0,0.0,0.0,0.0,0.0,0.0,0.0,0.0,0.0,5.6521,0.0,0.0,0.0,0.0,0.0,0.0,0.0,0.0,0.0,0.0,0.0,5.9563,5.9857,0.0,0.0,0.0,0.0,0.0,0.0,0.0,0.0,0.0,0.0,0.0,0.0,6.5352,6.8056,7.3447,7.7061,7.855,7.6829,7.5106,7.3417,6.9165,6.4347,5.8951,0.0,0.0,0.0,0.0,0.0,0.0,0.0,0.0,0.0,0.0,0.0,0.0,0.0,0.0,0.0,0.0,0.0,0.0,0.0,0.0,0.0,0.0,0.0,0.0,0.0,4.4817,0.0,0.0,0.0,0.0,0.0,0.0,0.0,0.0,0.0,0.0,0.0,4.9811,5.3859,5.6455,5.8767,6.0896,6.2144,6.2536,0.0,0.0,0.0,0.0,0.0,0.0,0.0,0.0,0.0,0.0,0.0,0.0,0.0,0.0,5.8141,5.2322,5.1104,5.1024,5.1308,0.0,0.0,0.0,0.0,0.0,0.0,0.0,0.0,0.0,0.0,0.0,0.0,0.0,0.0,0.0,0.0,5.7997,0.0,0.0,0.0,0.0,0.0,0.0,0.0,0.0,6.0347,6.1835,6.3637,6.3673,6.3673,0.0,6.2609,6.1153,0.0,0.0,0.0,0.0,0.0,0.0,0.0,0.0,6.5765,6.8238,7.3348,7.6816,7.8186,7.6502,7.4896,7.3474,6.9205,6.4347,5.9024,5.5768,5.3445,0.0,0.0,0.0,0.0,0.0,0.0,0.0,0.0,0.0,0.0,0.0,0.0,0.0,0.0,0.0,0.0,0.0,0.0,0.0,0.0,0.0,0.0,0.0,4.603,0.0,0.0,0.0,0.0,0.0,0.0,0.0,0.0,0.0,5.0351,5.0757,5.2636,5.68,5.8264,5.9605,6.146,0.0,0.0,0.0,0.0,0.0,0.0,0.0,5.852,5.7993,5.8664,5.9257,5.929,6.18,6.3754,6.3596,0.0,0.0,5.6452,5.5385,5.5609,5.5901,5.6651,5.7637,5.908,6.0225,6.1413,0.0,0.0,0.0,0.0,0.0,0.0,0.0,0.0,5.8896,5.9893,0.0,5.8841,0.0,0.0,0.0,0.0,0.0,0.0,0.0,0.0,6.5025,6.6094,6.5711,6.5858,6.5709,6.5586,6.5588,6.5086,6.3946,5.7916,0.0,0.0,0.0,0.0,0.0,0.0,6.5944,6.9476,7.3119,7.6315,7.8883,7.6356,7.4478,7.3516,6.8274,6.3894,6.0676,5.8877,5.6895,5.4583,5.3654,0.0,0.0,0.0,0.0,0.0,0.0,0.0,0.0,0.0,0.0,0.0,0.0,0.0,0.0,0.0,0.0,0.0,0.0,0.0,0.0,4.7965,0.0,0.0,0.0,0.0,0.0,0.0,0.0,0.0,0.0,0.0,5.4356,5.5445,5.7464,6.0388,0.0,0.0,0.0,0.0,6.1863,6.1975,6.1993,6.1955,6.2018,6.2687,6.2467,6.0236,0.0,0.0,6.3623,6.5612,6.7022,6.6236,6.6861,6.6455,6.4071,6.272,6.2141,6.218,6.2048,6.2739,6.4885,6.5901,6.6788,6.9252,0.0,0.0,0.0,0.0,6.4233,6.4464,6.4613,6.4453,6.3527,6.2059,6.1006,0.0,0.0,0.0,0.0,0.0,0.0,6.6528,6.9085,7.1089,7.225,7.2687,7.385,7.3513,7.1787,7.0619,6.9337,6.7829,6.4336,6.1382,5.9048,0.0,0.0,0.0,0.0,6.7189,6.9963,7.3754,7.6427,7.7809,7.5912,7.3949,7.2041,6.8752,6.5778,6.3099,6.0334,5.7985,5.6187,5.4803,0.0,0.0,0.0,0.0,0.0,0.0,0.0,0.0,0.0,0.0,0.0,0.0,0.0,0.0,0.0,0.0,0.0,0.0,0.0,4.8005,4.8219,4.8347,0.0,0.0,0.0,0.0,0.0,0.0,0.0,0.0,0.0,6.0657,5.9568,5.9554,0.0,0.0,6.2067,6.3547,6.3189,6.3029,6.366,0.0,0.0,0.0,6.4476,6.4702,6.4917,6.706,6.913,7.0363,7.1191,7.1766,7.2042,7.1842,7.1383,7.0601,6.8103,6.6389,6.6581,6.792,6.925,7.0102,7.1703,7.3206,7.7142,7.2899,6.9252,6.8151,6.8862,6.8531,6.8678,6.9082,6.8274,6.7283,6.6085,6.4906,6.3906,6.3153,6.3253,0.0,0.0,0.0,7.0969,7.4021,7.5825,7.7148,7.8032,7.9041,7.8739,7.725,7.5648,7.4206,7.2876,7.0447,6.7813,6.4975,0.0,0.0,6.275,6.6421,6.9304,7.1434,7.4769,7.6897,7.7658,7.5875,7.3582,7.0917,6.9412,6.7517,6.5131,6.2548,6.0224,5.8315,5.6712,5.517,0.0,0.0,0.0,0.0,0.0,0.0,0.0,0.0,0.0,0.0,0.0,4.5303,0.0,0.0,0.0,0.0,4.7995,4.8607,4.8966,4.9193,0.0,0.0,0.0,0.0,0.0,0.0,0.0,5.6087,5.8615,6.1109,6.3329,6.274,6.2719,6.4494,6.4029,6.3869,6.4913,0.0,6.457,6.5416,6.5531,6.5725,6.6374,6.6748,6.7365,6.8403,7.0437,7.2199,7.3276,7.4007,7.4679,7.5104,7.4882,7.4518,7.4591,7.258,7.1068,7.135,7.2629,7.3829,7.4522,7.5938,7.6984,8.4199,8.35,7.5986,7.308,7.3266,7.2553,7.2302,7.2265,7.1503,7.1421,7.1793,7.014,7.0102,7.1334,7.0489,0.0,0.0,7.3711,7.5713,7.7678,7.9674,8.1116,8.2013,8.2039,8.2001,8.1926,8.0386,7.9225,7.8312,7.6051,7.4103,7.2419,6.8039,6.6075,6.6631,6.9578,7.1914,7.3515,7.5896,7.7422,7.7954,7.5984,7.3399,7.0293,7.0073,6.8862,6.6512,6.4824,6.2879,6.0407,5.8767,5.6859,5.4624,0.0,0.0,0.0,0.0,0.0,0.0,0.0,0.0,0.0,0.0,0.0,0.0,0.0,0.0,0.0,4.9685,0.0,5.0253,5.0685,0.0,0.0,0.0,5.4118,5.5102,5.7013,5.8511,5.9192,0.0,0.0,0.0,0.0,6.6333,6.7013,6.6416,6.5987,6.6288,6.6243,6.6454,6.7371,6.7448,6.7756,6.8513,6.9245,6.9906,7.0658,7.2327,7.3284,7.3484,7.4633,7.5755,7.6051,7.6057,7.5986,7.625,7.589,7.602,7.5887,7.5998,7.6515,7.7715,7.8215,7.833,9.1207,9.0372,8.7206,8.3926,8.0819,8.0481,8.072,8.1208,8.0377,7.9076,7.742,7.6399,7.5431,7.4671,7.5063,7.663,7.9038,7.9495,8.121,8.386,8.4438,8.4804,8.5051,8.5051,8.4744,8.4083,8.3058,8.2146,8.1265,8.0085,7.8637,7.6917,7.4905,7.2522,6.9985,7.1379,7.2927,7.4534,7.6324,7.6744,7.5749,7.5191,7.3656,7.1087,6.9802,6.8041,6.5655,6.4004,6.1985,5.96,5.7948,5.6565,5.5354,5.282,0.0,0.0,0.0,0.0,0.0,0.0,0.0,0.0,0.0,4.9065,4.9042,0.0,5.0618,0.0,5.1233,5.1547,5.1555,5.2266,0.0,0.0,5.6539,5.829,6.0105,6.1876,6.2804,6.2292,6.4052,6.5282,6.5282,6.6744,6.7685,6.7365,6.6518,6.6844,6.938,6.881,6.8621,7.0016,7.0317,7.0528,7.0663,7.0912,7.109,7.1335,7.222,7.2876,7.2914,7.3764,7.4718,7.5361,7.553,7.5746,7.6419,7.6346,7.6508,7.7052,7.7104,7.7092,7.7522,7.8061,7.8484,9.4926,9.4448,9.3542,9.164,8.9113,8.6827,8.6319,8.6984,8.5801,8.4488,8.3174,8.2271,8.1319,8.0421,8.086,8.2206,8.4101,8.4131,8.5244,8.7209,8.7248,8.7248,8.7248,8.7248,8.6824,8.6017,8.5132,8.4286,8.3385,8.1973,8.0767,7.9783,7.8219,7.6344,7.4349,7.4452,7.5025,7.5968,7.6481,7.6151,7.494,7.4206,7.2848,7.083,6.8862,6.688,6.4824,6.2805,6.0958,5.9269,5.7985,5.6785,5.5647,5.3749,5.214,0.0,0.0,0.0,0.0,0.0,0.0,0.0,0.0,0.0,0.0,0.0,5.3244,0.0,5.3646,0.0,5.4561,5.5311,5.6344,5.783,5.9538,6.1167,6.2708,6.4382,6.5229,6.4754,6.5843,6.654,6.6225,6.6912,6.7542,6.7446,6.6694,6.7087,6.9532,6.9645,6.9884,7.123,7.152,7.152,7.152,7.152,7.152,7.1559,7.2178,7.2677,7.2719,7.3412,7.4293,7.5186,7.5346,7.5595,7.652,7.6552,7.6604,7.6842,7.693,7.6989,7.7244,7.7676,7.7907,9.7163,9.7012,9.6936,9.6861,9.652,9.2254,9.0651,9.089,8.9388,8.8717,8.8677,8.7796,8.7265,8.7085,8.7085,8.744,8.8017,8.8055,8.8402,8.9026,8.9026,8.9026,8.9026,8.8902,8.841,8.7555,8.6612,8.5655,8.4724,8.2502,8.1398,8.1167,7.9291,7.8309,7.8272,7.7521,7.7185,7.7304,7.6644,7.5873,7.505,7.3487,7.1798,6.9963,6.7504,6.5351,6.3503,6.119,5.9563,5.8756,5.7997,5.6895,5.5537,5.4686,5.3689,0.0,5.1663,0.0,0.0,0.0,0.0,0.0,0.0,0.0,0.0,5.4931,5.6303,5.7159,5.6441,5.6539,5.8168,5.8884,5.9615,6.0433,6.2141,6.357,6.4417,6.5896,6.6824,6.6737,6.7288,6.7366,6.6727,6.6546,6.6851,6.746,6.7268,6.7475,6.8744,6.9583,7.0317,7.1381,7.1546,7.1625,7.1616,7.1563,7.1566,7.1635,7.2114,7.2591,7.2609,7.3187,7.4041,7.4952,7.507,7.5346,7.6418,7.6417,7.6178,7.605,7.5963,7.6117,7.6668,7.7022,7.683,10.0035,9.9393,9.8654,9.8385,9.8309,9.737,9.5959,9.4234,9.3113,9.2613,9.2623,9.2439,9.2292,9.2249,9.2249,9.1979,9.1518,9.1556,9.1248,9.0748,9.0748,9.071,9.0671,9.0017,8.9248,8.8385,8.7016,8.5588,8.4078,8.2423,8.1286,8.0571,7.9052,7.8309,0.0,0.0,0.0,0.0,7.7179,7.6665,7.5873,7.4294,7.2092,6.9192,6.6145,0.0,6.026,5.8425,5.7104,5.6319,5.55,0.0,0.0,0.0,0.0,0.0,0.0,0.0,0.0,0.0,0.0,0.0,5.7924,5.803,5.6401,5.6869,5.7585,5.8451,5.8798,5.9383,6.039,6.132,6.2174,6.3064,6.5277,6.7061,6.7872,6.8842,6.9221,6.853,6.7943,6.7596,6.746,6.7399,6.745,6.7746,6.8305,6.8806,6.9204,6.9402,7.0057,7.1523,7.1875,7.1914,7.1904,7.1875,7.1875,7.1943,7.1982,7.2148,7.2187,7.2265,7.2695,7.3633,7.3704,7.3984,7.4879,7.4882,7.4843,7.4701,7.4593,7.4591,7.5116,7.5753,7.5976,10.2712,0.0,10.1058,10.0673,0.0,9.9788,9.8768,9.7535,9.6136,9.5104,9.4335,9.4335,9.4104,9.3672,9.3672,9.3489,9.3095,9.2672,9.2249,9.1825,9.1402,9.1201,9.1163,9.074,9.0094,8.9269,8.7761,8.64,8.5051,8.2934,8.1417,8.0528,7.9122,7.8233,7.7811,7.745,7.7105,7.6702,7.6702,7.613,7.4918,7.334,7.1358,6.8935,0.0,0.0,0.0,0.0,0.0,0.0,0.0,0.0,0.0,0.0,0.0,5.5071,5.5418,5.5957,5.6813,5.8432,5.9574,5.9992,6.129,6.1412,5.987,5.9971,6.0427,6.1239,6.1317,6.1818,6.3067,6.3723,6.4399,6.5255,6.6502,6.7631,6.841,6.8953,6.9187,6.9112,6.841,6.7902,6.7945,6.7512,6.7292,6.7401,6.7756,6.8437,6.9257,6.9721,7.0461,7.1758,7.1992,7.1992,7.1992,7.1992,7.1992,7.1992,7.1992,7.1992,7.1992,7.1992,7.2265,7.3086,7.332,7.3594,7.4375,7.4525,7.4424,7.4308,7.4214,7.3977,7.3883,7.4409,7.4912,10.4751,10.3828,10.3135,10.2751,10.252,10.1096,10.026,9.976,0.0,0.0,0.0,9.522,9.4835,9.4172,9.4172,9.4057,9.3912,9.3403,9.2941,9.2479,9.1902,9.1479,9.1201,9.1201,9.0671,8.9645,8.8335,8.7163,8.6081,8.3326,8.1608,8.0807,7.9414,7.8352,7.7659,7.754,7.7075,7.6302,7.6315,7.5616,7.4147,7.2569,7.083,6.8958,6.5215,6.2352,6.0456,5.774,5.6143,5.5922,5.5296,5.5383,5.636,5.6557,5.6898,5.7462,5.8385,5.9291,6.0083,6.1498,6.2676,6.3475,6.4026,6.3865,6.2878,6.2797,6.3142,6.395,6.3567,6.3892,6.5451,6.5733,6.6094,6.6836,6.7031,6.7461,6.8086,6.8203,6.8476,6.8984,6.8398,6.8047,6.8125,6.7461,6.6992,6.7109,6.7305,6.7656,6.9101,7.0117,7.0937,7.1797,7.168,7.1523,7.1719,7.1523,7.1562,7.1406,7.1601,7.1758,7.1797,7.1875,7.2305,7.2851,7.3047,7.332,7.3945,7.4023,7.4101,7.3904,7.3893,7.3641,7.2888,7.3119,7.3636,10.5328,10.3866,10.3751,10.3289,10.2597,10.2366,10.1019,9.8942,9.7942,9.698,9.6134,9.6134,9.6057,9.5942,9.5942,9.5518,9.4874,9.548,9.4595,0.0,9.3095,9.2595,9.1201,9.1201,9.0402,8.8906,8.8077,8.6858,8.5162,8.2883,8.1669,8.1343,7.9915,7.9026,7.8889,7.8432,7.775,7.6983,7.7061,7.6702,7.5763,7.4184,7.1945,6.9009,6.6329,6.349,6.0529,5.9318,5.8223,5.7279,5.7124,5.7005,5.6945,5.7654,5.8411,5.9288,6.0533,6.1609,6.2534,6.3879,6.5031,6.5961,6.6155,6.5474,6.3812,6.3642,6.3989,6.481,6.4975,6.5411,6.631,6.6592,6.6719,6.6914,6.7539,6.8086,6.8164,6.8164,6.8242,6.8437,6.7617,6.7422,6.8008,6.7422,6.7148,6.7773,6.7851,6.832,6.9219,7.0195,7.1015,7.1562,7.0742,7.0273,7.0664,7.0234,7.0,6.9844,7.0469,7.0898,7.1015,7.1406,7.1875,7.2148,7.2109,7.2187,7.2422,7.2383,7.2461,7.2461,7.25,7.2344,7.2148,7.2305,7.2461,10.7059,10.5905,10.4943,10.4059,10.3251,10.2289,10.1019,9.9452,9.8596,9.748,9.6326,9.6288,9.6288,9.6288,9.6288,9.6095,9.5711,9.5634,9.472,9.321,9.3095,9.2402,9.1248,9.0701,9.0094,8.929,8.7723,8.6351,8.5031,8.3229,8.1891,8.0986,7.9764,7.9198,7.9175,7.8914,7.8616,7.8229,7.7618,7.6481,7.4845,7.4074,7.2386,6.9596,6.7476,6.552,6.3556,6.2156,6.0963,5.9966,6.0045,5.9929,5.9613,6.0898,6.1951,6.2612,6.4093,6.4923,6.4884,6.5506,6.6166,6.6741,6.7213,6.6933,6.5581,6.5461,6.5655,6.6044,6.6149,6.6355,6.6745,6.6834,6.6914,6.6914,6.7265,6.7695,6.8047,6.7734,6.7851,6.8594,6.7695,6.7226,6.8086,6.7422,6.6992,6.7461,6.7851,6.8359,6.8711,6.9101,6.9648,7.0351,6.9961,6.9687,6.9922,6.9726,6.9492,6.9492,6.9805,7.0234,7.0508,7.0781,7.0781,7.1172,7.0976,7.0859,7.1172,7.1289,7.1484,7.1953,7.1992,7.1992,7.1992,7.1992,7.207,10.8713,10.7829,10.6328,10.502,10.3751,10.2058,10.075,9.976,9.9096,9.7865,9.6442,9.6288,9.6288,9.6288,9.6288,9.6288,9.6172,9.5412,9.4527,9.3681,9.2864,9.2018,9.1171,9.0316,8.9816,8.9435,8.7562,8.6066,8.4975,8.3715,8.2194,8.0678,7.9941,7.9648,7.9648,7.9469,7.9403,7.9335,7.8325,7.6645,7.4478,7.4367,7.3198,7.0872,6.9369,6.8044,6.6854,6.5464,6.4212,6.3123,6.3214,6.3146,6.2862,6.4321,6.5394,6.5823,6.7164,6.7761,6.7168,6.6806,6.6817,6.7187,6.7617,6.7695,6.7265,6.6992,6.6914,6.6914,6.707,6.7148,6.6992,6.7109,6.7109,6.6953,6.7109,6.7422,6.7773,6.7305,6.7344,6.8515,6.7695,6.7187,6.7578,6.7305,6.6953,6.7031,6.75,6.7851,6.789,6.789,6.8203,6.8594,6.8828,6.8906,6.9062,6.8945,6.8828,6.8906,6.9062,6.9375,6.9805,6.9609,6.9687,7.0234,6.9961,6.9883,7.0312,7.043,7.0664,7.1094,7.1211,7.1367,7.1562,7.1875,7.1992,10.956,10.8713,10.7752,10.6097,10.3789,10.2058,10.0404,9.9058,9.8836,9.7865,9.6403,9.6288,9.6288,9.6288,9.6288,9.6288,9.6249,9.5403,9.4527,9.3672,9.2864,9.2056,9.1171,9.0316,8.9517,8.8786,8.7765,8.6415,8.487,8.3914,8.2646,8.1203,8.0973,8.0863,8.0838,8.0315,8.0046,7.9998,7.9369,7.8194,7.6563,7.6424,7.5257,7.2832,7.2537,7.1411,6.9297,6.9033,6.8135,6.6423,6.6411,6.6329,6.6121,6.6899,6.7478,6.7661,6.8525,6.9098,6.9062,6.7733,6.7265,6.793,6.75,6.7461,6.7969,6.7422,6.6914,6.707,6.7656,6.7695,6.707,6.7617,6.7773,6.7109,6.7578,6.7812,6.7187,6.6953,6.6992,6.707,6.707,6.6953,6.707,6.6992,6.6914,6.6914,6.7031,6.7187,6.7148,6.7148,6.7187,6.7226,6.7187,6.7539,6.8047,6.7617,6.7461,6.7344,6.7851,6.8359,6.8672,6.9062,6.9453,6.9375,6.9375,6.9336,6.9492,6.957,6.957,6.9922,7.0,6.9961,7.0664,7.1406,7.1797,10.9675,10.8829,10.8021,10.6213,10.3828,10.2058,10.0635,9.9567,9.9029,9.8134,9.7019,9.6519,9.6288,9.6288,9.6288,9.6288,9.6211,9.5403,9.4527,9.3672,9.2864,9.2018,9.1171,9.0316,8.9479,8.8679,8.7833,8.6286,8.4247,8.2793,8.1747,8.117,8.1093,8.1093,8.1077,8.0838,8.0669,8.0698,8.0445,7.9792,7.8683,7.7372,7.6042,7.4789,7.4043,7.3349,7.2474,7.2274,7.1608,7.042,7.0891,7.0494,6.891,7.0213,7.0558,6.9716,6.9873,7.0151,7.0195,6.9062,6.8515,6.8906,6.9062,6.914,6.9023,6.9531,6.9531,6.8555,6.8281,6.8047,6.7812,6.8437,6.8633,6.789,6.8008,6.789,6.6992,6.6914,6.6914,6.6914,6.6914,6.6914,6.6914,6.6914,6.6914,6.6914,6.6914,6.6914,6.6914,6.6914,6.6914,6.6914,6.6914,6.7031,6.7344,6.7187,6.6914,6.6953,6.7187,6.75,6.8086,6.789,6.8047,6.8594,6.8359,6.8359,6.8672,6.875,6.8789,6.9062,6.9414,6.9531,6.9883,7.0625,7.1133,10.9839,10.906,10.7636,10.5674,10.3405,10.1712,10.0481,9.9683,9.8827,9.7942,9.7134,9.6557,9.6288,9.6288,9.6288,9.6172,9.5865,9.5027,9.4181,9.3326,9.2518,9.1787,9.1133,9.0316,8.947,8.8671,8.7825,8.6094,8.3678,8.217,8.1323,8.1131,8.1093,8.1093,8.1108,8.1146,8.1181,8.1196,8.1235,8.1033,8.0334,7.8707,7.7279,7.6371,7.5406,7.4811,7.463,7.4509,7.4062,7.3256,7.3949,7.3443,7.1493,7.2574,7.2617,7.125,7.082,7.082,7.1015,7.0039,6.9531,6.9765,7.0195,7.0195,7.0078,7.0742,7.0781,6.9922,6.9219,6.8867,6.8672,6.9336,6.9336,6.8398,6.8359,6.8125,6.707,6.6914,6.6914,6.6914,6.6914,6.6914,6.6914,6.6914,6.6914,6.6914,6.6914,6.6914,6.6914,6.6914,6.6914,6.6914,6.6914,6.6914,6.6914,6.6914,6.6914,6.6914,6.6953,6.7187,6.7734,6.7187,6.6992,6.7734,6.7187,6.7109,6.7656,6.789,6.7969,6.8555,6.8906,6.8984,6.9062,6.9805,7.0234,11.0175,10.9598,10.6569,10.4289,10.252,10.0904,9.9683,9.8904,9.798,9.7134,9.648,9.6326,9.6288,9.6288,9.6288,9.5865,9.5066,9.422,9.3441,9.2633,9.1748,9.124,9.1133,9.0316,8.9479,8.8679,8.7825,8.6102,8.3678,8.2647,8.1862,8.1147,8.1116,8.1131,8.1168,8.1298,8.1389,8.1413,8.1543,8.1648,8.147,8.0624,7.9342,7.7933,7.6941,7.6089,7.5436,7.545,7.5159,7.4306,7.4558,7.418,7.332,7.3242,7.2851,7.1953,7.1172,7.1094,7.1562,7.0469,6.9922,7.043,7.0078,6.9883,7.0547,7.0273,7.0234,7.0586,7.0547,7.0234,6.9726,7.0234,6.9961,6.8594,6.8906,6.8515,6.707,6.6914,6.6914,6.6914,6.6914,6.6914,6.6914,6.6914,6.6914,6.6914,6.6914,6.6914,6.6914,6.6914,6.6914,6.6914,6.6914,6.6914,6.6914,6.6914,6.6914,6.6914,6.6914,6.6914,6.6914,6.6914,6.6953,6.6992,6.6953,6.6914,6.6953,6.6992,6.7109,6.75,6.7969,6.8164,6.8203,6.8984,6.9414,10.9213,10.7559,10.529,10.3635,10.2443,10.0798,9.9606,9.8711,9.7904,9.7057,9.6403,9.6288,9.6288,9.6288,9.6288,9.6134,9.5711,9.4364,9.3518,9.3133,9.1864,9.1201,9.1095,9.0316,8.9479,8.8679,8.7786,8.6102,8.371,8.234,8.1581,8.1395,8.1408,8.1496,8.1517,8.1553,8.16,8.1609,8.1652,8.1782,8.1803,8.1067,8.0326,7.9841,7.8423,7.7287,7.6525,7.6585,7.6475,7.6163,7.6211,7.5859,7.4961,7.3906,7.293,7.2109,7.1719,7.168,7.1875,7.1445,7.1211,7.1445,7.125,7.1094,7.1406,7.125,7.1211,7.1445,7.1523,7.1367,7.125,7.1367,7.0859,6.9453,6.9258,6.875,6.7383,6.6914,6.6914,6.6914,6.6914,6.6914,6.6914,6.6914,6.6914,6.6914,6.6914,6.6914,6.6914,6.6914,6.6914,6.6914,6.6914,6.6914,6.6914,6.6914,6.6914,6.6914,6.6914,6.6875,6.6875,6.6875,6.6953,6.6953,6.6914,6.6914,6.6914,6.6914,6.6914,6.6992,6.7422,6.75,6.7383,6.8164,6.8555,10.8136,10.5597,10.4366,10.3212,10.202,10.0375,9.9336,9.8673,9.7596,9.6826,9.6365,9.6288,9.6288,9.6288,9.6288,9.6288,9.6095,9.448,9.3557,9.3172,9.1556,9.0778,9.0624,8.9893,8.9056,8.8282,8.7479,8.5805,8.3598,8.2654,8.2055,8.1571,8.1658,8.1684,8.1692,8.1782,8.1812,8.178,8.1864,8.1976,8.199,8.1526,8.1154,8.0858,7.9752,7.8617,7.7695,7.7617,7.7461,7.7265,7.7226,7.6797,7.5898,7.4531,7.332,7.2539,7.2422,7.2265,7.2031,7.1992,7.1992,7.1992,7.1992,7.1992,7.1992,7.1992,7.1992,7.1992,7.1992,7.1992,7.1992,7.1992,7.1289,6.9805,6.9258,6.8515,6.7148,6.6914,6.6914,6.6914,6.6914,6.6914,6.6914,6.6914,6.6914,6.6914,6.6914,6.6914,6.6914,6.6914,6.6914,6.6914,6.6914,6.6914,6.6914,6.6914,6.6523,6.6484,6.6836,6.6836,6.668,6.6758,6.6914,6.6914,6.6914,6.6914,6.6914,6.6914,6.6914,6.6914,6.6992,6.7148,6.7187,6.7383,6.7734,10.6944,10.4212,10.3866,10.2828,10.1173,9.9596,9.8827,9.8442,9.7019,9.6365,9.6288,9.6288,9.6288,9.6288,9.6172,9.6211,9.5865,9.438,9.3293,9.2604,9.0855,9.0035,8.9992,8.9132,8.8287,8.7471,8.6801,8.5342,8.3399,8.3601,8.3124,8.1999,8.1799,8.176,8.171,8.1904,8.1992,8.2046,8.2171,8.2265,8.2304,8.2187,8.1797,8.1172,8.0937,8.0117,7.8594,7.8476,7.8047,7.7305,7.7226,7.6797,7.5937,7.5078,7.4219,7.3476,7.332,7.289,7.2187,7.2148,7.2305,7.2148,7.207,7.2148,7.2187,7.207,7.1992,7.1992,7.1992,7.1992,7.1992,7.1914,7.125,6.9687,6.8945,6.8125,6.7265,6.6953,6.6914,6.6914,6.6953,6.6914,6.6914,6.6914,6.6914,6.6914,6.6914,6.6914,6.6914,6.6914,6.6914,6.6914,6.6914,6.6914,6.6914,6.6836,6.6328,6.6015,6.6562,6.6797,6.6406,6.6328,6.6797,6.6914,6.6914,6.6914,6.6914,6.6914,6.6914,6.6914,6.6914,6.6914,6.7031,6.7148,6.707,10.5905,10.3905,10.3251,10.202,10.0442,9.925,9.8481,9.7827,9.6749,9.6288,9.6288,9.6288,9.6288,9.6134,9.5711,9.5412,9.5277,9.3846,9.316,9.2896,9.0958,8.9962,8.9861,8.8706,8.7642,8.6943,8.6156,8.5503,8.47,8.3993,8.3223,8.2809,8.2326,8.2116,8.2109,8.2174,8.2219,8.222,8.2264,8.2304,8.2304,8.2304,8.2148,8.1953,8.1875,8.1094,7.9453,7.8789,7.8086,7.7265,7.7187,7.6797,7.6055,7.5664,7.5078,7.4336,7.4219,7.3828,7.3125,7.3398,7.3476,7.3047,7.289,7.289,7.2812,7.2344,7.2031,7.1992,7.1992,7.1992,7.1914,7.1406,7.0937,7.0351,6.9531,6.8633,6.7812,6.7695,6.75,6.707,6.7422,6.75,6.707,6.6914,6.6914,6.6914,6.6914,6.6914,6.6914,6.6914,6.6914,6.6914,6.6914,6.6914,6.6914,6.6797,6.6445,6.6094,6.6406,6.6562,6.6172,6.625,6.668,6.6914,6.6914,6.6914,6.6914,6.6914,6.6914,6.6914,6.6914,6.6914,6.6914,6.6914,6.6914,10.5251,10.3405,10.2828,10.1827,10.0442,9.9327,9.8481,9.7827,9.6788,9.6288,9.6288,9.6288,9.6118,9.5855,9.5349,9.4983,9.4665,9.3497,9.3168,9.3055,9.0861,8.9798,8.9692,8.8157,8.7021,8.6505,8.6189,8.5798,8.5268,8.4668,8.4071,8.3415,8.3004,8.2578,8.2344,8.2304,8.2304,8.2304,8.2304,8.2304,8.2304,8.2304,8.2304,8.2304,8.2304,8.1406,7.9844,7.918,7.8398,7.7461,7.7226,7.6914,7.6445,7.6367,7.5976,7.5312,7.5039,7.4687,7.3984,7.4219,7.4414,7.3906,7.3789,7.3594,7.332,7.2734,7.2422,7.207,7.1992,7.1992,7.1914,7.1562,7.1211,7.1172,6.9765,6.8711,6.793,6.7734,6.75,6.7109,6.7344,6.7344,6.707,6.6914,6.6914,6.6914,6.6914,6.6914,6.6914,6.6914,6.6914,6.6914,6.6914,6.6914,6.6914,6.6719,6.6523,6.6367,6.6367,6.6211,6.5937,6.6406,6.6914,6.6914,6.6914,6.6914,6.6914,6.6914,6.6914,6.6914,6.6914,6.6914,6.6914,6.6914,6.6914,10.4828,10.2712,10.252,10.1866,10.0827,9.9404,9.8634,9.8298,9.7006,9.634,9.6322,9.6245,9.5948,9.543,9.5085,9.4684,9.4227,9.3462,9.3008,9.2489,9.076,8.9586,8.9056,8.7725,8.6776,8.632,8.6722,8.6371,8.5469,8.5703,8.539,8.4062,8.3672,8.3203,8.2617,8.2383,8.2304,8.2304,8.2304,8.2304,8.2304,8.2304,8.2304,8.2304,8.2265,8.1523,8.0156,7.957,7.875,7.7461,7.7226,7.7148,7.7187,7.7187,7.6719,7.6015,7.5976,7.5508,7.4883,7.4922,7.4883,7.4726,7.4648,7.4297,7.3633,7.3281,7.2812,7.2109,7.1992,7.1992,7.1992,7.1914,7.1875,7.1601,7.0,6.8437,6.7226,6.7187,6.7383,6.7187,6.6992,6.6953,6.6953,6.6914,6.6914,6.6914,6.6914,6.6914,6.6914,6.6914,6.6914,6.6914,6.6914,6.6914,6.6914,6.6875,6.664,6.6601,6.6484,6.6211,6.5976,6.6484,6.6875,6.6914,6.6914,6.6914,6.6914,6.6914,6.6914,6.6914,6.6914,6.6914,6.6914,6.6914,6.6953,10.3789,10.2558,10.1933,10.0789,9.9519,9.8942,9.8067,9.7036,9.6706,9.6475,9.6411,9.6062,9.5705,9.5488,9.4289,9.3634,9.3389,9.2812,9.2474,9.2298,9.1399,8.9901,8.8737,8.7812,8.7265,8.7148,8.7383,8.7185,8.6797,8.6484,8.5976,8.5469,8.4179,8.3515,8.3203,8.2578,8.2344,8.2304,8.2304,8.2304,8.2304,8.2304,8.2304,8.2304,8.2304,8.1719,8.0625,7.9453,7.8359,7.7344,7.7226,7.7226,7.7305,7.7305,7.7187,7.6953,7.6836,7.6484,7.5898,7.6094,7.6172,7.5625,7.5547,7.5156,7.4336,7.3672,7.293,7.2226,7.1992,7.1992,7.1992,7.1992,7.1719,7.1094,7.0351,6.9414,6.832,6.8398,6.8594,6.8008,6.789,6.7578,6.7148,6.6992,6.6953,6.6914,6.6914,6.6914,6.6914,6.6914,6.6914,6.6914,6.6914,6.6914,6.6914,6.6914,6.6836,6.6797,6.664,6.6406,6.6289,6.6406,6.6719,6.6914,6.6914,6.6914,6.6914,6.6914,6.6914,6.6914,6.6914,6.6914,6.6914,6.6914,6.6992,10.2981,10.152,10.1019,10.0019,9.8826,9.8536,9.7851,9.6968,9.641,9.6219,9.6066,9.5486,9.5032,9.4679,9.3752,9.3176,9.293,9.2527,9.2391,9.2163,9.1207,9.0111,8.9204,8.8672,8.8554,8.8554,8.8515,8.832,8.7969,8.7461,8.6719,8.5586,8.4648,8.3828,8.2969,8.2617,8.2304,8.2304,8.2304,8.2304,8.2304,8.2304,8.2304,8.2304,8.2304,8.1875,8.0937,7.9687,7.8594,7.7969,7.7773,7.789,7.8242,7.8242,7.8086,7.7812,7.7734,7.7344,7.6719,7.6953,7.6914,7.6484,7.6316,7.5652,7.4687,7.3932,7.3309,7.2187,7.2031,7.1992,7.1992,7.1992,7.1562,7.0937,7.0933,7.0424,6.8867,6.9023,6.914,6.8865,6.8629,6.8315,6.7578,6.7461,6.7226,6.7031,6.6914,6.6914,6.6914,6.6914,6.6914,6.6914,6.6914,6.6914,6.6914,6.6914,6.6914,6.6875,6.6992,6.6758,6.6562,6.6523,6.668,6.6914,6.6914,6.6914,6.6914,6.6914,6.6914,6.6914,6.6914,6.6914,6.6953,6.7226,6.7265,10.2327,10.0106,10.0124,9.9556,9.8694,9.8168,9.7869,9.751,9.6385,9.5833,9.5616,9.4764,9.4205,9.3556,9.3441,9.3092,9.2617,9.2578,9.2578,9.2187,9.1328,9.0429,9.039,8.9609,8.9453,8.9492,8.9844,8.9375,8.8711,8.8554,8.7344,8.5742,8.5,8.4023,8.2969,8.2422,8.2304,8.2304,8.2304,8.2304,8.2304,8.2304,8.2304,8.2304,8.2304,8.1875,8.1054,8.0195,7.9531,7.8789,7.8672,7.8906,7.9531,7.9648,7.9336,7.8789,7.8594,7.8242,7.7461,7.7344,7.7174,7.685,7.6786,7.6201,7.4909,7.4402,7.381,7.2338,7.2108,7.2109,7.1953,7.1953,7.164,7.108,7.1357,7.0937,7.0022,6.9454,6.9402,6.9527,6.9383,6.892,6.8555,6.8203,6.7969,6.7851,6.75,6.707,6.707,6.7031,6.6992,6.6914,6.6914,6.6914,6.6914,6.6914,6.6914,6.6914,6.7226,6.7187,6.6836,6.6797,6.6836,6.6914,6.6914,6.6914,6.6914,6.6914,6.6914,6.6914,6.6914,6.6992,6.7109,6.7617,6.7812,10.1789,10.0135,10.0259,9.9468,9.8259,9.8184,9.7813,9.7144,9.6391,9.5995,9.5707,9.4604,9.3945,9.3711,9.3125,9.2694,9.2617,9.2578,9.2578,9.2539,9.2344,9.2031,9.1523,9.0117,8.914,8.9297,8.9765,8.957,8.8984,8.8711,8.7773,8.6133,8.5156,8.4375,8.3398,8.2578,8.2304,8.2304,8.2304,8.2304,8.2304,8.2304,8.2304,8.2304,8.2304,8.1875,8.1172,8.082,8.0664,8.0351,7.9883,7.9687,7.9844,7.9883,7.9726,7.9531,7.9414,7.9019,7.8211,7.7881,7.7575,7.6864,7.6641,7.6213,7.5272,7.5035,7.4291,7.3174,7.2767,7.2532,7.2067,7.1834,7.1771,7.1635,7.1575,7.1549,7.1065,7.0425,7.0123,7.0127,6.9712,6.9179,6.914,6.8633,6.8515,6.8594,6.8164,6.7461,6.7344,6.7383,6.7305,6.7305,6.7187,6.7226,6.7265,6.7383,6.7578,6.7578,6.7773,6.7851,6.7539,6.7187,6.7305,6.7148,6.6914,6.6914,6.6992,6.707,6.7109,6.6992,6.7031,6.7383,6.7734,6.8125,6.8633,10.159,9.9741,9.9939,9.9032,9.7687,9.7732,9.7631,9.7123,9.6539,9.6067,9.5488,9.4373,9.3711,9.3281,9.2812,9.2617,9.2578,9.2578,9.2578,9.25,9.2187,9.1719,9.1406,9.0664,9.0078,9.0469,9.1015,9.0703,9.0078,8.9375,8.8515,8.6797,8.5547,8.4492,8.3594,8.2812,8.2344,8.2304,8.2304,8.2304,8.2304,8.2304,8.2304,8.2304,8.2304,8.2031,8.1679,8.1601,8.1601,8.1484,8.1172,8.0898,8.0898,8.0898,8.0664,8.0259,8.0177,7.9676,7.8899,7.8228,7.7741,7.7105,7.6733,7.5991,7.5404,7.5166,7.4655,7.3814,7.3431,7.3238,7.2849,7.2812,7.2717,7.2701,7.2551,7.2539,7.2302,7.1448,7.0763,7.092,7.0669,7.03,6.9922,6.9414,6.914,6.9297,6.9101,6.8476,6.8515,6.8476,6.8047,6.789,6.7695,6.7617,6.7695,6.793,6.8398,6.8476,6.8672,6.8711,6.8555,6.8203,6.789,6.7617,6.7344,6.7109,6.7187,6.7226,6.75,6.7617,6.7812,6.8086,6.8515,6.914,6.9609,10.1352,9.9286,9.941,9.8506,9.722,9.738,9.7474,9.7369,9.6791,9.6015,9.5156,9.4258,9.3476,9.2773,9.2617,9.2578,9.2578,9.2578,9.2578,9.25,9.2031,9.1523,9.1094,9.1289,9.164,9.2539,9.2383,9.1914,9.1094,9.0351,8.8945,8.7461,8.5937,8.4687,8.3672,8.3125,8.2773,8.2695,8.2656,8.2617,8.2539,8.2461,8.2304,8.2304,8.2304,8.2226,8.2109,8.2109,8.2148,8.222,8.2219,8.2219,8.222,8.2184,8.1898,8.0881,8.087,8.0332,7.9419,7.8694,7.8184,7.7798,7.6951,7.6249,7.5662,7.5332,7.4881,7.4425,7.402,7.3883,7.3959,7.3717,7.3737,7.3739,7.3698,7.3684,7.3391,7.228,7.1659,7.17,7.137,7.0984,7.082,7.0508,7.0234,6.9922,6.9726,6.957,6.9609,6.9375,6.8906,6.8437,6.8164,6.793,6.7969,6.8555,6.8984,6.9258,6.9453,6.9453,6.9375,6.8945,6.8476,6.8125,6.7851,6.7773,6.7851,6.8125,6.832,6.8359,6.8515,6.8789,6.9414,7.0195,7.0547,10.0522,9.9497,9.8974,9.8188,9.7436,9.7559,9.7617,9.7498,9.6875,9.6015,9.5156,9.4297,9.3476,9.2773,9.2578,9.2578,9.2578,9.2578,9.2578,9.2578,9.2304,9.2031,9.1875,9.2031,9.2344,9.2539,9.25,9.2031,9.1367,9.039,8.9219,8.7656,8.6445,8.5195,8.4336,8.4023,8.3906,8.3437,8.3359,8.3359,8.3125,8.2656,8.2304,8.2265,8.2265,8.2187,8.2065,8.201,8.1978,8.1798,8.178,8.1786,8.1855,8.1969,8.179,8.1543,8.1417,8.0897,8.0061,7.9731,7.9189,7.8454,7.7614,7.7183,7.6784,7.6251,7.5581,7.4939,7.4394,7.4027,7.3772,7.3984,7.379,7.367,7.3781,7.3715,7.3516,7.2804,7.2242,7.2457,7.2011,7.1523,7.1367,7.125,7.1015,7.0703,7.043,7.039,7.0508,7.0117,6.9531,6.9062,6.8594,6.8359,6.8164,6.8984,6.9609,6.9883,7.0078,7.0156,6.9961,6.9531,6.9101,6.914,6.9023,6.8945,6.9062,6.9023,6.914,6.9258,6.9375,6.9492,7.0195,7.0898,7.1211,10.0253,9.9062,9.8848,9.8297,9.7639,9.7656,9.7695,9.7656,9.7265,9.6406,9.539,9.4687,9.3828,9.289,9.2578,9.2578,9.2578,9.2578,9.2578,9.2578,9.2578,9.2304,9.2148,9.2344,9.1914,9.1601,9.1523,9.1945,9.1797,9.0586,8.9531,8.8633,8.7148,8.5742,8.5078,8.4844,8.4726,8.4297,8.4258,8.4023,8.3554,8.2734,8.2344,8.2171,8.2124,8.2049,8.1886,8.1852,8.1819,8.171,8.1688,8.1662,8.1618,8.1623,8.1627,8.1568,8.1539,8.1303,8.0609,8.0252,7.9661,7.9191,7.84,7.7984,7.7715,7.7129,7.6377,7.5678,7.5341,7.5005,7.4964,7.4816,7.4834,7.484,7.4745,7.4707,7.4476,7.3553,7.3231,7.3063,7.2267,7.1788,7.168,7.164,7.168,7.1445,7.1133,7.1172,7.125,7.0898,7.0351,6.9844,6.9453,6.9336,6.918,6.9687,7.0312,7.0547,7.0703,7.082,7.0859,7.0547,7.0625,7.082,7.0625,7.0078,6.9726,6.957,6.9844,7.0117,7.0156,7.0351,7.0976,7.1523,7.1875,9.9935,9.8691,9.8705,9.832,9.7734,9.7695,9.7695,9.7656,9.75,9.6562,9.5312,9.4883,9.4023,9.2929,9.2578,9.2578,9.2578,9.2578,9.2578,9.2578,9.2578,9.2187,9.1992,9.1951,9.1953,9.1211,9.0832,9.1271,9.1277,9.0234,8.9726,8.8906,8.7265,8.6328,8.6015,8.5703,8.5312,8.5112,8.5027,8.4556,8.3542,8.2836,8.2273,8.1969,8.1955,8.1852,8.1683,8.1658,8.1609,8.1558,8.1524,8.1512,8.1359,8.1349,8.1349,8.1349,8.1349,8.1256,8.099,8.0577,8.0177,8.0015,7.9246,7.89,7.8561,7.8023,7.7184,7.6484,7.6243,7.6048,7.5849,7.5921,7.5914,7.5868,7.5861,7.5861,7.5438,7.4728,7.3958,7.3386,7.25,7.2029,7.1867,7.1719,7.1719,7.1758,7.1445,7.1562,7.168,7.1758,7.1289,7.0781,7.0469,7.043,7.043,7.0586,7.1055,7.1367,7.1445,7.1523,7.168,7.1719,7.1797,7.1601,7.1406,7.0898,7.0469,7.0312,7.0742,7.0976,7.0976,7.1289,7.1953,7.2344,7.2656,9.9139,9.8867,9.8164,9.7773,9.7695,9.7695,9.7695,9.7617,9.6992,9.6094,9.5156,9.4414,9.3594,9.2773,9.2578,9.2578,9.2578,9.2578,9.2578,9.2578,9.2578,9.25,9.2344,9.2226,9.2053,9.1362,9.0889,9.0411,9.0059,8.9144,8.8685,8.8383,8.7773,8.6992,8.6328,8.6406,8.6421,8.5816,8.5492,8.4646,8.3406,8.2945,8.2422,8.1923,8.1703,8.1658,8.1475,8.1414,8.1371,8.1228,8.1172,8.1152,8.1162,8.1123,8.1123,8.1123,8.1123,8.1108,8.1062,8.09,8.0785,8.0631,8.0092,7.9738,7.9323,7.8823,7.8023,7.7253,7.7099,7.6784,7.6284,7.6015,7.6015,7.5976,7.5976,7.5976,7.5784,7.513,7.4438,7.4082,7.3275,7.2472,7.2001,7.1848,7.1719,7.1797,7.1875,7.2031,7.1992,7.1992,7.1914,7.1328,7.1055,7.1055,7.1094,7.1328,7.1562,7.1953,7.1992,7.1992,7.1992,7.1992,7.1992,7.1836,7.1719,7.168,7.1367,7.1367,7.1719,7.168,7.1523,7.2109,7.2969,7.3242,7.3281,9.8242,9.8242,9.7851,9.7695,9.7695,9.7695,9.7695,9.7539,9.6836,9.6015,9.5156,9.4297,9.3437,9.2734,9.2578,9.2578,9.2578,9.2578,9.2578,9.2578,9.2578,9.2535,9.2344,9.2198,9.2001,9.1311,9.0615,8.9603,8.8892,8.846,8.8235,8.8092,8.752,8.6953,8.6517,8.6794,8.6679,8.6143,8.5385,8.4443,8.3622,8.2792,8.2042,8.1568,8.1563,8.1403,8.1266,8.1228,8.121,8.11,8.1093,8.1093,8.1093,8.1093,8.11,8.11,8.11,8.11,8.1093,8.1093,8.1093,8.1054,8.0708,8.0362,7.99,7.9477,7.8861,7.8061,7.7522,7.7138,7.6707,7.6245,7.6053,7.6015,7.613,7.6015,7.5822,7.5161,7.4581,7.4361,7.4146,7.3451,7.2958,7.3107,7.2934,7.2595,7.2734,7.293,7.2539,7.1992,7.1875,7.168,7.1562,7.1562,7.1601,7.168,7.1719,7.1992,7.1992,7.1992,7.1992,7.1992,7.2148,7.2109,7.1953,7.1953,7.207,7.2031,7.2031,7.2031,7.1992,7.2578,7.3164,7.3398,7.3711,9.7695,9.7695,9.7695,9.7695,9.7695,9.7695,9.7695,9.7578,9.6562,9.5781,9.5039,9.4101,9.3164,9.2734,9.2578,9.2578,9.2578,9.2578,9.2578,9.2578,9.2496,9.2396,9.2223,9.205,9.1619,9.0762,9.0088,8.926,8.8417,8.7706,8.75,8.7671,8.7156,8.6849,8.6778,8.6683,8.6545,8.6006,8.5064,8.4355,8.3788,8.2596,8.1979,8.163,8.1453,8.1276,8.1108,8.1108,8.1108,8.1093,8.1093,8.1093,8.1093,8.1093,8.1093,8.1093,8.1093,8.1093,8.1093,8.1093,8.1093,8.1093,8.1054,8.0746,8.0315,8.0092,7.9746,7.89,7.8477,7.8015,7.7515,7.7015,7.6784,7.6592,7.6438,7.6207,7.5976,7.5476,7.5161,7.512,7.4949,7.4658,7.439,7.461,7.4326,7.3599,7.3594,7.3789,7.3281,7.2539,7.2265,7.2226,7.1914,7.1914,7.1875,7.1914,7.1992,7.2148,7.2148,7.2265,7.2422,7.2539,7.2695,7.2578,7.2461,7.2812,7.3242,7.2773,7.2265,7.2265,7.2344,7.2734,7.3164,7.3515,7.4375,9.7695,9.7695,9.7695,9.7656,9.7656,9.7695,9.7695,9.7344,9.5937,9.5273,9.4765,9.3554,9.2734,9.2617,9.2578,9.2578,9.2578,9.2578,9.2578,9.25,9.2352,9.2196,9.1943,9.1624,9.1351,9.085,8.9817,8.8944,8.8301,8.7164,8.6774,8.657,8.6754,8.679,8.6715,8.6522,8.6126,8.5622,8.4932,8.444,8.377,8.2837,8.2246,8.2023,8.1539,8.1116,8.1093,8.1093,8.1093,8.1093,8.1093,8.1093,8.1093,8.1093,8.1093,8.1093,8.1093,8.1093,8.1093,8.1093,8.1093,8.1093,8.1093,8.1054,8.0785,8.09,8.0554,7.9777,7.9354,7.9015,7.8631,7.8253,7.7676,7.7323,7.6976,7.6669,7.6399,7.5976,7.5745,7.5861,7.5668,7.5284,7.5288,7.5428,7.4951,7.4223,7.3879,7.4062,7.414,7.3555,7.3164,7.289,7.2383,7.2187,7.207,7.2226,7.2656,7.2773,7.2773,7.293,7.3164,7.3281,7.3398,7.3633,7.3711,7.4062,7.4297,7.3867,7.3398,7.2812,7.2812,7.3437,7.4219,7.4883,7.5742,9.7695,9.7695,9.7695,9.7422,9.6992,9.75,9.7109,9.6172,9.5469,9.4531,9.3594,9.289,9.2578,9.2578,9.2578,9.2578,9.2578,9.2578,9.2578,9.25,9.2348,9.1832,9.1405,9.0879,9.0414,8.9856,8.8939,8.8333,8.7765,8.7094,8.7075,8.6993,8.6751,8.6401,8.6307,8.636,8.5969,8.5597,8.5124,8.4662,8.4286,8.3016,8.2324,8.2247,8.1516,8.1131,8.1093,8.1093,8.1093,8.1093,8.1093,8.1093,8.1093,8.1093,8.1093,8.1093,8.1093,8.1093,8.1093,8.1093,8.1093,8.1093,8.1093,8.1093,8.1093,8.1093,8.0977,8.0554,8.0085,7.9669,7.9438,7.883,7.8253,7.7984,7.7669,7.7284,7.6899,7.6553,7.6361,7.6476,7.6169,7.5822,7.59,7.6055,7.5487,7.4819,7.4558,7.4388,7.4527,7.4418,7.3922,7.3535,7.3068,7.2772,7.2662,7.2984,7.3382,7.3398,7.3359,7.3672,7.3945,7.4062,7.4219,7.457,7.4726,7.4805,7.4844,7.4883,7.4492,7.3789,7.3906,7.4531,7.5312,7.6055,7.6797,9.7695,9.7695,9.7695,9.7383,9.6953,9.7226,9.6679,9.5625,9.5,9.4023,9.2617,9.2578,9.2537,9.2495,9.2461,9.2422,9.2383,9.2422,9.2461,9.2391,9.2132,9.1519,9.0819,9.0247,8.9795,8.8867,8.8333,8.7902,8.7517,8.744,8.735,8.7204,8.7094,8.6951,8.6489,8.6209,8.6017,8.5632,8.5277,8.4893,8.4624,8.3555,8.2747,8.2631,8.1977,8.1362,8.1208,8.1093,8.1093,8.1093,8.1093,8.1093,8.1093,8.1093,8.1093,8.1093,8.1093,8.1093,8.1093,8.1093,8.1093,8.1093,8.1093,8.1093,8.1093,8.1093,8.1016,8.1016,8.0516,8.0162,8.0131,7.9785,7.9246,7.9015,7.8669,7.8323,7.7784,7.7407,7.7169,7.7053,7.6746,7.6476,7.6342,7.6469,7.6134,7.5673,7.5584,7.5429,7.5465,7.5156,7.4476,7.4125,7.3808,7.3573,7.3415,7.3631,7.3817,7.3867,7.3984,7.4453,7.4726,7.4883,7.5234,7.5742,7.5781,7.5469,7.5586,7.5898,7.539,7.4648,7.5,7.5351,7.6015,7.6719,7.7226,9.7695,9.7695,9.7695,9.7656,9.75,9.6836,9.6445,9.5859,9.457,9.3398,9.2617,9.2578,9.2404,9.228,9.2221,9.2136,9.209,9.2196,9.2239,9.2219,9.2042,9.1377,9.0667,9.0029,8.9319,8.8628,8.8171,8.7786,8.7401,8.7594,8.7555,8.7863,8.8171,8.8017,8.7363,8.6517,8.5747,8.5093,8.5047,8.5008,8.47,8.3978,8.3632,8.3178,8.2708,8.2054,8.1477,8.1362,8.1285,8.1131,8.1093,8.1093,8.1093,8.1093,8.1093,8.1093,8.1093,8.1093,8.1093,8.1093,8.1093,8.1093,8.1093,8.1093,8.1093,8.1093,8.1093,8.1054,8.0939,8.0939,8.0977,8.0862,8.0323,7.9939,7.9592,7.9169,7.8592,7.8061,7.7792,7.763,7.7445,7.7215,7.6984,7.6815,7.6651,7.6487,7.6556,7.6482,7.6271,7.5793,7.5036,7.4634,7.4392,7.4299,7.4126,7.4131,7.4236,7.434,7.4688,7.5304,7.5625,7.5781,7.625,7.6797,7.6719,7.6328,7.668,7.7109,7.6328,7.5625,7.5742,7.6094,7.6758,7.7383,7.793,9.7695,9.7695,9.7695,9.7695,9.7656,9.7422,9.6406,9.4726,9.3554,9.2768,9.239,9.2344,9.2212,9.2071,9.198,9.1938,9.1961,9.2111,9.218,9.2154,9.1958,9.094,9.0206,8.9754,8.891,8.7748,8.744,8.7825,8.7401,8.794,8.8632,8.9056,8.9171,8.8632,8.7709,8.6978,8.6555,8.5863,8.5662,8.547,8.4931,8.4593,8.4209,8.3717,8.3324,8.2747,8.1939,8.1823,8.167,8.1246,8.1131,8.117,8.1093,8.1093,8.1093,8.1093,8.1093,8.1093,8.1093,8.1093,8.1093,8.1131,8.1093,8.1093,8.1093,8.1093,8.1093,8.1093,8.1093,8.1093,8.1054,8.1054,8.0708,8.0554,8.0246,7.9738,7.9246,7.8677,7.8292,7.8253,7.8099,7.8061,7.7869,7.7599,7.735,7.7106,7.7086,7.6681,7.6374,7.6081,7.5504,7.5157,7.4912,7.4917,7.4925,7.4972,7.5227,7.5533,7.5938,7.6522,7.6719,7.6601,7.6758,7.7031,7.7148,7.7226,7.7344,7.7383,7.7031,7.668,7.6875,7.707,7.7578,7.8203,7.8789,9.7695,9.7695,9.7695,9.7695,9.7617,9.7109,9.5508,9.3594,9.2768,9.2351,9.2223,9.2136,9.1969,9.1807,9.1742,9.1684,9.1684,9.1867,9.1969,9.1958,9.1835,9.0965,9.0206,8.9721,8.8969,8.7748,8.7863,8.8363,8.8017,8.8748,8.9517,9.0094,9.0316,8.9402,8.8325,8.7564,8.6901,8.6247,8.594,8.5824,8.5478,8.5209,8.4901,8.4362,8.3901,8.3516,8.2747,8.2362,8.2247,8.1554,8.1285,8.1323,8.1208,8.1093,8.1093,8.1093,8.14,8.1477,8.1554,8.1554,8.1631,8.1593,8.1285,8.1093,8.1093,8.1093,8.1093,8.1093,8.1093,8.1093,8.1093,8.1093,8.1016,8.0862,8.0708,8.0239,8.0085,7.9515,7.9408,7.9292,7.8984,7.8907,7.8677,7.8446,7.818,7.7889,7.7629,7.7207,7.6784,7.6476,7.6253,7.5928,7.5603,7.5517,7.563,7.5816,7.6159,7.6677,7.6983,7.7263,7.7148,7.6953,7.7109,7.7226,7.7305,7.7383,7.7617,7.7617,7.7695,7.789,7.8203,7.8359,7.8515,7.8945,7.9492,9.7695,9.7695,9.7695,9.7656,9.7344,9.5898,9.4219,9.2694,9.2335,9.2205,9.2147,9.1934,9.176,9.1547,9.1495,9.1419,9.1354,9.1468,9.1553,9.1572,9.1584,9.0849,9.0423,9.008,8.9329,8.8902,8.8902,8.921,8.8863,8.9556,9.0402,9.0902,9.097,8.994,8.8795,8.791,8.7094,8.6401,8.6094,8.5901,8.5593,8.5816,8.5401,8.4939,8.47,8.4093,8.3478,8.3208,8.2593,8.2093,8.1823,8.1631,8.14,8.1093,8.1093,8.1362,8.19,8.2093,8.2324,8.2362,8.217,8.2054,8.1593,8.1285,8.1093,8.1093,8.1093,8.1093,8.1093,8.1093,8.1093,8.1093,8.1093,8.1054,8.1054,8.09,8.0939,8.0785,8.0785,8.0554,8.0092,7.9785,7.9285,7.9023,7.9177,7.9138,7.8938,7.8869,7.8361,7.7484,7.7222,7.689,7.6534,7.6171,7.6308,7.6501,7.6572,7.6905,7.7245,7.7461,7.7344,7.7539,7.789,7.7969,7.7578,7.7656,7.8281,7.8594,7.875,7.9023,7.9219,7.9414,7.9453,7.9609,8.0078,9.7695,9.7695,9.7695,9.7383,9.6601,9.4782,9.3667,9.3187,9.2402,9.1897,9.17,9.1661,9.1514,9.1305,9.1281,9.1236,9.1305,9.1406,9.1468,9.1495,9.1448,9.0953,9.0689,9.0511,8.9876,8.9594,8.9633,9.0017,8.9825,9.0393,9.0825,9.1133,9.1201,9.0171,8.921,8.8449,8.7401,8.6517,8.617,8.5863,8.5709,8.5854,8.5517,8.5277,8.547,8.4863,8.4362,8.4286,8.3593,8.2439,8.2208,8.19,8.1208,8.1131,8.1246,8.19,8.2247,8.2516,8.3054,8.3208,8.3016,8.2516,8.2054,8.1631,8.1323,8.1093,8.1093,8.1093,8.1093,8.1093,8.1093,8.1093,8.1093,8.1093,8.1093,8.1093,8.1093,8.1093,8.1093,8.1016,8.0554,8.0477,7.9977,8.0054,8.0208,8.0285,8.0285,8.0169,7.9754,7.8792,7.8176,7.7845,7.756,7.7203,7.6991,7.7127,7.7044,7.7084,7.7575,7.8008,7.8164,7.8437,7.8789,7.8789,7.8515,7.875,7.9258,7.9492,7.9609,7.9805,8.0,8.0234,8.0429,8.0547,8.0781,9.7695,9.7656,9.7344,9.6521,9.5171,9.3818,9.304,9.2623,9.1986,9.1643,9.1508,9.1434,9.1299,9.1224,9.1189,9.1219,9.1245,9.1297,9.1361,9.1361,9.1383,9.1114,9.0967,9.0917,9.0599,9.0364,9.0441,9.0778,9.0586,9.0778,9.1201,9.121,9.1201,9.0402,8.9479,8.8786,8.794,8.6978,8.6286,8.5816,8.5747,8.5824,8.567,8.5593,8.594,8.5593,8.5093,8.5132,8.4439,8.3131,8.2824,8.2631,8.2131,8.217,8.2208,8.2862,8.3324,8.3632,8.4055,8.4093,8.3593,8.2978,8.2485,8.1823,8.14,8.1093,8.1093,8.1093,8.1093,8.1093,8.1093,8.1093,8.1093,8.1093,8.1093,8.1093,8.1093,8.1093,8.1093,8.1093,8.1054,8.1016,8.1016,8.1093,8.1054,8.0862,8.0785,8.0746,8.0362,7.9669,7.9131,7.8792,7.8528,7.8274,7.8072,7.7857,7.8021,7.8177,7.8536,7.8906,7.9062,7.918,7.9375,7.9531,7.957,7.9844,8.0117,8.0234,8.0351,8.0586,8.0898,8.1172,8.1367,8.1445,8.1719,9.7461,9.7344,9.6601,9.5214,9.3546,9.2902,9.2245,9.1507,9.1514,9.1461,9.1417,9.1281,9.1206,9.1201,9.1201,9.1201,9.121,9.1249,9.1253,9.1227,9.1228,9.1121,9.1151,9.1163,9.0979,9.1086,9.1163,9.1086,9.1163,9.1201,9.1201,9.1201,9.1201,9.0624,8.9778,8.9248,8.8363,8.7286,8.6671,8.6247,8.6055,8.6094,8.6094,8.6055,8.6017,8.5824,8.5431,8.5324,8.5363,8.4286,8.3717,8.3678,8.3409,8.3332,8.3447,8.3785,8.4209,8.4632,8.4786,8.4786,8.4247,8.3555,8.287,8.2054,8.1516,8.1131,8.1093,8.1093,8.1093,8.1093,8.1093,8.1093,8.1093,8.1093,8.1093,8.1093,8.1093,8.1093,8.1093,8.1093,8.1093,8.1093,8.1093,8.1093,8.1093,8.1093,8.1093,8.1093,8.0862,8.0285,7.99,7.9608,7.9642,7.936,7.8867,7.8812,7.9195,7.9418,7.9648,7.9765,7.9883,7.9922,7.9961,8.0312,8.0664,8.0703,8.0898,8.1015,8.125,8.1601,8.1875,8.2109,8.2226,8.2148,8.2148,9.5781,9.5703,9.4661,9.3834,9.3149,9.2237,9.1613,9.1256,9.1248,9.1273,9.127,9.1224,9.1201,9.1201,9.1201,9.1201,9.1201,9.1201,9.1201,9.121,9.1201,9.1201,9.1201,9.1201,9.1201,9.1201,9.1201,9.1201,9.1201,9.1201,9.1201,9.1201,9.1163,9.0778,9.0086,8.9594,8.8863,8.7786,8.7325,8.6786,8.644,8.617,8.6094,8.6132,8.6094,8.6132,8.5901,8.5863,8.5517,8.4786,8.4632,8.4247,8.3678,8.364,8.3978,8.4478,8.4863,8.5239,8.5431,8.5239,8.4632,8.4016,8.3247,8.2324,8.167,8.1285,8.1093,8.1093,8.1093,8.1093,8.1093,8.1093,8.1093,8.1093,8.1093,8.1093,8.1093,8.1093,8.1093,8.1093,8.1093,8.1093,8.1093,8.1093,8.1093,8.1093,8.1093,8.1093,8.1093,8.0746,8.0362,8.0199,8.0757,8.0539,7.9934,7.9741,8.0154,8.0273,8.039,8.0547,8.0664,8.0898,8.1094,8.1523,8.1836,8.1679,8.1601,8.1875,8.2148,8.2304,8.2304,8.2304,8.2304,8.2226,8.2265,9.5114,9.4858,9.3715,9.2899,9.2372,9.1659,9.1275,9.1198,9.1201,9.1201,9.1201,9.1201,9.1201,9.1201,9.1201,9.1201,9.1201,9.1201,9.1201,9.1201,9.1201,9.1201,9.1201,9.1201,9.1201,9.1201,9.1201,9.1201,9.1201,9.1201,9.1201,9.1201,9.1171,9.0979,9.0393,9.0086,8.9509,8.8594,8.8171,8.7671,8.7094,8.6901,8.6709,8.6671,8.6671,8.6671,8.6478,8.6401,8.5863,8.5547,8.544,8.4978,8.4593,8.467,8.4978,8.5286,8.5517,8.5632,8.5824,8.5585,8.497,8.4401,8.4132,8.3439,8.2631,8.2208,8.1439,8.1362,8.1131,8.1093,8.1093,8.1093,8.1093,8.1093,8.1093,8.1093,8.1093,8.1093,8.1093,8.1093,8.1093,8.1093,8.1093,8.1093,8.1093,8.1093,8.1093,8.1093,8.1093,8.1093,8.0746,8.0623,8.1071,8.1342,8.0923,8.0875,8.1155,8.1211,8.1133,8.1367,8.1562,8.1914,8.2265,8.2226,8.2226,8.2187,8.2226,8.2304,8.2304,8.2304,8.2304,8.2304,8.2304,8.2304,8.2304,9.4585,9.4237,9.3109,9.2225,9.1532,9.1289,9.121,9.1201,9.1201,9.1201,9.1201,9.1201,9.1201,9.1201,9.1201,9.1201,9.1201,9.1201,9.1201,9.1201,9.1201,9.1201,9.1201,9.1201,9.1201,9.1325,9.1402,9.1278,9.1201,9.1355,9.1479,9.1278,9.1201,9.1163,9.097,9.0547,8.9902,8.9509,8.9133,8.8795,8.8402,8.8017,8.7709,8.7555,8.7555,8.7517,8.7171,8.6824,8.6324,8.6055,8.5978,8.5593,8.5393,8.544,8.567,8.594,8.5901,8.5978,8.6017,8.5816,8.5354,8.5008,8.497,8.447,8.3593,8.287,8.2054,8.1516,8.1285,8.1131,8.1131,8.1131,8.1131,8.1131,8.1131,8.1131,8.1131,8.1093,8.1093,8.1093,8.1093,8.1093,8.1093,8.1093,8.1093,8.1093,8.1093,8.1093,8.1093,8.1093,8.0939,8.0877,8.1109,8.1314,8.1476,8.1552,8.1635,8.1875,8.1797,8.2109,8.2304,8.2304,8.2304,8.2304,8.2304,8.2304,8.2304,8.2304,8.2304,8.2304,8.2304,8.2304,8.2304,8.2304,8.2304,9.2649,9.2428,9.1948,9.1624,9.1448,9.1281,9.1201,9.1201,9.1201,9.1201,9.1124,9.1163,9.1201,9.1163,9.1201,9.1201,9.1201,9.1201,9.1201,9.1201,9.1201,9.1201,9.124,9.1364,9.124,9.1518,9.1864,9.1787,9.1595,9.1902,9.1825,9.124,9.1201,9.1201,9.1163,9.0816,9.0556,9.0171,8.9855,8.9517,8.8949,8.8632,8.8517,8.8449,8.8449,8.7987,8.7555,8.7248,8.6748,8.6324,8.6094,8.594,8.5893,8.5931,8.6055,8.6094,8.6094,8.6094,8.6017,8.5709,8.5324,8.5209,8.497,8.447,8.3785,8.337,8.2562,8.1747,8.1477,8.1285,8.1246,8.1246,8.1246,8.1285,8.1285,8.1246,8.1208,8.1131,8.1093,8.1093,8.1093,8.1093,8.1093,8.1093,8.1093,8.1093,8.1093,8.1093,8.1093,8.1093,8.1093,8.1108,8.1183,8.1383,8.1602,8.1641,8.1758,8.207,8.2304,8.2304,8.2304,8.2304,8.2304,8.2304,8.2304,8.2304,8.2304,8.2304,8.2304,8.2304,8.2304,8.2304,8.2304,8.2304,8.2304]}]]